<?xml version='1.0' encoding='UTF-8'?><gpx version="1.1" creator="JPX - https://github.com/jenetics/jpx" xmlns="http://www.topografix.com/GPX/1/1"><trk><trkseg><trkpt lat="45.9948631" lon="11.7597906"><ele>604.0</ele><time>2026-04-04T14:52:26.324Z</time></trkpt><trkpt lat="45.9948178" lon="11.7599034"><ele>604.0</ele><time>2026-04-04T14:52:27.351Z</time></trkpt><trkpt lat="45.9947795" lon="11.7600121"><ele>604.0</ele><time>2026-04-04T14:52:28.344Z</time></trkpt><trkpt lat="45.9947465" lon="11.7601146"><ele>604.0</ele><time>2026-04-04T14:52:29.348Z</time></trkpt><trkpt lat="45.9947182" lon="11.7602072"><ele>604.0</ele><time>2026-04-04T14:52:30.349Z</time></trkpt><trkpt lat="45.9946843" lon="11.7603301"><ele>604.0</ele><time>2026-04-04T14:52:32.356Z</time></trkpt><trkpt lat="45.994641" lon="11.7604181"><ele>603.8</ele><time>2026-04-04T14:52:34.343Z</time></trkpt><trkpt lat="45.9945815" lon="11.7605736"><ele>603.5999999999999</ele><time>2026-04-04T14:52:36.352Z</time></trkpt><trkpt lat="45.9945331" lon="11.7606887"><ele>603.4</ele><time>2026-04-04T14:52:38.439Z</time></trkpt><trkpt lat="45.9945724" lon="11.7606049"><ele>603.1999999999999</ele><time>2026-04-04T14:52:42.381Z</time></trkpt><trkpt lat="45.9946279" lon="11.7604901"><ele>603.0</ele><time>2026-04-04T14:52:43.426Z</time></trkpt><trkpt lat="45.9946963" lon="11.7603874"><ele>603.0</ele><time>2026-04-04T14:52:45.397Z</time></trkpt><trkpt lat="45.9947575" lon="11.760247"><ele>603.0</ele><time>2026-04-04T14:52:48.411Z</time></trkpt><trkpt lat="45.9948157" lon="11.7600153"><ele>603.0</ele><time>2026-04-04T14:52:49.337Z</time></trkpt><trkpt lat="45.9948375" lon="11.7599261"><ele>603.0</ele><time>2026-04-04T14:52:50.381Z</time></trkpt><trkpt lat="45.9948685" lon="11.759844"><ele>603.0</ele><time>2026-04-04T14:52:58.381Z</time></trkpt><trkpt lat="45.9949225" lon="11.759769"><ele>603.1428571428572</ele><time>2026-04-04T14:53:12.397Z</time></trkpt><trkpt lat="45.9949692" lon="11.7597018"><ele>603.2857142857142</ele><time>2026-04-04T14:53:25.396Z</time></trkpt><trkpt lat="45.9949494" lon="11.7598111"><ele>603.4285714285714</ele><time>2026-04-04T14:53:35.42Z</time></trkpt><trkpt lat="45.9948961" lon="11.7598823"><ele>603.5714285714287</ele><time>2026-04-04T14:53:38.381Z</time></trkpt><trkpt lat="45.994833" lon="11.7598999"><ele>603.7142857142858</ele><time>2026-04-04T14:53:42.438Z</time></trkpt><trkpt lat="45.9947883" lon="11.7597898"><ele>603.8571428571429</ele><time>2026-04-04T14:53:45.453Z</time></trkpt><trkpt lat="45.9947311" lon="11.7597173"><ele>604.0</ele><time>2026-04-04T14:53:47.425Z</time></trkpt><trkpt lat="45.9946658" lon="11.7596584"><ele>604.0</ele><time>2026-04-04T14:53:49.396Z</time></trkpt><trkpt lat="45.9945893" lon="11.7596009"><ele>604.0</ele><time>2026-04-04T14:53:51.366Z</time></trkpt><trkpt lat="45.9945293" lon="11.7595474"><ele>604.0</ele><time>2026-04-04T14:53:54.38Z</time></trkpt><trkpt lat="45.9945021" lon="11.7594618"><ele>604.0</ele><time>2026-04-04T14:53:57.396Z</time></trkpt><trkpt lat="45.9944651" lon="11.7593743"><ele>604.0</ele><time>2026-04-04T14:54:00.409Z</time></trkpt><trkpt lat="45.9943814" lon="11.7593053"><ele>604.0</ele><time>2026-04-04T14:54:03.425Z</time></trkpt><trkpt lat="45.9943074" lon="11.7592547"><ele>604.6666666666667</ele><time>2026-04-04T14:54:05.396Z</time></trkpt><trkpt lat="45.994234" lon="11.7592885"><ele>605.3333333333334</ele><time>2026-04-04T14:54:07.366Z</time></trkpt><trkpt lat="45.9941586" lon="11.7593843"><ele>606.0</ele><time>2026-04-04T14:54:08.276Z</time></trkpt><trkpt lat="45.9940865" lon="11.759482"><ele>606.6666666666666</ele><time>2026-04-04T14:54:09.276Z</time></trkpt><trkpt lat="45.9940071" lon="11.7595555"><ele>607.3333333333333</ele><time>2026-04-04T14:54:10.276Z</time></trkpt><trkpt lat="45.9939511" lon="11.7595978"><ele>608.0</ele><time>2026-04-04T14:54:11.276Z</time></trkpt><trkpt lat="45.9938724" lon="11.7596507"><ele>604.6666666666666</ele><time>2026-04-04T14:54:13.278Z</time></trkpt><trkpt lat="45.9938026" lon="11.7596793"><ele>601.3333333333333</ele><time>2026-04-04T14:54:15.277Z</time></trkpt><trkpt lat="45.9937313" lon="11.7596823"><ele>598.0</ele><time>2026-04-04T14:54:17.277Z</time></trkpt><trkpt lat="45.9936823" lon="11.7596124"><ele>594.6666666666666</ele><time>2026-04-04T14:54:19.276Z</time></trkpt><trkpt lat="45.9936162" lon="11.7595777"><ele>591.3333333333334</ele><time>2026-04-04T14:54:21.276Z</time></trkpt><trkpt lat="45.9935108" lon="11.7596017"><ele>588.0</ele><time>2026-04-04T14:54:23.277Z</time></trkpt><trkpt lat="45.993392" lon="11.759597"><ele>583.1666666666666</ele><time>2026-04-04T14:54:24.276Z</time></trkpt><trkpt lat="45.9933193" lon="11.7596053"><ele>578.3333333333334</ele><time>2026-04-04T14:54:25.276Z</time></trkpt><trkpt lat="45.9932416" lon="11.7596081"><ele>573.5</ele><time>2026-04-04T14:54:26.276Z</time></trkpt><trkpt lat="45.9931587" lon="11.7596136"><ele>568.6666666666667</ele><time>2026-04-04T14:54:27.277Z</time></trkpt><trkpt lat="45.993063" lon="11.7596048"><ele>563.8333333333334</ele><time>2026-04-04T14:54:28.278Z</time></trkpt><trkpt lat="45.9929699" lon="11.7596043"><ele>559.0</ele><time>2026-04-04T14:54:29.276Z</time></trkpt><trkpt lat="45.9928871" lon="11.7596034"><ele>559.0</ele><time>2026-04-04T14:54:30.277Z</time></trkpt><trkpt lat="45.9928125" lon="11.7596175"><ele>559.0</ele><time>2026-04-04T14:54:31.277Z</time></trkpt><trkpt lat="45.992745" lon="11.7596344"><ele>559.0</ele><time>2026-04-04T14:54:32.277Z</time></trkpt><trkpt lat="45.9926288" lon="11.7596623"><ele>559.0</ele><time>2026-04-04T14:54:34.278Z</time></trkpt><trkpt lat="45.9925441" lon="11.7596211"><ele>559.0</ele><time>2026-04-04T14:54:36.277Z</time></trkpt><trkpt lat="45.9925051" lon="11.7595442"><ele>559.0</ele><time>2026-04-04T14:54:37.277Z</time></trkpt><trkpt lat="45.9924399" lon="11.7593884"><ele>556.6666666666667</ele><time>2026-04-04T14:54:39.278Z</time></trkpt><trkpt lat="45.9924131" lon="11.7592899"><ele>554.3333333333334</ele><time>2026-04-04T14:54:40.278Z</time></trkpt><trkpt lat="45.9923938" lon="11.759188"><ele>552.0</ele><time>2026-04-04T14:54:41.278Z</time></trkpt><trkpt lat="45.9923687" lon="11.7590703"><ele>549.6666666666666</ele><time>2026-04-04T14:54:42.277Z</time></trkpt><trkpt lat="45.9923396" lon="11.7589532"><ele>547.3333333333333</ele><time>2026-04-04T14:54:43.277Z</time></trkpt><trkpt lat="45.9923122" lon="11.7588187"><ele>545.0</ele><time>2026-04-04T14:54:44.278Z</time></trkpt><trkpt lat="45.9922813" lon="11.7587013"><ele>545.0</ele><time>2026-04-04T14:54:45.277Z</time></trkpt><trkpt lat="45.9922472" lon="11.7585865"><ele>545.0</ele><time>2026-04-04T14:54:46.277Z</time></trkpt><trkpt lat="45.9922119" lon="11.7584729"><ele>545.0</ele><time>2026-04-04T14:54:47.277Z</time></trkpt><trkpt lat="45.9921796" lon="11.7583617"><ele>545.0</ele><time>2026-04-04T14:54:48.277Z</time></trkpt><trkpt lat="45.9921548" lon="11.7582415"><ele>545.0</ele><time>2026-04-04T14:54:49.277Z</time></trkpt><trkpt lat="45.9921373" lon="11.7581224"><ele>545.0</ele><time>2026-04-04T14:54:50.277Z</time></trkpt><trkpt lat="45.992127" lon="11.7579971"><ele>545.0</ele><time>2026-04-04T14:54:51.277Z</time></trkpt><trkpt lat="45.9921344" lon="11.7578862"><ele>545.0</ele><time>2026-04-04T14:54:52.277Z</time></trkpt><trkpt lat="45.9921488" lon="11.7577759"><ele>545.0</ele><time>2026-04-04T14:54:53.277Z</time></trkpt><trkpt lat="45.9921646" lon="11.757662"><ele>545.0</ele><time>2026-04-04T14:54:54.277Z</time></trkpt><trkpt lat="45.992185" lon="11.7575491"><ele>545.0</ele><time>2026-04-04T14:54:55.278Z</time></trkpt><trkpt lat="45.9922044" lon="11.7574294"><ele>545.0</ele><time>2026-04-04T14:54:56.277Z</time></trkpt><trkpt lat="45.9922308" lon="11.7573002"><ele>545.0</ele><time>2026-04-04T14:54:57.277Z</time></trkpt><trkpt lat="45.9922634" lon="11.7571737"><ele>545.0</ele><time>2026-04-04T14:54:58.277Z</time></trkpt><trkpt lat="45.9922915" lon="11.7570404"><ele>545.0</ele><time>2026-04-04T14:54:59.277Z</time></trkpt><trkpt lat="45.9923193" lon="11.7569135"><ele>545.0</ele><time>2026-04-04T14:55:00.278Z</time></trkpt><trkpt lat="45.9923578" lon="11.7567743"><ele>545.0</ele><time>2026-04-04T14:55:01.278Z</time></trkpt><trkpt lat="45.9923925" lon="11.7566276"><ele>544.2</ele><time>2026-04-04T14:55:02.277Z</time></trkpt><trkpt lat="45.9924235" lon="11.7564829"><ele>543.4</ele><time>2026-04-04T14:55:03.277Z</time></trkpt><trkpt lat="45.9924413" lon="11.756349"><ele>542.6</ele><time>2026-04-04T14:55:04.278Z</time></trkpt><trkpt lat="45.9924264" lon="11.7561985"><ele>541.8</ele><time>2026-04-04T14:55:05.278Z</time></trkpt><trkpt lat="45.9924128" lon="11.7560653"><ele>541.0</ele><time>2026-04-04T14:55:06.277Z</time></trkpt><trkpt lat="45.9923917" lon="11.7559266"><ele>540.5</ele><time>2026-04-04T14:55:07.277Z</time></trkpt><trkpt lat="45.9923689" lon="11.7557847"><ele>540.0</ele><time>2026-04-04T14:55:08.277Z</time></trkpt><trkpt lat="45.9923495" lon="11.7556586"><ele>539.5</ele><time>2026-04-04T14:55:09.277Z</time></trkpt><trkpt lat="45.9923306" lon="11.7555591"><ele>539.0</ele><time>2026-04-04T14:55:10.277Z</time></trkpt><trkpt lat="45.9923028" lon="11.7554252"><ele>538.5</ele><time>2026-04-04T14:55:12.278Z</time></trkpt><trkpt lat="45.9923498" lon="11.7553328"><ele>538.0</ele><time>2026-04-04T14:55:19.277Z</time></trkpt><trkpt lat="45.992405" lon="11.7552228"><ele>537.8333333333334</ele><time>2026-04-04T14:55:21.279Z</time></trkpt><trkpt lat="45.9924115" lon="11.7551112"><ele>537.6666666666667</ele><time>2026-04-04T14:55:23.279Z</time></trkpt><trkpt lat="45.9923992" lon="11.7549753"><ele>537.5</ele><time>2026-04-04T14:55:25.278Z</time></trkpt><trkpt lat="45.9923858" lon="11.754869"><ele>537.3333333333334</ele><time>2026-04-04T14:55:26.277Z</time></trkpt><trkpt lat="45.9923736" lon="11.7547575"><ele>537.1666666666666</ele><time>2026-04-04T14:55:27.278Z</time></trkpt><trkpt lat="45.9923792" lon="11.7546588"><ele>537.0</ele><time>2026-04-04T14:55:28.278Z</time></trkpt><trkpt lat="45.9924245" lon="11.7545227"><ele>537.0</ele><time>2026-04-04T14:55:30.279Z</time></trkpt><trkpt lat="45.9925029" lon="11.7544218"><ele>537.0</ele><time>2026-04-04T14:55:32.278Z</time></trkpt><trkpt lat="45.9926098" lon="11.7543667"><ele>537.0</ele><time>2026-04-04T14:55:34.278Z</time></trkpt><trkpt lat="45.9926959" lon="11.7542615"><ele>537.0</ele><time>2026-04-04T14:55:36.278Z</time></trkpt><trkpt lat="45.992735" lon="11.7540952"><ele>542.1666666666666</ele><time>2026-04-04T14:55:38.279Z</time></trkpt><trkpt lat="45.9927524" lon="11.7539928"><ele>547.3333333333334</ele><time>2026-04-04T14:55:39.278Z</time></trkpt><trkpt lat="45.9927675" lon="11.753892"><ele>552.5</ele><time>2026-04-04T14:55:40.279Z</time></trkpt><trkpt lat="45.9927814" lon="11.7537968"><ele>557.6666666666667</ele><time>2026-04-04T14:55:41.279Z</time></trkpt><trkpt lat="45.9928358" lon="11.75365"><ele>562.8333333333334</ele><time>2026-04-04T14:55:43.278Z</time></trkpt><trkpt lat="45.992765" lon="11.7536698"><ele>568.0</ele><time>2026-04-04T14:56:06.279Z</time></trkpt><trkpt lat="45.9927435" lon="11.7537806"><ele>568.0</ele><time>2026-04-04T14:57:12.279Z</time></trkpt><trkpt lat="45.9927286" lon="11.7538935"><ele>568.0</ele><time>2026-04-04T14:57:13.28Z</time></trkpt><trkpt lat="45.9927102" lon="11.7540244"><ele>568.0</ele><time>2026-04-04T14:57:14.28Z</time></trkpt><trkpt lat="45.9926811" lon="11.7541644"><ele>568.0</ele><time>2026-04-04T14:57:15.28Z</time></trkpt><trkpt lat="45.992645" lon="11.7542653"><ele>568.0</ele><time>2026-04-04T14:57:16.279Z</time></trkpt><trkpt lat="45.9925962" lon="11.7543376"><ele>568.0</ele><time>2026-04-04T14:57:17.28Z</time></trkpt><trkpt lat="45.992544" lon="11.7544005"><ele>562.8333333333334</ele><time>2026-04-04T14:57:18.279Z</time></trkpt><trkpt lat="45.9924801" lon="11.7544463"><ele>557.6666666666667</ele><time>2026-04-04T14:57:19.28Z</time></trkpt><trkpt lat="45.9924241" lon="11.7545168"><ele>552.5</ele><time>2026-04-04T14:57:20.279Z</time></trkpt><trkpt lat="45.9923763" lon="11.7545993"><ele>547.3333333333334</ele><time>2026-04-04T14:57:21.279Z</time></trkpt><trkpt lat="45.9923619" lon="11.7547052"><ele>542.1666666666666</ele><time>2026-04-04T14:57:22.28Z</time></trkpt><trkpt lat="45.9923602" lon="11.7548291"><ele>537.0</ele><time>2026-04-04T14:57:23.28Z</time></trkpt><trkpt lat="45.9923655" lon="11.754946"><ele>537.0</ele><time>2026-04-04T14:57:24.281Z</time></trkpt><trkpt lat="45.9923794" lon="11.755058"><ele>537.0</ele><time>2026-04-04T14:57:25.279Z</time></trkpt><trkpt lat="45.9923923" lon="11.7551585"><ele>537.0</ele><time>2026-04-04T14:57:26.279Z</time></trkpt><trkpt lat="45.9923824" lon="11.7553057"><ele>537.0</ele><time>2026-04-04T14:57:28.279Z</time></trkpt><trkpt lat="45.9923128" lon="11.7553802"><ele>537.0</ele><time>2026-04-04T14:57:30.279Z</time></trkpt><trkpt lat="45.9922454" lon="11.7553877"><ele>537.0</ele><time>2026-04-04T14:57:32.279Z</time></trkpt><trkpt lat="45.9921325" lon="11.7552893"><ele>537.0</ele><time>2026-04-04T14:57:34.281Z</time></trkpt><trkpt lat="45.9920465" lon="11.7551939"><ele>537.0</ele><time>2026-04-04T14:57:35.28Z</time></trkpt><trkpt lat="45.9919667" lon="11.7551114"><ele>537.0</ele><time>2026-04-04T14:57:36.281Z</time></trkpt><trkpt lat="45.9918943" lon="11.7550444"><ele>537.0</ele><time>2026-04-04T14:57:37.279Z</time></trkpt><trkpt lat="45.9918322" lon="11.7549935"><ele>537.0</ele><time>2026-04-04T14:57:38.28Z</time></trkpt><trkpt lat="45.9917483" lon="11.7550339"><ele>533.5</ele><time>2026-04-04T14:57:40.28Z</time></trkpt><trkpt lat="45.9916697" lon="11.755144"><ele>530.0</ele><time>2026-04-04T14:57:42.281Z</time></trkpt><trkpt lat="45.9916042" lon="11.7552452"><ele>526.5</ele><time>2026-04-04T14:57:44.28Z</time></trkpt><trkpt lat="45.9915533" lon="11.7553252"><ele>523.0</ele><time>2026-04-04T14:57:46.28Z</time></trkpt><trkpt lat="45.9914889" lon="11.7553782"><ele>519.5</ele><time>2026-04-04T14:57:49.28Z</time></trkpt><trkpt lat="45.9914096" lon="11.7553304"><ele>516.0</ele><time>2026-04-04T14:57:51.281Z</time></trkpt><trkpt lat="45.9913277" lon="11.7552882"><ele>516.0</ele><time>2026-04-04T14:57:53.28Z</time></trkpt><trkpt lat="45.9912494" lon="11.7552792"><ele>516.0</ele><time>2026-04-04T14:57:56.281Z</time></trkpt><trkpt lat="45.9911723" lon="11.7552956"><ele>516.0</ele><time>2026-04-04T14:58:04.281Z</time></trkpt><trkpt lat="45.9911352" lon="11.755181"><ele>516.0</ele><time>2026-04-04T14:58:07.281Z</time></trkpt><trkpt lat="45.9910898" lon="11.7550655"><ele>516.0</ele><time>2026-04-04T14:58:09.28Z</time></trkpt><trkpt lat="45.9910331" lon="11.7549695"><ele>516.0</ele><time>2026-04-04T14:58:13.281Z</time></trkpt><trkpt lat="45.9910093" lon="11.7548768"><ele>516.0</ele><time>2026-04-04T14:58:15.281Z</time></trkpt><trkpt lat="45.9909789" lon="11.7547765"><ele>516.0</ele><time>2026-04-04T14:58:17.281Z</time></trkpt><trkpt lat="45.9909534" lon="11.7546909"><ele>516.0</ele><time>2026-04-04T14:58:19.28Z</time></trkpt><trkpt lat="45.9909254" lon="11.7546097"><ele>516.0</ele><time>2026-04-04T14:58:22.281Z</time></trkpt><trkpt lat="45.9908915" lon="11.7544854"><ele>516.0</ele><time>2026-04-04T14:58:25.28Z</time></trkpt><trkpt lat="45.9908589" lon="11.7543832"><ele>516.0</ele><time>2026-04-04T14:58:27.281Z</time></trkpt><trkpt lat="45.9908293" lon="11.7542429"><ele>511.3333333333333</ele><time>2026-04-04T14:58:29.28Z</time></trkpt><trkpt lat="45.9907999" lon="11.7541207"><ele>506.66666666666663</ele><time>2026-04-04T14:58:32.28Z</time></trkpt><trkpt lat="45.990794" lon="11.7539803"><ele>502.0</ele><time>2026-04-04T14:58:34.281Z</time></trkpt><trkpt lat="45.9908106" lon="11.7538712"><ele>497.3333333333333</ele><time>2026-04-04T14:58:37.282Z</time></trkpt><trkpt lat="45.9907884" lon="11.7537765"><ele>492.66666666666663</ele><time>2026-04-04T14:58:41.28Z</time></trkpt><trkpt lat="45.9906956" lon="11.7537695"><ele>488.0</ele><time>2026-04-04T14:58:44.282Z</time></trkpt><trkpt lat="45.9906427" lon="11.7537082"><ele>487.99999999999994</ele><time>2026-04-04T14:58:47.281Z</time></trkpt><trkpt lat="45.9906319" lon="11.7535886"><ele>488.0</ele><time>2026-04-04T14:58:49.281Z</time></trkpt><trkpt lat="45.9906123" lon="11.753489"><ele>487.99999999999994</ele><time>2026-04-04T14:58:52.281Z</time></trkpt><trkpt lat="45.9905947" lon="11.7533974"><ele>487.99999999999994</ele><time>2026-04-04T14:58:54.281Z</time></trkpt><trkpt lat="45.9905341" lon="11.7533269"><ele>488.0</ele><time>2026-04-04T14:58:57.282Z</time></trkpt><trkpt lat="45.9904781" lon="11.7532807"><ele>487.99999999999994</ele><time>2026-04-04T14:58:59.281Z</time></trkpt><trkpt lat="45.9904279" lon="11.7531972"><ele>487.99999999999994</ele><time>2026-04-04T14:59:01.282Z</time></trkpt><trkpt lat="45.9903794" lon="11.7530315"><ele>486.99999999999994</ele><time>2026-04-04T14:59:03.281Z</time></trkpt><trkpt lat="45.9903569" lon="11.7529412"><ele>486.0</ele><time>2026-04-04T14:59:04.282Z</time></trkpt><trkpt lat="45.9903366" lon="11.7528547"><ele>485.0</ele><time>2026-04-04T14:59:05.281Z</time></trkpt><trkpt lat="45.9903192" lon="11.7527593"><ele>484.0</ele><time>2026-04-04T14:59:06.281Z</time></trkpt><trkpt lat="45.9903061" lon="11.7526593"><ele>482.99999999999994</ele><time>2026-04-04T14:59:07.281Z</time></trkpt><trkpt lat="45.9902983" lon="11.7524993"><ele>482.0</ele><time>2026-04-04T14:59:09.281Z</time></trkpt><trkpt lat="45.9903116" lon="11.7523794"><ele>480.49999999999994</ele><time>2026-04-04T14:59:11.281Z</time></trkpt><trkpt lat="45.9903442" lon="11.7522567"><ele>479.0</ele><time>2026-04-04T14:59:13.281Z</time></trkpt><trkpt lat="45.9903799" lon="11.7521536"><ele>477.5</ele><time>2026-04-04T14:59:15.281Z</time></trkpt><trkpt lat="45.9903098" lon="11.7521218"><ele>476.0</ele><time>2026-04-04T14:59:20.282Z</time></trkpt><trkpt lat="45.9902551" lon="11.7521886"><ele>474.49999999999994</ele><time>2026-04-04T14:59:22.282Z</time></trkpt><trkpt lat="45.9902088" lon="11.7523265"><ele>473.0</ele><time>2026-04-04T14:59:24.281Z</time></trkpt><trkpt lat="45.9901548" lon="11.7523797"><ele>473.0</ele><time>2026-04-04T14:59:25.282Z</time></trkpt><trkpt lat="45.9900817" lon="11.7524149"><ele>472.99999999999994</ele><time>2026-04-04T14:59:26.281Z</time></trkpt><trkpt lat="45.9900089" lon="11.752436"><ele>472.99999999999994</ele><time>2026-04-04T14:59:27.281Z</time></trkpt><trkpt lat="45.9899222" lon="11.752525"><ele>473.0</ele><time>2026-04-04T14:59:29.283Z</time></trkpt><trkpt lat="45.9898854" lon="11.752671"><ele>473.0</ele><time>2026-04-04T14:59:31.282Z</time></trkpt><trkpt lat="45.9898624" lon="11.7528163"><ele>466.4</ele><time>2026-04-04T14:59:33.282Z</time></trkpt><trkpt lat="45.9898269" lon="11.7530007"><ele>459.79999999999995</ele><time>2026-04-04T14:59:35.282Z</time></trkpt><trkpt lat="45.9898051" lon="11.7530972"><ele>453.2</ele><time>2026-04-04T14:59:36.281Z</time></trkpt><trkpt lat="45.9897777" lon="11.7531795"><ele>446.6</ele><time>2026-04-04T14:59:37.282Z</time></trkpt><trkpt lat="45.989708" lon="11.7532989"><ele>440.0</ele><time>2026-04-04T14:59:39.281Z</time></trkpt><trkpt lat="45.9896522" lon="11.7534082"><ele>440.49999999999994</ele><time>2026-04-04T14:59:41.282Z</time></trkpt><trkpt lat="45.9896401" lon="11.7535535"><ele>441.0</ele><time>2026-04-04T14:59:43.281Z</time></trkpt><trkpt lat="45.9896043" lon="11.7536739"><ele>441.5</ele><time>2026-04-04T14:59:45.283Z</time></trkpt><trkpt lat="45.9895454" lon="11.7537433"><ele>442.0</ele><time>2026-04-04T14:59:47.281Z</time></trkpt><trkpt lat="45.9894835" lon="11.7538044"><ele>442.49999999999994</ele><time>2026-04-04T14:59:50.282Z</time></trkpt><trkpt lat="45.9894315" lon="11.7538591"><ele>443.0</ele><time>2026-04-04T14:59:52.281Z</time></trkpt><trkpt lat="45.9893569" lon="11.7538891"><ele>442.99999999999994</ele><time>2026-04-04T14:59:54.282Z</time></trkpt><trkpt lat="45.9892573" lon="11.753878"><ele>443.0</ele><time>2026-04-04T14:59:57.282Z</time></trkpt><trkpt lat="45.9891744" lon="11.7538896"><ele>443.0</ele><time>2026-04-04T14:59:59.282Z</time></trkpt><trkpt lat="45.9891003" lon="11.7539136"><ele>443.0</ele><time>2026-04-04T15:00:01.282Z</time></trkpt><trkpt lat="45.9890342" lon="11.7539291"><ele>442.99999999999994</ele><time>2026-04-04T15:00:03.282Z</time></trkpt><trkpt lat="45.9889673" lon="11.7538487"><ele>443.0</ele><time>2026-04-04T15:00:06.283Z</time></trkpt><trkpt lat="45.9889122" lon="11.753776"><ele>437.8333333333333</ele><time>2026-04-04T15:00:08.283Z</time></trkpt><trkpt lat="45.988861" lon="11.7538794"><ele>432.66666666666663</ele><time>2026-04-04T15:00:11.282Z</time></trkpt><trkpt lat="45.9888756" lon="11.7539987"><ele>427.5</ele><time>2026-04-04T15:00:13.282Z</time></trkpt><trkpt lat="45.9887604" lon="11.7539779"><ele>422.33333333333337</ele><time>2026-04-04T15:00:16.282Z</time></trkpt><trkpt lat="45.988702" lon="11.7539274"><ele>417.1666666666667</ele><time>2026-04-04T15:00:17.283Z</time></trkpt><trkpt lat="45.9886335" lon="11.7538721"><ele>412.0</ele><time>2026-04-04T15:00:18.283Z</time></trkpt><trkpt lat="45.9885567" lon="11.7538145"><ele>412.0</ele><time>2026-04-04T15:00:19.282Z</time></trkpt><trkpt lat="45.988482" lon="11.753759"><ele>412.0</ele><time>2026-04-04T15:00:20.283Z</time></trkpt><trkpt lat="45.9884058" lon="11.7537105"><ele>412.0</ele><time>2026-04-04T15:00:21.282Z</time></trkpt><trkpt lat="45.9883385" lon="11.7536653"><ele>412.0</ele><time>2026-04-04T15:00:22.283Z</time></trkpt><trkpt lat="45.9881944" lon="11.7535494"><ele>412.0</ele><time>2026-04-04T15:00:25.282Z</time></trkpt><trkpt lat="45.9881151" lon="11.7535083"><ele>408.0</ele><time>2026-04-04T15:00:28.283Z</time></trkpt><trkpt lat="45.9880392" lon="11.753516"><ele>404.0</ele><time>2026-04-04T15:00:33.283Z</time></trkpt><trkpt lat="45.987897" lon="11.7535287"><ele>400.0</ele><time>2026-04-04T15:00:35.282Z</time></trkpt><trkpt lat="45.9878244" lon="11.7535363"><ele>396.0</ele><time>2026-04-04T15:00:36.282Z</time></trkpt><trkpt lat="45.9877634" lon="11.7535636"><ele>392.0</ele><time>2026-04-04T15:00:37.282Z</time></trkpt><trkpt lat="45.9876664" lon="11.753621"><ele>392.0</ele><time>2026-04-04T15:00:39.284Z</time></trkpt><trkpt lat="45.9875679" lon="11.7536413"><ele>392.0</ele><time>2026-04-04T15:00:41.283Z</time></trkpt><trkpt lat="45.9874902" lon="11.7536846"><ele>392.0</ele><time>2026-04-04T15:00:43.283Z</time></trkpt><trkpt lat="45.9874389" lon="11.7537932"><ele>392.0</ele><time>2026-04-04T15:00:45.283Z</time></trkpt><trkpt lat="45.9874085" lon="11.7538955"><ele>392.0</ele><time>2026-04-04T15:00:47.282Z</time></trkpt><trkpt lat="45.9873363" lon="11.7540155"><ele>392.66666666666663</ele><time>2026-04-04T15:00:49.282Z</time></trkpt><trkpt lat="45.9872537" lon="11.7541294"><ele>393.3333333333333</ele><time>2026-04-04T15:00:51.282Z</time></trkpt><trkpt lat="45.9872018" lon="11.7541823"><ele>394.0</ele><time>2026-04-04T15:00:53.284Z</time></trkpt><trkpt lat="45.9871115" lon="11.7542749"><ele>394.66666666666663</ele><time>2026-04-04T15:00:55.283Z</time></trkpt><trkpt lat="45.9870588" lon="11.7543337"><ele>395.3333333333333</ele><time>2026-04-04T15:00:56.285Z</time></trkpt><trkpt lat="45.9870123" lon="11.7543985"><ele>396.0</ele><time>2026-04-04T15:00:57.284Z</time></trkpt><trkpt lat="45.9869583" lon="11.7545596"><ele>396.0</ele><time>2026-04-04T15:00:59.283Z</time></trkpt><trkpt lat="45.9869117" lon="11.7546842"><ele>396.0</ele><time>2026-04-04T15:01:01.284Z</time></trkpt><trkpt lat="45.9868636" lon="11.754745"><ele>396.0</ele><time>2026-04-04T15:01:02.284Z</time></trkpt><trkpt lat="45.9868064" lon="11.7548112"><ele>396.0</ele><time>2026-04-04T15:01:03.284Z</time></trkpt><trkpt lat="45.9867578" lon="11.7548714"><ele>396.0</ele><time>2026-04-04T15:01:04.283Z</time></trkpt><trkpt lat="45.9866936" lon="11.7549843"><ele>396.0</ele><time>2026-04-04T15:01:06.284Z</time></trkpt><trkpt lat="45.9866091" lon="11.7549655"><ele>390.8333333333333</ele><time>2026-04-04T15:01:23.283Z</time></trkpt><trkpt lat="45.9865675" lon="11.7548961"><ele>385.6666666666667</ele><time>2026-04-04T15:01:24.284Z</time></trkpt><trkpt lat="45.9864996" lon="11.7547993"><ele>380.5</ele><time>2026-04-04T15:01:26.284Z</time></trkpt><trkpt lat="45.9864445" lon="11.7547484"><ele>375.33333333333337</ele><time>2026-04-04T15:01:28.284Z</time></trkpt><trkpt lat="45.98637" lon="11.7546595"><ele>370.1666666666667</ele><time>2026-04-04T15:01:30.283Z</time></trkpt><trkpt lat="45.9863635" lon="11.7545403"><ele>365.0</ele><time>2026-04-04T15:01:33.283Z</time></trkpt><trkpt lat="45.9864036" lon="11.7544428"><ele>364.0</ele><time>2026-04-04T15:01:35.284Z</time></trkpt><trkpt lat="45.9864517" lon="11.754311"><ele>363.0</ele><time>2026-04-04T15:01:37.284Z</time></trkpt><trkpt lat="45.9864283" lon="11.7541665"><ele>362.0</ele><time>2026-04-04T15:01:39.285Z</time></trkpt><trkpt lat="45.9863405" lon="11.7540603"><ele>361.0</ele><time>2026-04-04T15:01:41.283Z</time></trkpt><trkpt lat="45.9862714" lon="11.7540421"><ele>360.0</ele><time>2026-04-04T15:01:43.283Z</time></trkpt><trkpt lat="45.9861719" lon="11.7541124"><ele>360.0</ele><time>2026-04-04T15:01:45.284Z</time></trkpt><trkpt lat="45.9861198" lon="11.7541692"><ele>360.0</ele><time>2026-04-04T15:01:46.284Z</time></trkpt><trkpt lat="45.9860601" lon="11.7542302"><ele>360.0</ele><time>2026-04-04T15:01:47.284Z</time></trkpt><trkpt lat="45.9859914" lon="11.75428"><ele>360.0</ele><time>2026-04-04T15:01:48.284Z</time></trkpt><trkpt lat="45.9858978" lon="11.7543339"><ele>360.0</ele><time>2026-04-04T15:01:49.284Z</time></trkpt><trkpt lat="45.9857973" lon="11.7543951"><ele>360.0</ele><time>2026-04-04T15:01:50.285Z</time></trkpt><trkpt lat="45.9857087" lon="11.7544561"><ele>360.5</ele><time>2026-04-04T15:01:51.284Z</time></trkpt><trkpt lat="45.9856324" lon="11.7545125"><ele>361.0</ele><time>2026-04-04T15:01:52.284Z</time></trkpt><trkpt lat="45.9855771" lon="11.754557"><ele>361.5</ele><time>2026-04-04T15:01:53.284Z</time></trkpt><trkpt lat="45.9855122" lon="11.754592"><ele>362.0</ele><time>2026-04-04T15:01:56.284Z</time></trkpt><trkpt lat="45.9854785" lon="11.7544993"><ele>362.5</ele><time>2026-04-04T15:02:00.285Z</time></trkpt><trkpt lat="45.9854759" lon="11.7543908"><ele>363.0</ele><time>2026-04-04T15:02:01.285Z</time></trkpt><trkpt lat="45.9854469" lon="11.7542197"><ele>363.0</ele><time>2026-04-04T15:02:03.284Z</time></trkpt><trkpt lat="45.9854011" lon="11.7540926"><ele>363.0</ele><time>2026-04-04T15:02:04.284Z</time></trkpt><trkpt lat="45.9853454" lon="11.7539643"><ele>363.0</ele><time>2026-04-04T15:02:05.284Z</time></trkpt><trkpt lat="45.985291" lon="11.7538585"><ele>363.0</ele><time>2026-04-04T15:02:06.284Z</time></trkpt><trkpt lat="45.9852524" lon="11.7537255"><ele>363.0</ele><time>2026-04-04T15:02:07.285Z</time></trkpt><trkpt lat="45.9852175" lon="11.7536055"><ele>364.3333333333333</ele><time>2026-04-04T15:02:08.284Z</time></trkpt><trkpt lat="45.985191" lon="11.7534888"><ele>365.6666666666667</ele><time>2026-04-04T15:02:09.284Z</time></trkpt><trkpt lat="45.9851628" lon="11.7533877"><ele>367.0</ele><time>2026-04-04T15:02:10.284Z</time></trkpt><trkpt lat="45.9851347" lon="11.7532931"><ele>368.33333333333337</ele><time>2026-04-04T15:02:11.285Z</time></trkpt><trkpt lat="45.9851092" lon="11.7532002"><ele>369.6666666666667</ele><time>2026-04-04T15:02:12.284Z</time></trkpt><trkpt lat="45.9850843" lon="11.7530355"><ele>371.0</ele><time>2026-04-04T15:02:14.284Z</time></trkpt><trkpt lat="45.9850944" lon="11.7528967"><ele>371.0</ele><time>2026-04-04T15:02:16.284Z</time></trkpt><trkpt lat="45.9850992" lon="11.7527818"><ele>371.0</ele><time>2026-04-04T15:02:18.284Z</time></trkpt><trkpt lat="45.9850491" lon="11.7526205"><ele>371.0</ele><time>2026-04-04T15:02:20.285Z</time></trkpt><trkpt lat="45.9850169" lon="11.7525288"><ele>371.0</ele><time>2026-04-04T15:02:21.284Z</time></trkpt><trkpt lat="45.9849826" lon="11.7524379"><ele>371.0</ele><time>2026-04-04T15:02:22.284Z</time></trkpt><trkpt lat="45.9849279" lon="11.7523044"><ele>372.5</ele><time>2026-04-04T15:02:24.284Z</time></trkpt><trkpt lat="45.9848855" lon="11.752228"><ele>374.0</ele><time>2026-04-04T15:02:26.284Z</time></trkpt><trkpt lat="45.9848471" lon="11.7521399"><ele>375.5</ele><time>2026-04-04T15:02:28.284Z</time></trkpt><trkpt lat="45.9848155" lon="11.7519697"><ele>377.0</ele><time>2026-04-04T15:02:30.284Z</time></trkpt><trkpt lat="45.9847979" lon="11.7518628"><ele>378.5</ele><time>2026-04-04T15:02:31.284Z</time></trkpt><trkpt lat="45.9847803" lon="11.7517423"><ele>380.0</ele><time>2026-04-04T15:02:32.285Z</time></trkpt><trkpt lat="45.9847679" lon="11.7516163"><ele>381.2</ele><time>2026-04-04T15:02:33.284Z</time></trkpt><trkpt lat="45.9847571" lon="11.7514822"><ele>382.4</ele><time>2026-04-04T15:02:34.284Z</time></trkpt><trkpt lat="45.9847422" lon="11.7513469"><ele>383.6</ele><time>2026-04-04T15:02:35.285Z</time></trkpt><trkpt lat="45.9847255" lon="11.751207"><ele>384.8</ele><time>2026-04-04T15:02:36.285Z</time></trkpt><trkpt lat="45.9847012" lon="11.7510809"><ele>386.0</ele><time>2026-04-04T15:02:37.284Z</time></trkpt><trkpt lat="45.9846767" lon="11.7509486"><ele>386.99999999999994</ele><time>2026-04-04T15:02:38.285Z</time></trkpt><trkpt lat="45.9846429" lon="11.7508344"><ele>388.0</ele><time>2026-04-04T15:02:39.285Z</time></trkpt><trkpt lat="45.98461" lon="11.750715"><ele>389.0</ele><time>2026-04-04T15:02:40.285Z</time></trkpt><trkpt lat="45.9845736" lon="11.7505987"><ele>390.0</ele><time>2026-04-04T15:02:41.285Z</time></trkpt><trkpt lat="45.9845354" lon="11.7504902"><ele>390.99999999999994</ele><time>2026-04-04T15:02:42.285Z</time></trkpt><trkpt lat="45.9844921" lon="11.7503829"><ele>392.0</ele><time>2026-04-04T15:02:43.285Z</time></trkpt><trkpt lat="45.9844418" lon="11.7502691"><ele>392.99999999999994</ele><time>2026-04-04T15:02:44.286Z</time></trkpt><trkpt lat="45.9843922" lon="11.7501609"><ele>394.0</ele><time>2026-04-04T15:02:45.285Z</time></trkpt><trkpt lat="45.9843485" lon="11.7500418"><ele>395.0</ele><time>2026-04-04T15:02:46.286Z</time></trkpt><trkpt lat="45.984321" lon="11.7499249"><ele>396.0</ele><time>2026-04-04T15:02:47.285Z</time></trkpt><trkpt lat="45.9843067" lon="11.7498028"><ele>396.99999999999994</ele><time>2026-04-04T15:02:48.286Z</time></trkpt><trkpt lat="45.9843099" lon="11.7496878"><ele>398.0</ele><time>2026-04-04T15:02:49.285Z</time></trkpt><trkpt lat="45.9843373" lon="11.7495497"><ele>398.0</ele><time>2026-04-04T15:02:51.285Z</time></trkpt><trkpt lat="45.9843775" lon="11.7494732"><ele>398.0</ele><time>2026-04-04T15:02:53.284Z</time></trkpt><trkpt lat="45.9843001" lon="11.7495426"><ele>398.0</ele><time>2026-04-04T15:03:07.285Z</time></trkpt><trkpt lat="45.9842265" lon="11.7496587"><ele>398.0</ele><time>2026-04-04T15:03:09.286Z</time></trkpt><trkpt lat="45.9841544" lon="11.7496778"><ele>398.0</ele><time>2026-04-04T15:03:11.286Z</time></trkpt><trkpt lat="45.9840837" lon="11.7495465"><ele>394.8333333333333</ele><time>2026-04-04T15:03:13.285Z</time></trkpt><trkpt lat="45.9840626" lon="11.7494605"><ele>391.66666666666663</ele><time>2026-04-04T15:03:14.285Z</time></trkpt><trkpt lat="45.9840543" lon="11.7493257"><ele>388.5</ele><time>2026-04-04T15:03:16.286Z</time></trkpt><trkpt lat="45.9840365" lon="11.7492193"><ele>385.3333333333333</ele><time>2026-04-04T15:03:18.286Z</time></trkpt><trkpt lat="45.9839766" lon="11.7491488"><ele>382.16666666666663</ele><time>2026-04-04T15:03:20.286Z</time></trkpt><trkpt lat="45.9839054" lon="11.7491798"><ele>379.0</ele><time>2026-04-04T15:03:23.286Z</time></trkpt><trkpt lat="45.9838408" lon="11.7492632"><ele>378.5</ele><time>2026-04-04T15:03:25.285Z</time></trkpt><trkpt lat="45.9837958" lon="11.7493372"><ele>378.0</ele><time>2026-04-04T15:03:28.285Z</time></trkpt><trkpt lat="45.9838747" lon="11.7492486"><ele>377.5</ele><time>2026-04-04T15:03:31.285Z</time></trkpt><trkpt lat="45.9839297" lon="11.7491476"><ele>377.0</ele><time>2026-04-04T15:03:33.286Z</time></trkpt><trkpt lat="45.9839962" lon="11.7491638"><ele>376.5</ele><time>2026-04-04T15:03:54.286Z</time></trkpt><trkpt lat="45.984037" lon="11.7492412"><ele>376.0</ele><time>2026-04-04T15:03:57.286Z</time></trkpt><trkpt lat="45.9840331" lon="11.7493451"><ele>376.5</ele><time>2026-04-04T15:03:59.286Z</time></trkpt><trkpt lat="45.9840457" lon="11.7494691"><ele>377.0</ele><time>2026-04-04T15:04:01.287Z</time></trkpt><trkpt lat="45.9840714" lon="11.7495547"><ele>377.5</ele><time>2026-04-04T15:04:02.286Z</time></trkpt><trkpt lat="45.9841431" lon="11.7496848"><ele>378.0</ele><time>2026-04-04T15:04:04.287Z</time></trkpt><trkpt lat="45.9842425" lon="11.7496306"><ele>378.5</ele><time>2026-04-04T15:04:06.287Z</time></trkpt><trkpt lat="45.9842893" lon="11.749564"><ele>379.0</ele><time>2026-04-04T15:04:07.287Z</time></trkpt><trkpt lat="45.984335" lon="11.749493"><ele>382.16666666666663</ele><time>2026-04-04T15:04:08.287Z</time></trkpt><trkpt lat="45.9843768" lon="11.749414"><ele>385.3333333333333</ele><time>2026-04-04T15:04:09.287Z</time></trkpt><trkpt lat="45.9844336" lon="11.7493353"><ele>388.5</ele><time>2026-04-04T15:04:10.287Z</time></trkpt><trkpt lat="45.9844946" lon="11.7492519"><ele>391.66666666666663</ele><time>2026-04-04T15:04:11.287Z</time></trkpt><trkpt lat="45.9845655" lon="11.7491778"><ele>394.8333333333333</ele><time>2026-04-04T15:04:12.286Z</time></trkpt><trkpt lat="45.9846421" lon="11.7491067"><ele>398.0</ele><time>2026-04-04T15:04:13.286Z</time></trkpt><trkpt lat="45.9847116" lon="11.7490369"><ele>398.16666666666663</ele><time>2026-04-04T15:04:14.287Z</time></trkpt><trkpt lat="45.9847903" lon="11.7489929"><ele>398.3333333333333</ele><time>2026-04-04T15:04:15.286Z</time></trkpt><trkpt lat="45.984871" lon="11.7489651"><ele>398.5</ele><time>2026-04-04T15:04:16.287Z</time></trkpt><trkpt lat="45.9849531" lon="11.748945"><ele>398.66666666666663</ele><time>2026-04-04T15:04:17.286Z</time></trkpt><trkpt lat="45.9850291" lon="11.748925"><ele>398.8333333333333</ele><time>2026-04-04T15:04:19.286Z</time></trkpt><trkpt lat="45.9850966" lon="11.7488851"><ele>399.0</ele><time>2026-04-04T15:04:23.287Z</time></trkpt><trkpt lat="45.985144" lon="11.7488173"><ele>399.8333333333333</ele><time>2026-04-04T15:04:26.287Z</time></trkpt><trkpt lat="45.9852015" lon="11.7487713"><ele>400.66666666666663</ele><time>2026-04-04T15:04:29.286Z</time></trkpt><trkpt lat="45.9852821" lon="11.7487074"><ele>401.5</ele><time>2026-04-04T15:04:31.286Z</time></trkpt><trkpt lat="45.9853674" lon="11.7486231"><ele>402.3333333333333</ele><time>2026-04-04T15:04:33.286Z</time></trkpt><trkpt lat="45.9854163" lon="11.748563"><ele>403.16666666666663</ele><time>2026-04-04T15:04:34.287Z</time></trkpt><trkpt lat="45.9854802" lon="11.7484776"><ele>404.0</ele><time>2026-04-04T15:04:35.286Z</time></trkpt><trkpt lat="45.9855408" lon="11.7483877"><ele>404.0</ele><time>2026-04-04T15:04:36.286Z</time></trkpt><trkpt lat="45.9855957" lon="11.7482905"><ele>404.0</ele><time>2026-04-04T15:04:37.287Z</time></trkpt><trkpt lat="45.9856417" lon="11.7482059"><ele>404.0</ele><time>2026-04-04T15:04:38.288Z</time></trkpt><trkpt lat="45.985693" lon="11.7481383"><ele>404.0</ele><time>2026-04-04T15:04:39.286Z</time></trkpt><trkpt lat="45.985743" lon="11.7480786"><ele>404.0</ele><time>2026-04-04T15:04:40.286Z</time></trkpt><trkpt lat="45.985805" lon="11.7480361"><ele>404.0</ele><time>2026-04-04T15:04:42.287Z</time></trkpt><trkpt lat="45.9858632" lon="11.7479769"><ele>404.0</ele><time>2026-04-04T15:04:52.288Z</time></trkpt><trkpt lat="45.9859405" lon="11.7478711"><ele>403.16666666666663</ele><time>2026-04-04T15:04:54.288Z</time></trkpt><trkpt lat="45.9860267" lon="11.7477525"><ele>402.3333333333333</ele><time>2026-04-04T15:04:56.288Z</time></trkpt><trkpt lat="45.9860703" lon="11.7476812"><ele>401.5</ele><time>2026-04-04T15:04:57.287Z</time></trkpt><trkpt lat="45.9861153" lon="11.7475744"><ele>400.66666666666663</ele><time>2026-04-04T15:04:59.286Z</time></trkpt><trkpt lat="45.9861803" lon="11.7475221"><ele>399.8333333333333</ele><time>2026-04-04T15:05:46.288Z</time></trkpt><trkpt lat="45.9861912" lon="11.7473935"><ele>399.0</ele><time>2026-04-04T15:06:11.288Z</time></trkpt><trkpt lat="45.9862453" lon="11.7472789"><ele>399.0</ele><time>2026-04-04T15:06:13.289Z</time></trkpt><trkpt lat="45.9863126" lon="11.7471615"><ele>399.0</ele><time>2026-04-04T15:06:15.288Z</time></trkpt><trkpt lat="45.9863381" lon="11.7470105"><ele>399.0</ele><time>2026-04-04T15:06:17.289Z</time></trkpt><trkpt lat="45.9863715" lon="11.746912"><ele>399.0</ele><time>2026-04-04T15:06:18.288Z</time></trkpt><trkpt lat="45.9864125" lon="11.7468"><ele>399.0</ele><time>2026-04-04T15:06:19.288Z</time></trkpt><trkpt lat="45.9864521" lon="11.7466767"><ele>395.3333333333333</ele><time>2026-04-04T15:06:20.288Z</time></trkpt><trkpt lat="45.9864918" lon="11.746586"><ele>391.6666666666667</ele><time>2026-04-04T15:06:21.288Z</time></trkpt><trkpt lat="45.9865283" lon="11.7465031"><ele>388.0</ele><time>2026-04-04T15:06:22.289Z</time></trkpt><trkpt lat="45.9865491" lon="11.7463531"><ele>384.33333333333337</ele><time>2026-04-04T15:06:24.288Z</time></trkpt><trkpt lat="45.9865159" lon="11.7462003"><ele>380.6666666666667</ele><time>2026-04-04T15:06:26.289Z</time></trkpt><trkpt lat="45.9865171" lon="11.7460995"><ele>377.0</ele><time>2026-04-04T15:06:31.288Z</time></trkpt><trkpt lat="45.9865511" lon="11.7459467"><ele>375.6666666666667</ele><time>2026-04-04T15:06:33.288Z</time></trkpt><trkpt lat="45.9865753" lon="11.7458361"><ele>374.33333333333337</ele><time>2026-04-04T15:06:34.289Z</time></trkpt><trkpt lat="45.9865911" lon="11.745744"><ele>373.0</ele><time>2026-04-04T15:06:35.289Z</time></trkpt><trkpt lat="45.9866162" lon="11.7455913"><ele>371.6666666666667</ele><time>2026-04-04T15:06:37.289Z</time></trkpt><trkpt lat="45.9866407" lon="11.7454725"><ele>370.3333333333333</ele><time>2026-04-04T15:06:39.289Z</time></trkpt><trkpt lat="45.9866915" lon="11.7453633"><ele>369.0</ele><time>2026-04-04T15:06:41.289Z</time></trkpt><trkpt lat="45.9867863" lon="11.7453375"><ele>374.2</ele><time>2026-04-04T15:06:43.288Z</time></trkpt><trkpt lat="45.9868573" lon="11.745238"><ele>379.4</ele><time>2026-04-04T15:06:45.289Z</time></trkpt><trkpt lat="45.9869227" lon="11.7452032"><ele>384.6</ele><time>2026-04-04T15:06:47.289Z</time></trkpt><trkpt lat="45.9869771" lon="11.7451166"><ele>389.8</ele><time>2026-04-04T15:06:49.289Z</time></trkpt><trkpt lat="45.9870386" lon="11.7449948"><ele>395.0</ele><time>2026-04-04T15:06:51.29Z</time></trkpt><trkpt lat="45.9871228" lon="11.7448667"><ele>394.99999999999994</ele><time>2026-04-04T15:06:53.288Z</time></trkpt><trkpt lat="45.9871636" lon="11.744774"><ele>395.0</ele><time>2026-04-04T15:06:54.289Z</time></trkpt><trkpt lat="45.9872178" lon="11.744644"><ele>395.0</ele><time>2026-04-04T15:06:56.289Z</time></trkpt><trkpt lat="45.9872795" lon="11.7445803"><ele>395.0</ele><time>2026-04-04T15:06:59.289Z</time></trkpt><trkpt lat="45.9873493" lon="11.7445348"><ele>394.99999999999994</ele><time>2026-04-04T15:07:02.29Z</time></trkpt><trkpt lat="45.9874188" lon="11.7444628"><ele>395.0</ele><time>2026-04-04T15:07:05.289Z</time></trkpt><trkpt lat="45.9874593" lon="11.7443425"><ele>392.2</ele><time>2026-04-04T15:07:07.289Z</time></trkpt><trkpt lat="45.9875072" lon="11.744235"><ele>389.4</ele><time>2026-04-04T15:07:09.29Z</time></trkpt><trkpt lat="45.9875617" lon="11.7441483"><ele>386.6</ele><time>2026-04-04T15:07:11.289Z</time></trkpt><trkpt lat="45.9876528" lon="11.7440803"><ele>383.8</ele><time>2026-04-04T15:07:14.29Z</time></trkpt><trkpt lat="45.9877421" lon="11.7440535"><ele>381.0</ele><time>2026-04-04T15:07:16.289Z</time></trkpt><trkpt lat="45.9878048" lon="11.7439634"><ele>385.1428571428571</ele><time>2026-04-04T15:07:18.289Z</time></trkpt><trkpt lat="45.987826" lon="11.7438693"><ele>389.28571428571433</ele><time>2026-04-04T15:07:20.29Z</time></trkpt><trkpt lat="45.9878454" lon="11.7437602"><ele>393.42857142857144</ele><time>2026-04-04T15:07:22.29Z</time></trkpt><trkpt lat="45.9878817" lon="11.74364"><ele>397.57142857142856</ele><time>2026-04-04T15:07:24.29Z</time></trkpt><trkpt lat="45.9879066" lon="11.7435472"><ele>401.71428571428567</ele><time>2026-04-04T15:07:26.29Z</time></trkpt><trkpt lat="45.9879179" lon="11.7434561"><ele>405.8571428571429</ele><time>2026-04-04T15:07:29.289Z</time></trkpt><trkpt lat="45.9879519" lon="11.7433729"><ele>410.0</ele><time>2026-04-04T15:07:32.29Z</time></trkpt><trkpt lat="45.9879718" lon="11.7432756"><ele>410.0</ele><time>2026-04-04T15:07:34.289Z</time></trkpt><trkpt lat="45.98799" lon="11.7431733"><ele>410.0</ele><time>2026-04-04T15:07:37.289Z</time></trkpt><trkpt lat="45.988021" lon="11.7430901"><ele>410.0</ele><time>2026-04-04T15:07:40.289Z</time></trkpt><trkpt lat="45.9880611" lon="11.7430114"><ele>410.0</ele><time>2026-04-04T15:07:42.29Z</time></trkpt><trkpt lat="45.9881056" lon="11.7429419"><ele>410.0</ele><time>2026-04-04T15:07:44.289Z</time></trkpt><trkpt lat="45.9881017" lon="11.7428474"><ele>410.0</ele><time>2026-04-04T15:07:48.29Z</time></trkpt><trkpt lat="45.9880953" lon="11.7427366"><ele>410.0</ele><time>2026-04-04T15:07:51.29Z</time></trkpt><trkpt lat="45.9880763" lon="11.7426485"><ele>405.99999999999994</ele><time>2026-04-04T15:07:54.291Z</time></trkpt><trkpt lat="45.988076" lon="11.7425368"><ele>402.0</ele><time>2026-04-04T15:07:58.292Z</time></trkpt><trkpt lat="45.9880854" lon="11.7424206"><ele>398.0</ele><time>2026-04-04T15:08:03.291Z</time></trkpt><trkpt lat="45.9880583" lon="11.7423325"><ele>394.0</ele><time>2026-04-04T15:08:06.29Z</time></trkpt><trkpt lat="45.9879933" lon="11.7423131"><ele>389.99999999999994</ele><time>2026-04-04T15:08:25.29Z</time></trkpt><trkpt lat="45.9879125" lon="11.7422444"><ele>386.0</ele><time>2026-04-04T15:08:27.29Z</time></trkpt><trkpt lat="45.9878661" lon="11.7421543"><ele>385.99999999999994</ele><time>2026-04-04T15:08:29.29Z</time></trkpt><trkpt lat="45.9878533" lon="11.741997"><ele>386.0</ele><time>2026-04-04T15:08:31.291Z</time></trkpt><trkpt lat="45.9878219" lon="11.7418656"><ele>386.0</ele><time>2026-04-04T15:08:33.29Z</time></trkpt><trkpt lat="45.9877704" lon="11.7418063"><ele>386.0</ele><time>2026-04-04T15:08:35.291Z</time></trkpt><trkpt lat="45.9877381" lon="11.741704"><ele>385.99999999999994</ele><time>2026-04-04T15:08:37.29Z</time></trkpt><trkpt lat="45.9877218" lon="11.7415851"><ele>386.0</ele><time>2026-04-04T15:08:39.291Z</time></trkpt><trkpt lat="45.9877624" lon="11.741478"><ele>383.8</ele><time>2026-04-04T15:08:41.291Z</time></trkpt><trkpt lat="45.9878211" lon="11.7413598"><ele>381.6</ele><time>2026-04-04T15:08:43.29Z</time></trkpt><trkpt lat="45.9878553" lon="11.7412512"><ele>379.4</ele><time>2026-04-04T15:08:45.291Z</time></trkpt><trkpt lat="45.9879109" lon="11.7411345"><ele>377.2</ele><time>2026-04-04T15:08:47.292Z</time></trkpt><trkpt lat="45.9879813" lon="11.7410188"><ele>375.0</ele><time>2026-04-04T15:08:49.291Z</time></trkpt><trkpt lat="45.9880388" lon="11.7409254"><ele>375.0</ele><time>2026-04-04T15:08:51.291Z</time></trkpt><trkpt lat="45.9879703" lon="11.7410159"><ele>375.0</ele><time>2026-04-04T15:08:58.29Z</time></trkpt><trkpt lat="45.9879204" lon="11.7411818"><ele>375.0</ele><time>2026-04-04T15:09:00.291Z</time></trkpt><trkpt lat="45.9878818" lon="11.7412812"><ele>375.0</ele><time>2026-04-04T15:09:01.292Z</time></trkpt><trkpt lat="45.9878376" lon="11.7413899"><ele>375.0</ele><time>2026-04-04T15:09:02.29Z</time></trkpt><trkpt lat="45.987794" lon="11.741498"><ele>375.0</ele><time>2026-04-04T15:09:03.291Z</time></trkpt><trkpt lat="45.9877042" lon="11.7416127"><ele>375.0</ele><time>2026-04-04T15:09:05.291Z</time></trkpt><trkpt lat="45.9876035" lon="11.7415761"><ele>375.0</ele><time>2026-04-04T15:09:07.291Z</time></trkpt><trkpt lat="45.9875448" lon="11.7415238"><ele>375.0</ele><time>2026-04-04T15:09:08.291Z</time></trkpt><trkpt lat="45.9874736" lon="11.7414646"><ele>375.0</ele><time>2026-04-04T15:09:09.292Z</time></trkpt><trkpt lat="45.9873998" lon="11.7414103"><ele>370.5</ele><time>2026-04-04T15:09:10.292Z</time></trkpt><trkpt lat="45.9873227" lon="11.7413579"><ele>366.0</ele><time>2026-04-04T15:09:11.292Z</time></trkpt><trkpt lat="45.987252" lon="11.7413135"><ele>361.5</ele><time>2026-04-04T15:09:12.291Z</time></trkpt><trkpt lat="45.9871847" lon="11.7412879"><ele>357.0</ele><time>2026-04-04T15:09:13.291Z</time></trkpt><trkpt lat="45.9871138" lon="11.7412888"><ele>352.5</ele><time>2026-04-04T15:09:14.291Z</time></trkpt><trkpt lat="45.9870437" lon="11.7413106"><ele>348.0</ele><time>2026-04-04T15:09:15.291Z</time></trkpt><trkpt lat="45.9869692" lon="11.7413552"><ele>348.0</ele><time>2026-04-04T15:09:16.292Z</time></trkpt><trkpt lat="45.9868979" lon="11.7414132"><ele>348.0</ele><time>2026-04-04T15:09:17.292Z</time></trkpt><trkpt lat="45.9868106" lon="11.741465"><ele>348.0</ele><time>2026-04-04T15:09:19.291Z</time></trkpt><trkpt lat="45.9867977" lon="11.7413316"><ele>348.0</ele><time>2026-04-04T15:09:23.291Z</time></trkpt><trkpt lat="45.9868196" lon="11.7412344"><ele>348.0</ele><time>2026-04-04T15:09:24.291Z</time></trkpt><trkpt lat="45.9868443" lon="11.7411013"><ele>348.0</ele><time>2026-04-04T15:09:25.292Z</time></trkpt><trkpt lat="45.986864" lon="11.7409655"><ele>346.79999999999995</ele><time>2026-04-04T15:09:26.292Z</time></trkpt><trkpt lat="45.9868731" lon="11.7408132"><ele>345.6</ele><time>2026-04-04T15:09:27.292Z</time></trkpt><trkpt lat="45.9868923" lon="11.7406797"><ele>344.4</ele><time>2026-04-04T15:09:28.291Z</time></trkpt><trkpt lat="45.986935" lon="11.7405705"><ele>343.20000000000005</ele><time>2026-04-04T15:09:29.292Z</time></trkpt><trkpt lat="45.9870054" lon="11.7404859"><ele>342.0</ele><time>2026-04-04T15:09:30.291Z</time></trkpt><trkpt lat="45.9871087" lon="11.7404199"><ele>342.0</ele><time>2026-04-04T15:09:31.291Z</time></trkpt><trkpt lat="45.9872116" lon="11.740333"><ele>342.0</ele><time>2026-04-04T15:09:32.291Z</time></trkpt><trkpt lat="45.9873105" lon="11.7402347"><ele>342.0</ele><time>2026-04-04T15:09:33.292Z</time></trkpt><trkpt lat="45.9873957" lon="11.740131"><ele>342.0</ele><time>2026-04-04T15:09:34.291Z</time></trkpt><trkpt lat="45.9874746" lon="11.7400138"><ele>343.6</ele><time>2026-04-04T15:09:35.292Z</time></trkpt><trkpt lat="45.9875575" lon="11.7398905"><ele>345.20000000000005</ele><time>2026-04-04T15:09:36.291Z</time></trkpt><trkpt lat="45.9876172" lon="11.7397719"><ele>346.8</ele><time>2026-04-04T15:09:37.291Z</time></trkpt><trkpt lat="45.9876588" lon="11.7396526"><ele>348.4</ele><time>2026-04-04T15:09:38.292Z</time></trkpt><trkpt lat="45.9876727" lon="11.7395344"><ele>350.0</ele><time>2026-04-04T15:09:39.291Z</time></trkpt><trkpt lat="45.9876646" lon="11.7393992"><ele>347.25</ele><time>2026-04-04T15:09:40.291Z</time></trkpt><trkpt lat="45.9876528" lon="11.7392458"><ele>344.5</ele><time>2026-04-04T15:09:41.292Z</time></trkpt><trkpt lat="45.9876342" lon="11.7390759"><ele>341.75</ele><time>2026-04-04T15:09:42.292Z</time></trkpt><trkpt lat="45.9876272" lon="11.7389011"><ele>339.0</ele><time>2026-04-04T15:09:43.292Z</time></trkpt><trkpt lat="45.9876399" lon="11.7387273"><ele>338.0</ele><time>2026-04-04T15:09:44.291Z</time></trkpt><trkpt lat="45.9876591" lon="11.7385513"><ele>337.0</ele><time>2026-04-04T15:09:45.292Z</time></trkpt><trkpt lat="45.987677" lon="11.7383756"><ele>336.0</ele><time>2026-04-04T15:09:46.292Z</time></trkpt><trkpt lat="45.9876931" lon="11.7381992"><ele>335.0</ele><time>2026-04-04T15:09:47.291Z</time></trkpt><trkpt lat="45.9877049" lon="11.7380291"><ele>335.0</ele><time>2026-04-04T15:09:48.292Z</time></trkpt><trkpt lat="45.9877144" lon="11.7378506"><ele>335.0</ele><time>2026-04-04T15:09:49.292Z</time></trkpt><trkpt lat="45.9877275" lon="11.7376792"><ele>335.0</ele><time>2026-04-04T15:09:50.291Z</time></trkpt><trkpt lat="45.987748" lon="11.7375114"><ele>335.0</ele><time>2026-04-04T15:09:51.293Z</time></trkpt><trkpt lat="45.9877728" lon="11.7373613"><ele>334.6666666666667</ele><time>2026-04-04T15:09:52.293Z</time></trkpt><trkpt lat="45.987805" lon="11.7372287"><ele>334.33333333333337</ele><time>2026-04-04T15:09:53.291Z</time></trkpt><trkpt lat="45.9878349" lon="11.7371126"><ele>334.0</ele><time>2026-04-04T15:09:54.293Z</time></trkpt><trkpt lat="45.9878652" lon="11.737004"><ele>333.6666666666667</ele><time>2026-04-04T15:09:55.291Z</time></trkpt><trkpt lat="45.987887" lon="11.7369082"><ele>333.3333333333333</ele><time>2026-04-04T15:09:56.292Z</time></trkpt><trkpt lat="45.9879028" lon="11.7368184"><ele>333.0</ele><time>2026-04-04T15:09:57.293Z</time></trkpt><trkpt lat="45.9879341" lon="11.7366632"><ele>334.0</ele><time>2026-04-04T15:09:59.293Z</time></trkpt><trkpt lat="45.9880047" lon="11.7365683"><ele>335.0</ele><time>2026-04-04T15:10:01.293Z</time></trkpt><trkpt lat="45.9880606" lon="11.7365264"><ele>336.0</ele><time>2026-04-04T15:10:02.292Z</time></trkpt><trkpt lat="45.9881257" lon="11.7364918"><ele>337.0</ele><time>2026-04-04T15:10:03.291Z</time></trkpt><trkpt lat="45.988194" lon="11.7364519"><ele>338.0</ele><time>2026-04-04T15:10:04.293Z</time></trkpt><trkpt lat="45.9882607" lon="11.7363831"><ele>339.0</ele><time>2026-04-04T15:10:05.292Z</time></trkpt><trkpt lat="45.9883193" lon="11.7362881"><ele>340.3333333333333</ele><time>2026-04-04T15:10:06.291Z</time></trkpt><trkpt lat="45.988376" lon="11.7361882"><ele>341.6666666666667</ele><time>2026-04-04T15:10:07.293Z</time></trkpt><trkpt lat="45.9884295" lon="11.7361005"><ele>343.0</ele><time>2026-04-04T15:10:08.293Z</time></trkpt><trkpt lat="45.9884754" lon="11.7359971"><ele>344.33333333333337</ele><time>2026-04-04T15:10:09.292Z</time></trkpt><trkpt lat="45.9885177" lon="11.7358829"><ele>345.6666666666667</ele><time>2026-04-04T15:10:10.291Z</time></trkpt><trkpt lat="45.9885611" lon="11.7357674"><ele>347.0</ele><time>2026-04-04T15:10:11.292Z</time></trkpt><trkpt lat="45.9885979" lon="11.7356584"><ele>347.6</ele><time>2026-04-04T15:10:12.292Z</time></trkpt><trkpt lat="45.9886224" lon="11.7355745"><ele>348.20000000000005</ele><time>2026-04-04T15:10:13.292Z</time></trkpt><trkpt lat="45.9885758" lon="11.7355018"><ele>348.8</ele><time>2026-04-04T15:10:19.292Z</time></trkpt><trkpt lat="45.9884782" lon="11.7353922"><ele>349.4</ele><time>2026-04-04T15:10:21.292Z</time></trkpt><trkpt lat="45.9883951" lon="11.7353174"><ele>350.0</ele><time>2026-04-04T15:10:22.292Z</time></trkpt><trkpt lat="45.988299" lon="11.735225"><ele>352.4</ele><time>2026-04-04T15:10:23.292Z</time></trkpt><trkpt lat="45.9882092" lon="11.735129"><ele>354.8</ele><time>2026-04-04T15:10:24.293Z</time></trkpt><trkpt lat="45.9881348" lon="11.7350364"><ele>357.20000000000005</ele><time>2026-04-04T15:10:25.293Z</time></trkpt><trkpt lat="45.9880651" lon="11.7349252"><ele>359.6</ele><time>2026-04-04T15:10:26.293Z</time></trkpt><trkpt lat="45.9880042" lon="11.7348129"><ele>362.0</ele><time>2026-04-04T15:10:27.293Z</time></trkpt><trkpt lat="45.9879506" lon="11.734712"><ele>362.0</ele><time>2026-04-04T15:10:29.292Z</time></trkpt><trkpt lat="45.9878351" lon="11.7347647"><ele>362.0</ele><time>2026-04-04T15:10:38.292Z</time></trkpt><trkpt lat="45.9877645" lon="11.734805"><ele>362.0</ele><time>2026-04-04T15:10:39.292Z</time></trkpt><trkpt lat="45.9876954" lon="11.7348538"><ele>362.0</ele><time>2026-04-04T15:10:40.292Z</time></trkpt><trkpt lat="45.9875937" lon="11.734886"><ele>362.0</ele><time>2026-04-04T15:10:42.292Z</time></trkpt><trkpt lat="45.9875188" lon="11.734853"><ele>360.6666666666667</ele><time>2026-04-04T15:10:44.292Z</time></trkpt><trkpt lat="45.9874886" lon="11.7347705"><ele>359.33333333333337</ele><time>2026-04-04T15:10:46.293Z</time></trkpt><trkpt lat="45.9874632" lon="11.7346585"><ele>358.0</ele><time>2026-04-04T15:10:48.292Z</time></trkpt><trkpt lat="45.9873999" lon="11.7346946"><ele>356.6666666666667</ele><time>2026-04-04T15:10:52.293Z</time></trkpt><trkpt lat="45.9873317" lon="11.7347194"><ele>355.3333333333333</ele><time>2026-04-04T15:10:54.292Z</time></trkpt><trkpt lat="45.9872366" lon="11.7347138"><ele>354.0</ele><time>2026-04-04T15:10:56.293Z</time></trkpt><trkpt lat="45.9871359" lon="11.7347431"><ele>354.0</ele><time>2026-04-04T15:10:58.292Z</time></trkpt><trkpt lat="45.9870555" lon="11.734771"><ele>354.0</ele><time>2026-04-04T15:10:59.292Z</time></trkpt><trkpt lat="45.986974" lon="11.7348017"><ele>354.0</ele><time>2026-04-04T15:11:00.293Z</time></trkpt><trkpt lat="45.9869059" lon="11.734831"><ele>354.0</ele><time>2026-04-04T15:11:01.294Z</time></trkpt><trkpt lat="45.9867863" lon="11.7349114"><ele>354.0</ele><time>2026-04-04T15:11:03.294Z</time></trkpt><trkpt lat="45.9867233" lon="11.7349485"><ele>354.0</ele><time>2026-04-04T15:11:04.292Z</time></trkpt><trkpt lat="45.9866083" lon="11.735003"><ele>354.0</ele><time>2026-04-04T15:11:06.293Z</time></trkpt><trkpt lat="45.9865386" lon="11.7350023"><ele>354.0</ele><time>2026-04-04T15:11:09.293Z</time></trkpt><trkpt lat="45.9866153" lon="11.7350114"><ele>354.0</ele><time>2026-04-04T15:11:18.294Z</time></trkpt><trkpt lat="45.9867301" lon="11.7349461"><ele>354.0</ele><time>2026-04-04T15:11:20.294Z</time></trkpt><trkpt lat="45.9868361" lon="11.7348934"><ele>354.0</ele><time>2026-04-04T15:11:22.293Z</time></trkpt><trkpt lat="45.9868965" lon="11.7348628"><ele>354.0</ele><time>2026-04-04T15:11:24.293Z</time></trkpt><trkpt lat="45.9869054" lon="11.7347698"><ele>354.0</ele><time>2026-04-04T15:11:29.293Z</time></trkpt><trkpt lat="45.9868269" lon="11.7347228"><ele>354.0</ele><time>2026-04-04T15:11:31.294Z</time></trkpt><trkpt lat="45.9867614" lon="11.7346913"><ele>354.0</ele><time>2026-04-04T15:11:32.293Z</time></trkpt><trkpt lat="45.986689" lon="11.7346555"><ele>354.0</ele><time>2026-04-04T15:11:33.293Z</time></trkpt><trkpt lat="45.9866252" lon="11.7346142"><ele>354.0</ele><time>2026-04-04T15:11:34.293Z</time></trkpt><trkpt lat="45.9865467" lon="11.7345222"><ele>354.0</ele><time>2026-04-04T15:11:36.293Z</time></trkpt><trkpt lat="45.9865392" lon="11.7344191"><ele>355.79999999999995</ele><time>2026-04-04T15:11:38.293Z</time></trkpt><trkpt lat="45.9865243" lon="11.7342768"><ele>357.59999999999997</ele><time>2026-04-04T15:11:40.294Z</time></trkpt><trkpt lat="45.9864532" lon="11.7341935"><ele>359.4</ele><time>2026-04-04T15:11:42.294Z</time></trkpt><trkpt lat="45.9863612" lon="11.7341018"><ele>361.2</ele><time>2026-04-04T15:11:44.293Z</time></trkpt><trkpt lat="45.9862737" lon="11.7340666"><ele>363.0</ele><time>2026-04-04T15:11:46.294Z</time></trkpt><trkpt lat="45.9861902" lon="11.7340752"><ele>363.0</ele><time>2026-04-04T15:11:48.293Z</time></trkpt><trkpt lat="45.9860801" lon="11.7340774"><ele>363.0</ele><time>2026-04-04T15:11:50.295Z</time></trkpt><trkpt lat="45.9860217" lon="11.7341238"><ele>363.0</ele><time>2026-04-04T15:12:01.293Z</time></trkpt><trkpt lat="45.9860058" lon="11.7342361"><ele>363.0</ele><time>2026-04-04T15:12:03.294Z</time></trkpt><trkpt lat="45.9859886" lon="11.7343522"><ele>363.0</ele><time>2026-04-04T15:12:06.294Z</time></trkpt><trkpt lat="45.9859775" lon="11.7344426"><ele>363.0</ele><time>2026-04-04T15:12:08.293Z</time></trkpt><trkpt lat="45.9860014" lon="11.7345391"><ele>362.99999999999994</ele><time>2026-04-04T15:12:21.294Z</time></trkpt><trkpt lat="45.9860064" lon="11.7344432"><ele>363.0</ele><time>2026-04-04T15:12:27.294Z</time></trkpt><trkpt lat="45.9859756" lon="11.7343295"><ele>363.0</ele><time>2026-04-04T15:12:30.294Z</time></trkpt><trkpt lat="45.9860033" lon="11.7342276"><ele>363.0</ele><time>2026-04-04T15:12:33.294Z</time></trkpt><trkpt lat="45.9860301" lon="11.734145"><ele>363.0</ele><time>2026-04-04T15:12:35.295Z</time></trkpt><trkpt lat="45.9859855" lon="11.7340623"><ele>362.99999999999994</ele><time>2026-04-04T15:12:56.294Z</time></trkpt><trkpt lat="45.9859307" lon="11.7340107"><ele>363.0</ele><time>2026-04-04T15:12:58.294Z</time></trkpt><trkpt lat="45.9858625" lon="11.7340734"><ele>369.5</ele><time>2026-04-04T15:13:02.295Z</time></trkpt><trkpt lat="45.9858228" lon="11.7341805"><ele>376.0</ele><time>2026-04-04T15:13:04.296Z</time></trkpt><trkpt lat="45.9857695" lon="11.7343032"><ele>382.5</ele><time>2026-04-04T15:13:06.295Z</time></trkpt><trkpt lat="45.9857459" lon="11.7344181"><ele>389.0</ele><time>2026-04-04T15:13:08.294Z</time></trkpt><trkpt lat="45.9857347" lon="11.7345092"><ele>395.5</ele><time>2026-04-04T15:13:10.296Z</time></trkpt><trkpt lat="45.9857014" lon="11.7345935"><ele>402.0</ele><time>2026-04-04T15:13:14.294Z</time></trkpt><trkpt lat="45.9856752" lon="11.734715"><ele>402.0</ele><time>2026-04-04T15:13:18.294Z</time></trkpt><trkpt lat="45.9856326" lon="11.7347935"><ele>402.0</ele><time>2026-04-04T15:13:22.296Z</time></trkpt><trkpt lat="45.9856165" lon="11.7349015"><ele>402.0</ele><time>2026-04-04T15:13:30.295Z</time></trkpt><trkpt lat="45.9855761" lon="11.7349851"><ele>402.0</ele><time>2026-04-04T15:13:34.296Z</time></trkpt><trkpt lat="45.9855165" lon="11.7350863"><ele>402.0</ele><time>2026-04-04T15:13:37.296Z</time></trkpt><trkpt lat="45.9854278" lon="11.7349876"><ele>402.0</ele><time>2026-04-04T15:14:25.297Z</time></trkpt><trkpt lat="45.9853546" lon="11.7350164"><ele>402.0</ele><time>2026-04-04T15:15:07.297Z</time></trkpt><trkpt lat="45.9852701" lon="11.7351046"><ele>402.0</ele><time>2026-04-04T15:15:10.297Z</time></trkpt><trkpt lat="45.9851919" lon="11.735156"><ele>402.0</ele><time>2026-04-04T15:15:12.296Z</time></trkpt><trkpt lat="45.9851297" lon="11.7351847"><ele>402.0</ele><time>2026-04-04T15:15:14.296Z</time></trkpt><trkpt lat="45.9850255" lon="11.7352304"><ele>402.0</ele><time>2026-04-04T15:15:17.297Z</time></trkpt><trkpt lat="45.9849537" lon="11.7353381"><ele>411.40000000000003</ele><time>2026-04-04T15:15:19.297Z</time></trkpt><trkpt lat="45.9848898" lon="11.7354099"><ele>420.8</ele><time>2026-04-04T15:15:21.297Z</time></trkpt><trkpt lat="45.9848315" lon="11.735486"><ele>430.2</ele><time>2026-04-04T15:15:31.297Z</time></trkpt><trkpt lat="45.9847561" lon="11.7355129"><ele>439.6</ele><time>2026-04-04T15:15:33.298Z</time></trkpt><trkpt lat="45.9846605" lon="11.7355741"><ele>449.0</ele><time>2026-04-04T15:15:35.298Z</time></trkpt><trkpt lat="45.9845594" lon="11.7356712"><ele>449.0</ele><time>2026-04-04T15:15:37.298Z</time></trkpt><trkpt lat="45.984497" lon="11.735735"><ele>448.99999999999994</ele><time>2026-04-04T15:15:39.297Z</time></trkpt><trkpt lat="45.9844311" lon="11.7357535"><ele>449.0</ele><time>2026-04-04T15:15:41.297Z</time></trkpt><trkpt lat="45.9843637" lon="11.7357714"><ele>449.0</ele><time>2026-04-04T15:15:43.297Z</time></trkpt><trkpt lat="45.984295" lon="11.7357745"><ele>448.99999999999994</ele><time>2026-04-04T15:15:45.297Z</time></trkpt><trkpt lat="45.9842327" lon="11.7357472"><ele>449.0</ele><time>2026-04-04T15:15:47.297Z</time></trkpt><trkpt lat="45.9841585" lon="11.7357008"><ele>449.0</ele><time>2026-04-04T15:15:49.298Z</time></trkpt><trkpt lat="45.9840784" lon="11.7356703"><ele>452.66666666666663</ele><time>2026-04-04T15:15:51.297Z</time></trkpt><trkpt lat="45.9839925" lon="11.7356418"><ele>456.3333333333333</ele><time>2026-04-04T15:15:53.297Z</time></trkpt><trkpt lat="45.9838918" lon="11.7356461"><ele>460.0</ele><time>2026-04-04T15:15:55.298Z</time></trkpt><trkpt lat="45.9837745" lon="11.7356473"><ele>463.66666666666663</ele><time>2026-04-04T15:15:57.298Z</time></trkpt><trkpt lat="45.9837132" lon="11.7356255"><ele>467.3333333333333</ele><time>2026-04-04T15:15:59.297Z</time></trkpt><trkpt lat="45.983651" lon="11.7355779"><ele>471.0</ele><time>2026-04-04T15:16:07.298Z</time></trkpt><trkpt lat="45.983618" lon="11.7356805"><ele>471.0</ele><time>2026-04-04T15:16:11.297Z</time></trkpt><trkpt lat="45.9835779" lon="11.7357671"><ele>471.0</ele><time>2026-04-04T15:16:13.299Z</time></trkpt><trkpt lat="45.9835377" lon="11.7358575"><ele>471.0</ele><time>2026-04-04T15:16:15.298Z</time></trkpt><trkpt lat="45.9834833" lon="11.73594"><ele>471.0</ele><time>2026-04-04T15:16:18.299Z</time></trkpt><trkpt lat="45.9835588" lon="11.7358597"><ele>471.0</ele><time>2026-04-04T15:17:05.299Z</time></trkpt><trkpt lat="45.9836369" lon="11.7357109"><ele>471.0</ele><time>2026-04-04T15:17:07.3Z</time></trkpt><trkpt lat="45.9836859" lon="11.7356209"><ele>471.0</ele><time>2026-04-04T15:17:08.299Z</time></trkpt><trkpt lat="45.9838104" lon="11.7355291"><ele>471.0</ele><time>2026-04-04T15:17:10.3Z</time></trkpt><trkpt lat="45.9838788" lon="11.7354798"><ele>471.0</ele><time>2026-04-04T15:17:11.299Z</time></trkpt><trkpt lat="45.9839441" lon="11.7354174"><ele>471.0</ele><time>2026-04-04T15:17:12.298Z</time></trkpt><trkpt lat="45.9840052" lon="11.7353182"><ele>471.0</ele><time>2026-04-04T15:17:13.299Z</time></trkpt><trkpt lat="45.9840551" lon="11.7352328"><ele>468.8333333333333</ele><time>2026-04-04T15:17:14.298Z</time></trkpt><trkpt lat="45.9840997" lon="11.7351468"><ele>466.66666666666663</ele><time>2026-04-04T15:17:15.299Z</time></trkpt><trkpt lat="45.9841463" lon="11.7350592"><ele>464.5</ele><time>2026-04-04T15:17:16.298Z</time></trkpt><trkpt lat="45.9841899" lon="11.7349745"><ele>462.3333333333333</ele><time>2026-04-04T15:17:17.299Z</time></trkpt><trkpt lat="45.9842285" lon="11.7349"><ele>460.16666666666663</ele><time>2026-04-04T15:17:18.3Z</time></trkpt><trkpt lat="45.984294" lon="11.7347646"><ele>458.0</ele><time>2026-04-04T15:17:20.299Z</time></trkpt><trkpt lat="45.9843297" lon="11.7346246"><ele>458.0</ele><time>2026-04-04T15:17:22.299Z</time></trkpt><trkpt lat="45.9843071" lon="11.7344858"><ele>457.99999999999994</ele><time>2026-04-04T15:17:24.299Z</time></trkpt><trkpt lat="45.9842431" lon="11.7343788"><ele>457.99999999999994</ele><time>2026-04-04T15:17:26.298Z</time></trkpt><trkpt lat="45.9841957" lon="11.7342895"><ele>458.0</ele><time>2026-04-04T15:17:28.298Z</time></trkpt><trkpt lat="45.9841884" lon="11.7341395"><ele>458.0</ele><time>2026-04-04T15:17:30.299Z</time></trkpt><trkpt lat="45.9841754" lon="11.7340312"><ele>464.49999999999994</ele><time>2026-04-04T15:17:31.3Z</time></trkpt><trkpt lat="45.9841644" lon="11.7339124"><ele>471.0</ele><time>2026-04-04T15:17:32.3Z</time></trkpt><trkpt lat="45.9841424" lon="11.733801"><ele>477.5</ele><time>2026-04-04T15:17:33.299Z</time></trkpt><trkpt lat="45.9841272" lon="11.7337022"><ele>484.0</ele><time>2026-04-04T15:17:34.299Z</time></trkpt><trkpt lat="45.9841139" lon="11.7335948"><ele>490.49999999999994</ele><time>2026-04-04T15:17:35.299Z</time></trkpt><trkpt lat="45.9840968" lon="11.7334882"><ele>497.0</ele><time>2026-04-04T15:17:36.299Z</time></trkpt><trkpt lat="45.9840854" lon="11.7333724"><ele>498.16666666666663</ele><time>2026-04-04T15:17:37.299Z</time></trkpt><trkpt lat="45.9840797" lon="11.7332748"><ele>499.3333333333333</ele><time>2026-04-04T15:17:38.3Z</time></trkpt><trkpt lat="45.9840942" lon="11.733105"><ele>500.5</ele><time>2026-04-04T15:17:40.3Z</time></trkpt><trkpt lat="45.9841093" lon="11.7329399"><ele>501.66666666666663</ele><time>2026-04-04T15:17:42.299Z</time></trkpt><trkpt lat="45.9841044" lon="11.7328397"><ele>502.8333333333333</ele><time>2026-04-04T15:17:43.3Z</time></trkpt><trkpt lat="45.9840939" lon="11.7327393"><ele>504.0</ele><time>2026-04-04T15:17:44.299Z</time></trkpt><trkpt lat="45.9840841" lon="11.7325879"><ele>504.0</ele><time>2026-04-04T15:17:45.299Z</time></trkpt><trkpt lat="45.984085" lon="11.7324701"><ele>504.0</ele><time>2026-04-04T15:17:46.3Z</time></trkpt><trkpt lat="45.9840857" lon="11.7323214"><ele>504.0</ele><time>2026-04-04T15:17:48.299Z</time></trkpt><trkpt lat="45.9840375" lon="11.7322509"><ele>504.0</ele><time>2026-04-04T15:17:50.3Z</time></trkpt><trkpt lat="45.9839459" lon="11.7321865"><ele>504.0</ele><time>2026-04-04T15:17:52.3Z</time></trkpt><trkpt lat="45.9838461" lon="11.732118"><ele>504.0</ele><time>2026-04-04T15:17:54.299Z</time></trkpt><trkpt lat="45.9838013" lon="11.7320487"><ele>504.0</ele><time>2026-04-04T15:17:55.299Z</time></trkpt><trkpt lat="45.9837581" lon="11.7319734"><ele>504.0</ele><time>2026-04-04T15:17:56.299Z</time></trkpt><trkpt lat="45.9837111" lon="11.7318966"><ele>504.0</ele><time>2026-04-04T15:17:57.299Z</time></trkpt><trkpt lat="45.9836657" lon="11.731821"><ele>504.0</ele><time>2026-04-04T15:17:58.299Z</time></trkpt><trkpt lat="45.9836175" lon="11.7317464"><ele>504.0</ele><time>2026-04-04T15:17:59.301Z</time></trkpt><trkpt lat="45.9835661" lon="11.7316648"><ele>504.0</ele><time>2026-04-04T15:18:00.3Z</time></trkpt><trkpt lat="45.9835128" lon="11.731576"><ele>502.2</ele><time>2026-04-04T15:18:01.299Z</time></trkpt><trkpt lat="45.9834503" lon="11.7314855"><ele>500.4</ele><time>2026-04-04T15:18:02.301Z</time></trkpt><trkpt lat="45.9833843" lon="11.7314044"><ele>498.6</ele><time>2026-04-04T15:18:03.3Z</time></trkpt><trkpt lat="45.9833209" lon="11.7313327"><ele>496.8</ele><time>2026-04-04T15:18:05.301Z</time></trkpt><trkpt lat="45.9832761" lon="11.7312483"><ele>495.0</ele><time>2026-04-04T15:18:12.299Z</time></trkpt><trkpt lat="45.9831968" lon="11.7311148"><ele>498.0</ele><time>2026-04-04T15:18:14.299Z</time></trkpt><trkpt lat="45.9831209" lon="11.7309812"><ele>501.0</ele><time>2026-04-04T15:18:16.3Z</time></trkpt><trkpt lat="45.9830927" lon="11.730834"><ele>504.0</ele><time>2026-04-04T15:18:18.299Z</time></trkpt><trkpt lat="45.9830552" lon="11.7306829"><ele>507.0</ele><time>2026-04-04T15:18:20.301Z</time></trkpt><trkpt lat="45.9830224" lon="11.7306045"><ele>510.0</ele><time>2026-04-04T15:18:21.3Z</time></trkpt><trkpt lat="45.9829682" lon="11.7305174"><ele>510.0</ele><time>2026-04-04T15:18:22.3Z</time></trkpt><trkpt lat="45.9829156" lon="11.7304407"><ele>510.0</ele><time>2026-04-04T15:18:23.301Z</time></trkpt><trkpt lat="45.9828575" lon="11.7303799"><ele>510.0</ele><time>2026-04-04T15:18:24.3Z</time></trkpt><trkpt lat="45.9828053" lon="11.7303245"><ele>510.0</ele><time>2026-04-04T15:18:25.301Z</time></trkpt><trkpt lat="45.9827392" lon="11.730265"><ele>510.0</ele><time>2026-04-04T15:18:27.3Z</time></trkpt><trkpt lat="45.9826803" lon="11.7301866"><ele>510.0</ele><time>2026-04-04T15:18:31.299Z</time></trkpt><trkpt lat="45.9826098" lon="11.7300936"><ele>507.5</ele><time>2026-04-04T15:18:33.3Z</time></trkpt><trkpt lat="45.982555" lon="11.7300471"><ele>505.0</ele><time>2026-04-04T15:18:34.3Z</time></trkpt><trkpt lat="45.9824898" lon="11.7299984"><ele>502.5</ele><time>2026-04-04T15:18:35.301Z</time></trkpt><trkpt lat="45.982428" lon="11.7299546"><ele>500.0</ele><time>2026-04-04T15:18:36.3Z</time></trkpt><trkpt lat="45.9823218" lon="11.7298606"><ele>497.5</ele><time>2026-04-04T15:18:38.301Z</time></trkpt><trkpt lat="45.9822625" lon="11.7298087"><ele>495.0</ele><time>2026-04-04T15:18:39.302Z</time></trkpt><trkpt lat="45.9822018" lon="11.7297562"><ele>499.0</ele><time>2026-04-04T15:18:40.3Z</time></trkpt><trkpt lat="45.9821191" lon="11.7296847"><ele>503.0</ele><time>2026-04-04T15:18:42.3Z</time></trkpt><trkpt lat="45.9820603" lon="11.729631"><ele>507.0</ele><time>2026-04-04T15:18:44.301Z</time></trkpt><trkpt lat="45.9820333" lon="11.7295409"><ele>511.0</ele><time>2026-04-04T15:18:48.301Z</time></trkpt><trkpt lat="45.981965" lon="11.7295212"><ele>515.0</ele><time>2026-04-04T15:18:51.301Z</time></trkpt><trkpt lat="45.9818721" lon="11.7294948"><ele>519.0</ele><time>2026-04-04T15:18:53.3Z</time></trkpt><trkpt lat="45.981763" lon="11.7293538"><ele>524.4</ele><time>2026-04-04T15:18:55.301Z</time></trkpt><trkpt lat="45.9816581" lon="11.7292858"><ele>529.8</ele><time>2026-04-04T15:18:57.3Z</time></trkpt><trkpt lat="45.981558" lon="11.729304"><ele>535.2</ele><time>2026-04-04T15:18:59.301Z</time></trkpt><trkpt lat="45.9814692" lon="11.7292759"><ele>540.6</ele><time>2026-04-04T15:19:01.301Z</time></trkpt><trkpt lat="45.9814084" lon="11.7291997"><ele>546.0</ele><time>2026-04-04T15:19:03.3Z</time></trkpt><trkpt lat="45.9813133" lon="11.7291294"><ele>546.0</ele><time>2026-04-04T15:19:05.301Z</time></trkpt><trkpt lat="45.9812536" lon="11.7290836"><ele>546.0</ele><time>2026-04-04T15:19:06.3Z</time></trkpt><trkpt lat="45.9811858" lon="11.729026"><ele>546.0</ele><time>2026-04-04T15:19:07.301Z</time></trkpt><trkpt lat="45.9811112" lon="11.7289704"><ele>546.0</ele><time>2026-04-04T15:19:08.301Z</time></trkpt><trkpt lat="45.9810339" lon="11.7289186"><ele>546.0</ele><time>2026-04-04T15:19:09.301Z</time></trkpt><trkpt lat="45.9809704" lon="11.72887"><ele>546.0</ele><time>2026-04-04T15:19:10.3Z</time></trkpt><trkpt lat="45.980921" lon="11.7288061"><ele>546.0</ele><time>2026-04-04T15:19:12.3Z</time></trkpt><trkpt lat="45.9808548" lon="11.7287572"><ele>546.0</ele><time>2026-04-04T15:19:31.302Z</time></trkpt><trkpt lat="45.9807783" lon="11.7287516"><ele>546.0</ele><time>2026-04-04T15:19:33.3Z</time></trkpt><trkpt lat="45.9806829" lon="11.7287251"><ele>546.0</ele><time>2026-04-04T15:19:37.301Z</time></trkpt><trkpt lat="45.9806084" lon="11.7286391"><ele>546.0</ele><time>2026-04-04T15:19:40.302Z</time></trkpt><trkpt lat="45.9805448" lon="11.7286332"><ele>546.0</ele><time>2026-04-04T15:19:43.301Z</time></trkpt><trkpt lat="45.9804554" lon="11.7285919"><ele>546.6666666666666</ele><time>2026-04-04T15:19:46.301Z</time></trkpt><trkpt lat="45.9803692" lon="11.7285361"><ele>547.3333333333334</ele><time>2026-04-04T15:19:48.302Z</time></trkpt><trkpt lat="45.9803103" lon="11.728477"><ele>548.0</ele><time>2026-04-04T15:19:50.301Z</time></trkpt><trkpt lat="45.9802344" lon="11.7284633"><ele>548.6666666666667</ele><time>2026-04-04T15:19:57.301Z</time></trkpt><trkpt lat="45.9801436" lon="11.7284678"><ele>549.3333333333334</ele><time>2026-04-04T15:20:00.301Z</time></trkpt><trkpt lat="45.9800798" lon="11.7284811"><ele>550.0</ele><time>2026-04-04T15:20:02.301Z</time></trkpt><trkpt lat="45.980023" lon="11.7284379"><ele>550.0</ele><time>2026-04-04T15:20:06.301Z</time></trkpt><trkpt lat="45.9800429" lon="11.7283514"><ele>550.0</ele><time>2026-04-04T15:21:25.303Z</time></trkpt><trkpt lat="45.980012" lon="11.7284379"><ele>550.0</ele><time>2026-04-04T15:21:58.303Z</time></trkpt><trkpt lat="45.9800744" lon="11.7285022"><ele>550.0</ele><time>2026-04-04T15:22:21.303Z</time></trkpt><trkpt lat="45.9801634" lon="11.7284815"><ele>550.0</ele><time>2026-04-04T15:22:24.303Z</time></trkpt><trkpt lat="45.9802475" lon="11.7284669"><ele>550.0</ele><time>2026-04-04T15:22:27.305Z</time></trkpt><trkpt lat="45.9803131" lon="11.7284478"><ele>550.0</ele><time>2026-04-04T15:22:33.303Z</time></trkpt><trkpt lat="45.9802849" lon="11.7283558"><ele>550.0</ele><time>2026-04-04T15:22:49.305Z</time></trkpt><trkpt lat="45.9802042" lon="11.7283094"><ele>550.0</ele><time>2026-04-04T15:22:51.305Z</time></trkpt><trkpt lat="45.9801294" lon="11.7282904"><ele>550.0</ele><time>2026-04-04T15:22:53.304Z</time></trkpt><trkpt lat="45.9800454" lon="11.7282999"><ele>550.0</ele><time>2026-04-04T15:22:57.305Z</time></trkpt><trkpt lat="45.9799694" lon="11.728294"><ele>550.0</ele><time>2026-04-04T15:23:00.304Z</time></trkpt><trkpt lat="45.9798904" lon="11.7283212"><ele>550.0</ele><time>2026-04-04T15:23:03.305Z</time></trkpt><trkpt lat="45.9797958" lon="11.7282866"><ele>553.6666666666667</ele><time>2026-04-04T15:23:06.304Z</time></trkpt><trkpt lat="45.9797208" lon="11.7282321"><ele>557.3333333333334</ele><time>2026-04-04T15:23:08.305Z</time></trkpt><trkpt lat="45.9796463" lon="11.7281878"><ele>561.0</ele><time>2026-04-04T15:23:10.305Z</time></trkpt><trkpt lat="45.9795711" lon="11.7281538"><ele>564.6666666666666</ele><time>2026-04-04T15:23:12.304Z</time></trkpt><trkpt lat="45.9794865" lon="11.7281078"><ele>568.3333333333333</ele><time>2026-04-04T15:23:14.305Z</time></trkpt><trkpt lat="45.979406" lon="11.7280456"><ele>572.0</ele><time>2026-04-04T15:23:16.305Z</time></trkpt><trkpt lat="45.9793127" lon="11.7279999"><ele>572.0</ele><time>2026-04-04T15:23:18.304Z</time></trkpt><trkpt lat="45.9792174" lon="11.7279632"><ele>572.0</ele><time>2026-04-04T15:23:20.304Z</time></trkpt><trkpt lat="45.9791268" lon="11.7279343"><ele>572.0</ele><time>2026-04-04T15:23:22.305Z</time></trkpt><trkpt lat="45.9790223" lon="11.7279045"><ele>572.0</ele><time>2026-04-04T15:23:24.304Z</time></trkpt><trkpt lat="45.9789011" lon="11.7278804"><ele>572.0</ele><time>2026-04-04T15:23:26.306Z</time></trkpt><trkpt lat="45.9788367" lon="11.7278707"><ele>573.7142857142857</ele><time>2026-04-04T15:23:27.305Z</time></trkpt><trkpt lat="45.9787729" lon="11.7278613"><ele>575.4285714285714</ele><time>2026-04-04T15:23:28.306Z</time></trkpt><trkpt lat="45.9787098" lon="11.7278477"><ele>577.1428571428571</ele><time>2026-04-04T15:23:29.305Z</time></trkpt><trkpt lat="45.9786446" lon="11.7278308"><ele>578.8571428571429</ele><time>2026-04-04T15:23:30.306Z</time></trkpt><trkpt lat="45.978579" lon="11.7278118"><ele>580.5714285714286</ele><time>2026-04-04T15:23:31.305Z</time></trkpt><trkpt lat="45.9785134" lon="11.7277899"><ele>582.2857142857142</ele><time>2026-04-04T15:23:32.306Z</time></trkpt><trkpt lat="45.9784461" lon="11.727766"><ele>584.0</ele><time>2026-04-04T15:23:33.306Z</time></trkpt><trkpt lat="45.9783785" lon="11.7277422"><ele>584.0</ele><time>2026-04-04T15:23:34.306Z</time></trkpt><trkpt lat="45.9783115" lon="11.7277187"><ele>584.0</ele><time>2026-04-04T15:23:35.306Z</time></trkpt><trkpt lat="45.978245" lon="11.7276979"><ele>584.0</ele><time>2026-04-04T15:23:36.305Z</time></trkpt><trkpt lat="45.9781791" lon="11.727676"><ele>584.0</ele><time>2026-04-04T15:23:37.306Z</time></trkpt><trkpt lat="45.9780882" lon="11.7276327"><ele>584.0</ele><time>2026-04-04T15:23:39.305Z</time></trkpt><trkpt lat="45.9780224" lon="11.7276086"><ele>584.0</ele><time>2026-04-04T15:23:47.305Z</time></trkpt><trkpt lat="45.9779468" lon="11.7275966"><ele>584.0</ele><time>2026-04-04T15:23:49.305Z</time></trkpt><trkpt lat="45.9778576" lon="11.7275792"><ele>584.0</ele><time>2026-04-04T15:23:51.305Z</time></trkpt><trkpt lat="45.9777921" lon="11.7275833"><ele>584.0</ele><time>2026-04-04T15:23:56.305Z</time></trkpt><trkpt lat="45.9777276" lon="11.727644"><ele>584.0</ele><time>2026-04-04T15:24:01.306Z</time></trkpt><trkpt lat="45.9776551" lon="11.7276374"><ele>584.0</ele><time>2026-04-04T15:24:03.305Z</time></trkpt><trkpt lat="45.9775836" lon="11.7276484"><ele>584.0</ele><time>2026-04-04T15:24:06.305Z</time></trkpt><trkpt lat="45.9775205" lon="11.7276262"><ele>584.0</ele><time>2026-04-04T15:24:08.305Z</time></trkpt><trkpt lat="45.9774222" lon="11.7275934"><ele>586.0</ele><time>2026-04-04T15:24:13.306Z</time></trkpt><trkpt lat="45.9773547" lon="11.7275843"><ele>588.0</ele><time>2026-04-04T15:24:15.305Z</time></trkpt><trkpt lat="45.9772829" lon="11.727554"><ele>590.0</ele><time>2026-04-04T15:24:16.306Z</time></trkpt><trkpt lat="45.9772057" lon="11.7275311"><ele>592.0</ele><time>2026-04-04T15:24:17.306Z</time></trkpt><trkpt lat="45.9771416" lon="11.7275203"><ele>594.0</ele><time>2026-04-04T15:24:18.305Z</time></trkpt><trkpt lat="45.9770533" lon="11.7274934"><ele>596.0</ele><time>2026-04-04T15:24:20.305Z</time></trkpt><trkpt lat="45.9769908" lon="11.7274574"><ele>598.0</ele><time>2026-04-04T15:24:22.305Z</time></trkpt><trkpt lat="45.9769432" lon="11.7273968"><ele>598.0</ele><time>2026-04-04T15:24:26.306Z</time></trkpt><trkpt lat="45.9768767" lon="11.7274114"><ele>598.0</ele><time>2026-04-04T15:24:30.306Z</time></trkpt><trkpt lat="45.9768131" lon="11.7274589"><ele>598.0</ele><time>2026-04-04T15:24:33.306Z</time></trkpt><trkpt lat="45.9767581" lon="11.7275188"><ele>598.0</ele><time>2026-04-04T15:24:35.305Z</time></trkpt><trkpt lat="45.9766883" lon="11.7275416"><ele>598.0</ele><time>2026-04-04T15:24:37.306Z</time></trkpt><trkpt lat="45.9766064" lon="11.727553"><ele>598.0</ele><time>2026-04-04T15:24:39.305Z</time></trkpt><trkpt lat="45.9765265" lon="11.7275389"><ele>598.0</ele><time>2026-04-04T15:24:41.306Z</time></trkpt><trkpt lat="45.9764601" lon="11.7275455"><ele>599.1666666666667</ele><time>2026-04-04T15:24:44.305Z</time></trkpt><trkpt lat="45.976387" lon="11.7275624"><ele>600.3333333333334</ele><time>2026-04-04T15:24:47.306Z</time></trkpt><trkpt lat="45.9763244" lon="11.7275469"><ele>601.5</ele><time>2026-04-04T15:24:49.306Z</time></trkpt><trkpt lat="45.976256" lon="11.7275233"><ele>602.6666666666666</ele><time>2026-04-04T15:24:51.306Z</time></trkpt><trkpt lat="45.9761666" lon="11.7274837"><ele>603.8333333333333</ele><time>2026-04-04T15:24:53.307Z</time></trkpt><trkpt lat="45.976084" lon="11.7274492"><ele>605.0</ele><time>2026-04-04T15:24:55.306Z</time></trkpt><trkpt lat="45.9760198" lon="11.7274288"><ele>605.0</ele><time>2026-04-04T15:24:57.307Z</time></trkpt><trkpt lat="45.9759481" lon="11.7274178"><ele>605.0</ele><time>2026-04-04T15:25:00.306Z</time></trkpt><trkpt lat="45.9758747" lon="11.7274043"><ele>605.0</ele><time>2026-04-04T15:25:03.306Z</time></trkpt><trkpt lat="45.9759625" lon="11.7274145"><ele>605.0</ele><time>2026-04-04T15:25:10.307Z</time></trkpt><trkpt lat="45.9760293" lon="11.7274385"><ele>605.0</ele><time>2026-04-04T15:25:17.306Z</time></trkpt><trkpt lat="45.9760702" lon="11.7275091"><ele>605.0</ele><time>2026-04-04T15:25:19.306Z</time></trkpt><trkpt lat="45.9761192" lon="11.7276166"><ele>605.0</ele><time>2026-04-04T15:25:21.306Z</time></trkpt><trkpt lat="45.9761672" lon="11.7277055"><ele>605.0</ele><time>2026-04-04T15:25:23.307Z</time></trkpt><trkpt lat="45.9762082" lon="11.727796"><ele>605.0</ele><time>2026-04-04T15:25:26.307Z</time></trkpt><trkpt lat="45.9762622" lon="11.7278651"><ele>605.0</ele><time>2026-04-04T15:26:07.307Z</time></trkpt><trkpt lat="45.9762947" lon="11.7279852"><ele>605.0</ele><time>2026-04-04T15:26:37.309Z</time></trkpt><trkpt lat="45.9763075" lon="11.7280879"><ele>605.0</ele><time>2026-04-04T15:27:01.308Z</time></trkpt><trkpt lat="45.9762606" lon="11.7281851"><ele>608.1428571428571</ele><time>2026-04-04T15:27:04.309Z</time></trkpt><trkpt lat="45.9762356" lon="11.7282869"><ele>611.2857142857143</ele><time>2026-04-04T15:27:07.308Z</time></trkpt><trkpt lat="45.9762293" lon="11.7283838"><ele>614.4285714285714</ele><time>2026-04-04T15:27:09.309Z</time></trkpt><trkpt lat="45.9762393" lon="11.7284757"><ele>617.5714285714286</ele><time>2026-04-04T15:27:11.308Z</time></trkpt><trkpt lat="45.9762993" lon="11.7285414"><ele>620.7142857142857</ele><time>2026-04-04T15:27:13.308Z</time></trkpt><trkpt lat="45.9763667" lon="11.7285648"><ele>623.8571428571429</ele><time>2026-04-04T15:27:16.309Z</time></trkpt><trkpt lat="45.9764439" lon="11.7286193"><ele>627.0</ele><time>2026-04-04T15:27:20.309Z</time></trkpt><trkpt lat="45.9765034" lon="11.728674"><ele>629.2</ele><time>2026-04-04T15:27:22.308Z</time></trkpt><trkpt lat="45.9765811" lon="11.7286872"><ele>631.4000000000001</ele><time>2026-04-04T15:27:25.308Z</time></trkpt><trkpt lat="45.9766534" lon="11.7287162"><ele>633.5999999999999</ele><time>2026-04-04T15:27:28.308Z</time></trkpt><trkpt lat="45.9767405" lon="11.7286844"><ele>635.8</ele><time>2026-04-04T15:27:30.309Z</time></trkpt><trkpt lat="45.9768497" lon="11.7286689"><ele>638.0</ele><time>2026-04-04T15:27:32.308Z</time></trkpt><trkpt lat="45.9769549" lon="11.7286564"><ele>638.0</ele><time>2026-04-04T15:27:34.31Z</time></trkpt><trkpt lat="45.9769721" lon="11.7287572"><ele>638.0</ele><time>2026-04-04T15:27:39.308Z</time></trkpt><trkpt lat="45.976922" lon="11.7288133"><ele>638.0</ele><time>2026-04-04T15:27:41.309Z</time></trkpt><trkpt lat="45.9768461" lon="11.7288702"><ele>638.0</ele><time>2026-04-04T15:27:43.31Z</time></trkpt><trkpt lat="45.976794" lon="11.7289565"><ele>638.0</ele><time>2026-04-04T15:27:45.308Z</time></trkpt><trkpt lat="45.9768094" lon="11.729086"><ele>638.0</ele><time>2026-04-04T15:27:47.309Z</time></trkpt><trkpt lat="45.9768606" lon="11.7292222"><ele>638.0</ele><time>2026-04-04T15:27:49.309Z</time></trkpt><trkpt lat="45.9769155" lon="11.729373"><ele>638.0</ele><time>2026-04-04T15:27:51.31Z</time></trkpt><trkpt lat="45.9769545" lon="11.7295233"><ele>638.0</ele><time>2026-04-04T15:27:53.31Z</time></trkpt><trkpt lat="45.9769752" lon="11.729683"><ele>638.0</ele><time>2026-04-04T15:27:55.309Z</time></trkpt><trkpt lat="45.9769856" lon="11.7298341"><ele>638.0</ele><time>2026-04-04T15:27:57.31Z</time></trkpt><trkpt lat="45.9769857" lon="11.7299857"><ele>639.0</ele><time>2026-04-04T15:27:59.309Z</time></trkpt><trkpt lat="45.9770111" lon="11.7300866"><ele>640.0</ele><time>2026-04-04T15:28:01.309Z</time></trkpt><trkpt lat="45.9770873" lon="11.7301323"><ele>641.0</ele><time>2026-04-04T15:28:03.309Z</time></trkpt><trkpt lat="45.9771983" lon="11.7301545"><ele>642.0</ele><time>2026-04-04T15:28:05.309Z</time></trkpt><trkpt lat="45.9773014" lon="11.7301775"><ele>643.0</ele><time>2026-04-04T15:28:07.309Z</time></trkpt><trkpt lat="45.9774176" lon="11.7302072"><ele>641.1666666666667</ele><time>2026-04-04T15:28:09.309Z</time></trkpt><trkpt lat="45.9775235" lon="11.73024"><ele>639.3333333333334</ele><time>2026-04-04T15:28:11.309Z</time></trkpt><trkpt lat="45.9775853" lon="11.7302597"><ele>637.5</ele><time>2026-04-04T15:28:12.309Z</time></trkpt><trkpt lat="45.977653" lon="11.7302841"><ele>635.6666666666666</ele><time>2026-04-04T15:28:13.309Z</time></trkpt><trkpt lat="45.9777238" lon="11.7303122"><ele>633.8333333333333</ele><time>2026-04-04T15:28:14.31Z</time></trkpt><trkpt lat="45.9777973" lon="11.7303438"><ele>632.0</ele><time>2026-04-04T15:28:15.31Z</time></trkpt><trkpt lat="45.9778662" lon="11.7303741"><ele>632.0</ele><time>2026-04-04T15:28:16.31Z</time></trkpt><trkpt lat="45.9779328" lon="11.7304124"><ele>632.0</ele><time>2026-04-04T15:28:17.309Z</time></trkpt><trkpt lat="45.9779956" lon="11.7304567"><ele>632.0</ele><time>2026-04-04T15:28:18.309Z</time></trkpt><trkpt lat="45.9780526" lon="11.7305049"><ele>632.0</ele><time>2026-04-04T15:28:19.31Z</time></trkpt><trkpt lat="45.9781392" lon="11.7305964"><ele>632.0</ele><time>2026-04-04T15:28:21.31Z</time></trkpt><trkpt lat="45.9782089" lon="11.7306747"><ele>632.0</ele><time>2026-04-04T15:28:23.309Z</time></trkpt><trkpt lat="45.9782513" lon="11.7307698"><ele>632.0</ele><time>2026-04-04T15:28:26.31Z</time></trkpt><trkpt lat="45.9782464" lon="11.7308699"><ele>632.0</ele><time>2026-04-04T15:28:28.31Z</time></trkpt><trkpt lat="45.9782255" lon="11.7309761"><ele>632.0</ele><time>2026-04-04T15:28:30.31Z</time></trkpt><trkpt lat="45.9782064" lon="11.7310766"><ele>632.0</ele><time>2026-04-04T15:28:32.309Z</time></trkpt><trkpt lat="45.9781743" lon="11.7311723"><ele>632.0</ele><time>2026-04-04T15:28:34.309Z</time></trkpt><trkpt lat="45.9780978" lon="11.7312519"><ele>632.0</ele><time>2026-04-04T15:28:37.31Z</time></trkpt><trkpt lat="45.9780293" lon="11.7312863"><ele>633.0</ele><time>2026-04-04T15:28:39.31Z</time></trkpt><trkpt lat="45.977958" lon="11.7313227"><ele>634.0</ele><time>2026-04-04T15:28:41.31Z</time></trkpt><trkpt lat="45.9778825" lon="11.7313756"><ele>635.0</ele><time>2026-04-04T15:28:43.31Z</time></trkpt><trkpt lat="45.9778106" lon="11.7314217"><ele>636.0</ele><time>2026-04-04T15:28:45.31Z</time></trkpt><trkpt lat="45.9777373" lon="11.7314838"><ele>637.0</ele><time>2026-04-04T15:28:47.31Z</time></trkpt><trkpt lat="45.9776651" lon="11.7315008"><ele>638.0</ele><time>2026-04-04T15:28:50.311Z</time></trkpt><trkpt lat="45.9775774" lon="11.7314549"><ele>639.5</ele><time>2026-04-04T15:28:53.31Z</time></trkpt><trkpt lat="45.9775018" lon="11.7314196"><ele>641.0</ele><time>2026-04-04T15:28:55.31Z</time></trkpt><trkpt lat="45.9774304" lon="11.7313942"><ele>642.5</ele><time>2026-04-04T15:29:34.31Z</time></trkpt><trkpt lat="45.97735" lon="11.7313908"><ele>644.0</ele><time>2026-04-04T15:29:36.31Z</time></trkpt><trkpt lat="45.9772688" lon="11.7313949"><ele>645.5</ele><time>2026-04-04T15:29:38.31Z</time></trkpt><trkpt lat="45.9771981" lon="11.7314302"><ele>647.0</ele><time>2026-04-04T15:29:41.31Z</time></trkpt><trkpt lat="45.9771717" lon="11.7315132"><ele>647.0</ele><time>2026-04-04T15:29:44.31Z</time></trkpt><trkpt lat="45.9772322" lon="11.7315894"><ele>647.0</ele><time>2026-04-04T15:30:23.312Z</time></trkpt><trkpt lat="45.9772973" lon="11.731569"><ele>647.0</ele><time>2026-04-04T15:30:26.311Z</time></trkpt><trkpt lat="45.9773614" lon="11.7316087"><ele>647.0</ele><time>2026-04-04T15:30:30.311Z</time></trkpt><trkpt lat="45.9774315" lon="11.7316739"><ele>647.0</ele><time>2026-04-04T15:30:32.312Z</time></trkpt><trkpt lat="45.9774951" lon="11.7317352"><ele>647.0</ele><time>2026-04-04T15:30:34.311Z</time></trkpt><trkpt lat="45.9775611" lon="11.7318055"><ele>646.1666666666666</ele><time>2026-04-04T15:30:37.311Z</time></trkpt><trkpt lat="45.9776292" lon="11.7318847"><ele>645.3333333333333</ele><time>2026-04-04T15:30:39.312Z</time></trkpt><trkpt lat="45.9777039" lon="11.7319771"><ele>644.5</ele><time>2026-04-04T15:30:41.312Z</time></trkpt><trkpt lat="45.9777622" lon="11.7320406"><ele>643.6666666666666</ele><time>2026-04-04T15:30:43.312Z</time></trkpt><trkpt lat="45.9778234" lon="11.7320872"><ele>642.8333333333334</ele><time>2026-04-04T15:30:45.311Z</time></trkpt><trkpt lat="45.9779174" lon="11.7321521"><ele>642.0</ele><time>2026-04-04T15:30:47.311Z</time></trkpt><trkpt lat="45.978021" lon="11.7322293"><ele>642.0</ele><time>2026-04-04T15:30:49.312Z</time></trkpt><trkpt lat="45.9780925" lon="11.7322662"><ele>642.0</ele><time>2026-04-04T15:30:51.312Z</time></trkpt><trkpt lat="45.9781638" lon="11.7323251"><ele>642.0</ele><time>2026-04-04T15:30:53.311Z</time></trkpt><trkpt lat="45.9782118" lon="11.7323988"><ele>642.0</ele><time>2026-04-04T15:30:55.312Z</time></trkpt><trkpt lat="45.978274" lon="11.732489"><ele>642.0</ele><time>2026-04-04T15:30:57.311Z</time></trkpt><trkpt lat="45.9783486" lon="11.7325756"><ele>642.0</ele><time>2026-04-04T15:30:59.311Z</time></trkpt><trkpt lat="45.978413" lon="11.7326556"><ele>640.5</ele><time>2026-04-04T15:31:01.312Z</time></trkpt><trkpt lat="45.9784659" lon="11.7327422"><ele>639.0</ele><time>2026-04-04T15:31:03.312Z</time></trkpt><trkpt lat="45.9784887" lon="11.7328465"><ele>637.5</ele><time>2026-04-04T15:31:05.312Z</time></trkpt><trkpt lat="45.978565" lon="11.7329563"><ele>636.0</ele><time>2026-04-04T15:31:07.313Z</time></trkpt><trkpt lat="45.9786169" lon="11.7330277"><ele>634.5</ele><time>2026-04-04T15:31:09.312Z</time></trkpt><trkpt lat="45.9785942" lon="11.7331418"><ele>633.0</ele><time>2026-04-04T15:31:12.312Z</time></trkpt><trkpt lat="45.9785241" lon="11.7332912"><ele>633.0</ele><time>2026-04-04T15:31:14.313Z</time></trkpt><trkpt lat="45.9784807" lon="11.7333607"><ele>633.0</ele><time>2026-04-04T15:31:15.313Z</time></trkpt><trkpt lat="45.9784327" lon="11.733476"><ele>633.0</ele><time>2026-04-04T15:31:17.313Z</time></trkpt><trkpt lat="45.978431" lon="11.733579"><ele>633.0</ele><time>2026-04-04T15:31:20.312Z</time></trkpt><trkpt lat="45.9784522" lon="11.733667"><ele>633.0</ele><time>2026-04-04T15:31:22.312Z</time></trkpt><trkpt lat="45.9784948" lon="11.7337546"><ele>633.0</ele><time>2026-04-04T15:31:24.312Z</time></trkpt><trkpt lat="45.9785489" lon="11.7338201"><ele>633.0</ele><time>2026-04-04T15:31:25.312Z</time></trkpt><trkpt lat="45.9785958" lon="11.7338822"><ele>631.4</ele><time>2026-04-04T15:31:26.312Z</time></trkpt><trkpt lat="45.9786487" lon="11.7339763"><ele>629.8</ele><time>2026-04-04T15:31:28.312Z</time></trkpt><trkpt lat="45.978709" lon="11.7340676"><ele>628.2</ele><time>2026-04-04T15:31:32.313Z</time></trkpt><trkpt lat="45.9787646" lon="11.7341945"><ele>626.6</ele><time>2026-04-04T15:31:34.312Z</time></trkpt><trkpt lat="45.9787979" lon="11.734313"><ele>625.0</ele><time>2026-04-04T15:31:36.312Z</time></trkpt><trkpt lat="45.9788454" lon="11.7344234"><ele>622.6666666666667</ele><time>2026-04-04T15:31:39.313Z</time></trkpt><trkpt lat="45.9788888" lon="11.734504"><ele>620.3333333333334</ele><time>2026-04-04T15:31:41.313Z</time></trkpt><trkpt lat="45.9789477" lon="11.7345559"><ele>618.0</ele><time>2026-04-04T15:31:52.313Z</time></trkpt><trkpt lat="45.9789995" lon="11.7346189"><ele>615.6666666666666</ele><time>2026-04-04T15:31:53.312Z</time></trkpt><trkpt lat="45.9790513" lon="11.7346926"><ele>613.3333333333333</ele><time>2026-04-04T15:31:54.313Z</time></trkpt><trkpt lat="45.9790847" lon="11.7348293"><ele>611.0</ele><time>2026-04-04T15:31:56.313Z</time></trkpt><trkpt lat="45.9791295" lon="11.7349527"><ele>610.4</ele><time>2026-04-04T15:31:58.313Z</time></trkpt><trkpt lat="45.9792035" lon="11.7350786"><ele>609.8</ele><time>2026-04-04T15:32:00.314Z</time></trkpt><trkpt lat="45.9792497" lon="11.7351564"><ele>609.1999999999999</ele><time>2026-04-04T15:32:01.313Z</time></trkpt><trkpt lat="45.9793435" lon="11.7352726"><ele>608.6</ele><time>2026-04-04T15:32:03.314Z</time></trkpt><trkpt lat="45.9794159" lon="11.7353419"><ele>608.0</ele><time>2026-04-04T15:32:05.313Z</time></trkpt><trkpt lat="45.979437" lon="11.7354753"><ele>606.0</ele><time>2026-04-04T15:32:07.314Z</time></trkpt><trkpt lat="45.97945" lon="11.73557"><ele>604.0</ele><time>2026-04-04T15:32:08.313Z</time></trkpt><trkpt lat="45.9794689" lon="11.7356568"><ele>602.0</ele><time>2026-04-04T15:32:09.314Z</time></trkpt><trkpt lat="45.9795287" lon="11.7358103"><ele>600.0</ele><time>2026-04-04T15:32:11.313Z</time></trkpt><trkpt lat="45.9795707" lon="11.7358787"><ele>598.0</ele><time>2026-04-04T15:32:12.315Z</time></trkpt><trkpt lat="45.9796309" lon="11.7359441"><ele>596.0</ele><time>2026-04-04T15:32:13.314Z</time></trkpt><trkpt lat="45.9796801" lon="11.7360191"><ele>595.0</ele><time>2026-04-04T15:32:14.313Z</time></trkpt><trkpt lat="45.9797005" lon="11.7362175"><ele>594.0</ele><time>2026-04-04T15:32:16.314Z</time></trkpt><trkpt lat="45.97969" lon="11.736358"><ele>593.0</ele><time>2026-04-04T15:32:17.313Z</time></trkpt><trkpt lat="45.9796693" lon="11.7365041"><ele>592.0</ele><time>2026-04-04T15:32:18.313Z</time></trkpt><trkpt lat="45.9796513" lon="11.7366469"><ele>591.0</ele><time>2026-04-04T15:32:19.314Z</time></trkpt><trkpt lat="45.9796308" lon="11.7368059"><ele>590.0</ele><time>2026-04-04T15:32:20.314Z</time></trkpt><trkpt lat="45.9795959" lon="11.7369577"><ele>589.0</ele><time>2026-04-04T15:32:21.314Z</time></trkpt><trkpt lat="45.9795569" lon="11.7370747"><ele>588.0</ele><time>2026-04-04T15:32:22.313Z</time></trkpt><trkpt lat="45.9795118" lon="11.7371466"><ele>587.0</ele><time>2026-04-04T15:32:24.314Z</time></trkpt><trkpt lat="45.979438" lon="11.7371437"><ele>586.0</ele><time>2026-04-04T15:32:26.314Z</time></trkpt><trkpt lat="45.9793405" lon="11.7372201"><ele>586.0</ele><time>2026-04-04T15:32:28.313Z</time></trkpt><trkpt lat="45.9792733" lon="11.7372847"><ele>586.0</ele><time>2026-04-04T15:32:30.314Z</time></trkpt><trkpt lat="45.9792135" lon="11.737361"><ele>586.0</ele><time>2026-04-04T15:32:32.313Z</time></trkpt><trkpt lat="45.9791081" lon="11.7373935"><ele>586.0</ele><time>2026-04-04T15:32:34.314Z</time></trkpt><trkpt lat="45.9790302" lon="11.7374068"><ele>586.0</ele><time>2026-04-04T15:32:36.313Z</time></trkpt><trkpt lat="45.9789386" lon="11.7374346"><ele>586.0</ele><time>2026-04-04T15:32:39.313Z</time></trkpt><trkpt lat="45.9788757" lon="11.7374621"><ele>587.8</ele><time>2026-04-04T15:32:41.314Z</time></trkpt><trkpt lat="45.9787837" lon="11.7375313"><ele>589.6</ele><time>2026-04-04T15:32:43.314Z</time></trkpt><trkpt lat="45.9786895" lon="11.7375956"><ele>591.4</ele><time>2026-04-04T15:32:45.313Z</time></trkpt><trkpt lat="45.9785937" lon="11.7376546"><ele>593.2</ele><time>2026-04-04T15:32:47.313Z</time></trkpt><trkpt lat="45.9784992" lon="11.737742"><ele>595.0</ele><time>2026-04-04T15:32:49.314Z</time></trkpt><trkpt lat="45.9784252" lon="11.737824"><ele>595.2</ele><time>2026-04-04T15:32:51.314Z</time></trkpt><trkpt lat="45.9783419" lon="11.7378641"><ele>595.4</ele><time>2026-04-04T15:32:54.314Z</time></trkpt><trkpt lat="45.9782246" lon="11.7379442"><ele>595.6</ele><time>2026-04-04T15:32:56.314Z</time></trkpt><trkpt lat="45.9781707" lon="11.7379974"><ele>595.8</ele><time>2026-04-04T15:32:57.313Z</time></trkpt><trkpt lat="45.9781097" lon="11.7381056"><ele>596.0</ele><time>2026-04-04T15:32:59.314Z</time></trkpt><trkpt lat="45.9780728" lon="11.7382139"><ele>596.0</ele><time>2026-04-04T15:33:01.315Z</time></trkpt><trkpt lat="45.9779818" lon="11.7381897"><ele>596.0</ele><time>2026-04-04T15:33:05.315Z</time></trkpt><trkpt lat="45.9779333" lon="11.738117"><ele>596.0</ele><time>2026-04-04T15:33:06.314Z</time></trkpt><trkpt lat="45.9778962" lon="11.7380131"><ele>596.0</ele><time>2026-04-04T15:33:07.314Z</time></trkpt><trkpt lat="45.9778682" lon="11.7379283"><ele>596.0</ele><time>2026-04-04T15:33:08.314Z</time></trkpt><trkpt lat="45.9778418" lon="11.7378325"><ele>596.0</ele><time>2026-04-04T15:33:12.314Z</time></trkpt><trkpt lat="45.9777791" lon="11.7378872"><ele>596.0</ele><time>2026-04-04T15:33:15.314Z</time></trkpt><trkpt lat="45.9778522" lon="11.737859"><ele>596.0</ele><time>2026-04-04T15:33:26.314Z</time></trkpt><trkpt lat="45.9779192" lon="11.7379585"><ele>596.0</ele><time>2026-04-04T15:33:28.314Z</time></trkpt><trkpt lat="45.9779543" lon="11.7380366"><ele>596.0</ele><time>2026-04-04T15:33:29.314Z</time></trkpt><trkpt lat="45.9779976" lon="11.7381295"><ele>596.0</ele><time>2026-04-04T15:33:30.315Z</time></trkpt><trkpt lat="45.9780391" lon="11.7382242"><ele>596.0</ele><time>2026-04-04T15:33:31.315Z</time></trkpt><trkpt lat="45.978073" lon="11.7383068"><ele>596.0</ele><time>2026-04-04T15:33:32.314Z</time></trkpt><trkpt lat="45.9781008" lon="11.738409"><ele>596.0</ele><time>2026-04-04T15:33:33.315Z</time></trkpt><trkpt lat="45.978125" lon="11.7385353"><ele>596.0</ele><time>2026-04-04T15:33:34.315Z</time></trkpt><trkpt lat="45.9781653" lon="11.7387014"><ele>596.0</ele><time>2026-04-04T15:33:35.314Z</time></trkpt><trkpt lat="45.9781957" lon="11.7388504"><ele>596.0</ele><time>2026-04-04T15:33:36.315Z</time></trkpt><trkpt lat="45.9782316" lon="11.738985"><ele>595.4</ele><time>2026-04-04T15:33:37.315Z</time></trkpt><trkpt lat="45.9782697" lon="11.7391064"><ele>594.8</ele><time>2026-04-04T15:33:38.314Z</time></trkpt><trkpt lat="45.9783076" lon="11.7392071"><ele>594.1999999999999</ele><time>2026-04-04T15:33:39.315Z</time></trkpt><trkpt lat="45.978354" lon="11.7393357"><ele>593.6</ele><time>2026-04-04T15:33:41.316Z</time></trkpt><trkpt lat="45.9784101" lon="11.7394907"><ele>593.0</ele><time>2026-04-04T15:33:43.314Z</time></trkpt><trkpt lat="45.9784013" lon="11.739622"><ele>591.25</ele><time>2026-04-04T15:33:45.316Z</time></trkpt><trkpt lat="45.9782963" lon="11.7397352"><ele>589.5</ele><time>2026-04-04T15:33:47.316Z</time></trkpt><trkpt lat="45.9782094" lon="11.7398068"><ele>587.75</ele><time>2026-04-04T15:33:48.314Z</time></trkpt><trkpt lat="45.9781052" lon="11.7398964"><ele>586.0</ele><time>2026-04-04T15:33:49.315Z</time></trkpt><trkpt lat="45.9780024" lon="11.7399838"><ele>586.0</ele><time>2026-04-04T15:33:50.314Z</time></trkpt><trkpt lat="45.9779118" lon="11.7400681"><ele>586.0</ele><time>2026-04-04T15:33:51.315Z</time></trkpt><trkpt lat="45.977836" lon="11.7401343"><ele>586.0</ele><time>2026-04-04T15:33:52.314Z</time></trkpt><trkpt lat="45.9777569" lon="11.7401903"><ele>586.0</ele><time>2026-04-04T15:33:53.315Z</time></trkpt><trkpt lat="45.9776666" lon="11.7402316"><ele>586.0</ele><time>2026-04-04T15:33:54.315Z</time></trkpt><trkpt lat="45.9775863" lon="11.7402845"><ele>585.6666666666667</ele><time>2026-04-04T15:33:55.316Z</time></trkpt><trkpt lat="45.9775245" lon="11.7403538"><ele>585.3333333333334</ele><time>2026-04-04T15:33:56.316Z</time></trkpt><trkpt lat="45.9774831" lon="11.740433"><ele>585.0</ele><time>2026-04-04T15:33:57.316Z</time></trkpt><trkpt lat="45.9774327" lon="11.7405112"><ele>584.6666666666666</ele><time>2026-04-04T15:33:59.315Z</time></trkpt><trkpt lat="45.9773646" lon="11.7405606"><ele>584.3333333333333</ele><time>2026-04-04T15:34:02.315Z</time></trkpt><trkpt lat="45.9772766" lon="11.7406715"><ele>584.0</ele><time>2026-04-04T15:34:04.316Z</time></trkpt><trkpt lat="45.9772151" lon="11.7407316"><ele>584.0</ele><time>2026-04-04T15:34:05.315Z</time></trkpt><trkpt lat="45.9771406" lon="11.740786"><ele>584.0</ele><time>2026-04-04T15:34:06.315Z</time></trkpt><trkpt lat="45.9770764" lon="11.7408271"><ele>584.0</ele><time>2026-04-04T15:34:07.315Z</time></trkpt><trkpt lat="45.9770344" lon="11.7409521"><ele>584.0</ele><time>2026-04-04T15:34:10.315Z</time></trkpt><trkpt lat="45.9769961" lon="11.7410971"><ele>584.0</ele><time>2026-04-04T15:34:12.315Z</time></trkpt><trkpt lat="45.9769374" lon="11.7411623"><ele>584.0</ele><time>2026-04-04T15:34:15.315Z</time></trkpt><trkpt lat="45.9770026" lon="11.7410366"><ele>584.0</ele><time>2026-04-04T15:34:23.315Z</time></trkpt><trkpt lat="45.9770229" lon="11.7409252"><ele>584.0</ele><time>2026-04-04T15:34:24.316Z</time></trkpt><trkpt lat="45.9770435" lon="11.7408027"><ele>584.0</ele><time>2026-04-04T15:34:25.315Z</time></trkpt><trkpt lat="45.9770504" lon="11.7406618"><ele>584.0</ele><time>2026-04-04T15:34:27.315Z</time></trkpt><trkpt lat="45.9770595" lon="11.7405334"><ele>584.0</ele><time>2026-04-04T15:34:29.315Z</time></trkpt><trkpt lat="45.9770746" lon="11.7403743"><ele>584.0</ele><time>2026-04-04T15:34:31.316Z</time></trkpt><trkpt lat="45.977084" lon="11.740276"><ele>584.0</ele><time>2026-04-04T15:34:32.315Z</time></trkpt><trkpt lat="45.9771123" lon="11.7401318"><ele>584.0</ele><time>2026-04-04T15:34:34.316Z</time></trkpt><trkpt lat="45.9771152" lon="11.7400031"><ele>584.0</ele><time>2026-04-04T15:34:40.315Z</time></trkpt><trkpt lat="45.9771628" lon="11.7399432"><ele>584.0</ele><time>2026-04-04T15:34:43.317Z</time></trkpt><trkpt lat="45.9771515" lon="11.7398408"><ele>584.0</ele><time>2026-04-04T15:34:47.315Z</time></trkpt><trkpt lat="45.977109" lon="11.7397252"><ele>585.2</ele><time>2026-04-04T15:34:49.316Z</time></trkpt><trkpt lat="45.9770614" lon="11.7396447"><ele>586.4</ele><time>2026-04-04T15:34:50.316Z</time></trkpt><trkpt lat="45.9770025" lon="11.739554"><ele>587.6</ele><time>2026-04-04T15:34:51.316Z</time></trkpt><trkpt lat="45.976943" lon="11.7394464"><ele>588.8</ele><time>2026-04-04T15:34:52.316Z</time></trkpt><trkpt lat="45.9768736" lon="11.7393333"><ele>590.0</ele><time>2026-04-04T15:34:53.317Z</time></trkpt><trkpt lat="45.9767987" lon="11.739221"><ele>592.0</ele><time>2026-04-04T15:34:54.316Z</time></trkpt><trkpt lat="45.9767007" lon="11.7390947"><ele>594.0</ele><time>2026-04-04T15:34:55.317Z</time></trkpt><trkpt lat="45.9765973" lon="11.7389536"><ele>596.0</ele><time>2026-04-04T15:34:56.315Z</time></trkpt><trkpt lat="45.9764829" lon="11.738809"><ele>598.0</ele><time>2026-04-04T15:34:57.315Z</time></trkpt><trkpt lat="45.9763557" lon="11.738688"><ele>601.25</ele><time>2026-04-04T15:34:58.315Z</time></trkpt><trkpt lat="45.9762366" lon="11.7385996"><ele>604.5</ele><time>2026-04-04T15:34:59.316Z</time></trkpt><trkpt lat="45.9761243" lon="11.7385226"><ele>607.75</ele><time>2026-04-04T15:35:00.316Z</time></trkpt><trkpt lat="45.9760103" lon="11.7384347"><ele>611.0</ele><time>2026-04-04T15:35:01.317Z</time></trkpt><trkpt lat="45.97591" lon="11.7383582"><ele>614.0</ele><time>2026-04-04T15:35:02.316Z</time></trkpt><trkpt lat="45.9758086" lon="11.7382795"><ele>617.0</ele><time>2026-04-04T15:35:03.317Z</time></trkpt><trkpt lat="45.9757242" lon="11.7382134"><ele>620.0</ele><time>2026-04-04T15:35:04.316Z</time></trkpt><trkpt lat="45.9756226" lon="11.7381664"><ele>623.0</ele><time>2026-04-04T15:35:05.316Z</time></trkpt><trkpt lat="45.9755042" lon="11.7381592"><ele>626.0</ele><time>2026-04-04T15:35:06.316Z</time></trkpt><trkpt lat="45.9754137" lon="11.7381388"><ele>626.0</ele><time>2026-04-04T15:35:07.316Z</time></trkpt><trkpt lat="45.9753217" lon="11.7380878"><ele>626.0</ele><time>2026-04-04T15:35:08.316Z</time></trkpt><trkpt lat="45.9752281" lon="11.7380057"><ele>626.0</ele><time>2026-04-04T15:35:09.316Z</time></trkpt><trkpt lat="45.975137" lon="11.7379128"><ele>626.0</ele><time>2026-04-04T15:35:10.316Z</time></trkpt><trkpt lat="45.9750595" lon="11.7378395"><ele>626.0</ele><time>2026-04-04T15:35:11.317Z</time></trkpt><trkpt lat="45.9749734" lon="11.7377971"><ele>628.0</ele><time>2026-04-04T15:35:12.317Z</time></trkpt><trkpt lat="45.9748681" lon="11.7377576"><ele>630.0</ele><time>2026-04-04T15:35:13.317Z</time></trkpt><trkpt lat="45.974677" lon="11.737606"><ele>632.0</ele><time>2026-04-04T15:35:15.316Z</time></trkpt><trkpt lat="45.9745644" lon="11.7375381"><ele>634.0</ele><time>2026-04-04T15:35:16.317Z</time></trkpt><trkpt lat="45.9744676" lon="11.7374824"><ele>634.8333333333334</ele><time>2026-04-04T15:35:17.316Z</time></trkpt><trkpt lat="45.9743963" lon="11.7374218"><ele>635.6666666666667</ele><time>2026-04-04T15:35:18.316Z</time></trkpt><trkpt lat="45.9743385" lon="11.7373337"><ele>636.5</ele><time>2026-04-04T15:35:19.317Z</time></trkpt><trkpt lat="45.9742947" lon="11.7372367"><ele>637.3333333333334</ele><time>2026-04-04T15:35:20.316Z</time></trkpt><trkpt lat="45.9742632" lon="11.7371339"><ele>638.1666666666666</ele><time>2026-04-04T15:35:21.316Z</time></trkpt><trkpt lat="45.974244" lon="11.7370185"><ele>639.0</ele><time>2026-04-04T15:35:22.316Z</time></trkpt><trkpt lat="45.9742289" lon="11.7368964"><ele>640.6</ele><time>2026-04-04T15:35:23.317Z</time></trkpt><trkpt lat="45.9742127" lon="11.7367753"><ele>642.2</ele><time>2026-04-04T15:35:24.317Z</time></trkpt><trkpt lat="45.9741923" lon="11.736659"><ele>643.8000000000001</ele><time>2026-04-04T15:35:25.316Z</time></trkpt><trkpt lat="45.9741687" lon="11.7365333"><ele>645.4</ele><time>2026-04-04T15:35:26.316Z</time></trkpt><trkpt lat="45.9741379" lon="11.7363926"><ele>647.0</ele><time>2026-04-04T15:35:27.317Z</time></trkpt><trkpt lat="45.9740916" lon="11.7362475"><ele>647.25</ele><time>2026-04-04T15:35:28.317Z</time></trkpt><trkpt lat="45.9740316" lon="11.7361031"><ele>647.5</ele><time>2026-04-04T15:35:29.317Z</time></trkpt><trkpt lat="45.9739724" lon="11.7359641"><ele>647.75</ele><time>2026-04-04T15:35:30.316Z</time></trkpt><trkpt lat="45.9739148" lon="11.7358125"><ele>648.0</ele><time>2026-04-04T15:35:31.317Z</time></trkpt><trkpt lat="45.9738581" lon="11.7356629"><ele>649.5</ele><time>2026-04-04T15:35:32.316Z</time></trkpt><trkpt lat="45.9737899" lon="11.7355208"><ele>651.0</ele><time>2026-04-04T15:35:33.317Z</time></trkpt><trkpt lat="45.9737078" lon="11.7354042"><ele>652.5</ele><time>2026-04-04T15:35:34.316Z</time></trkpt><trkpt lat="45.9736198" lon="11.7352976"><ele>654.0</ele><time>2026-04-04T15:35:35.316Z</time></trkpt><trkpt lat="45.9735201" lon="11.7352201"><ele>655.0</ele><time>2026-04-04T15:35:36.316Z</time></trkpt><trkpt lat="45.9734038" lon="11.7351587"><ele>656.0</ele><time>2026-04-04T15:35:37.317Z</time></trkpt><trkpt lat="45.9732933" lon="11.7351015"><ele>657.0</ele><time>2026-04-04T15:35:38.316Z</time></trkpt><trkpt lat="45.9731797" lon="11.735047"><ele>658.0</ele><time>2026-04-04T15:35:39.316Z</time></trkpt><trkpt lat="45.9730679" lon="11.7349846"><ele>660.0</ele><time>2026-04-04T15:35:40.317Z</time></trkpt><trkpt lat="45.9729565" lon="11.7349107"><ele>662.0</ele><time>2026-04-04T15:35:41.317Z</time></trkpt><trkpt lat="45.9728505" lon="11.7348195"><ele>664.0</ele><time>2026-04-04T15:35:42.317Z</time></trkpt><trkpt lat="45.9727478" lon="11.7347366"><ele>666.0</ele><time>2026-04-04T15:35:43.317Z</time></trkpt><trkpt lat="45.9726485" lon="11.734658"><ele>666.0</ele><time>2026-04-04T15:35:44.316Z</time></trkpt><trkpt lat="45.9725399" lon="11.7345881"><ele>666.0</ele><time>2026-04-04T15:35:45.316Z</time></trkpt><trkpt lat="45.9724284" lon="11.734527"><ele>666.0</ele><time>2026-04-04T15:35:46.317Z</time></trkpt><trkpt lat="45.9723167" lon="11.7344661"><ele>666.0</ele><time>2026-04-04T15:35:47.317Z</time></trkpt><trkpt lat="45.9722094" lon="11.7344012"><ele>670.5</ele><time>2026-04-04T15:35:48.318Z</time></trkpt><trkpt lat="45.9721148" lon="11.734298"><ele>675.0</ele><time>2026-04-04T15:35:49.316Z</time></trkpt><trkpt lat="45.9720363" lon="11.7341657"><ele>679.5</ele><time>2026-04-04T15:35:50.318Z</time></trkpt><trkpt lat="45.9719673" lon="11.734029"><ele>684.0</ele><time>2026-04-04T15:35:51.316Z</time></trkpt><trkpt lat="45.9719163" lon="11.7339176"><ele>684.0</ele><time>2026-04-04T15:35:52.317Z</time></trkpt><trkpt lat="45.971875" lon="11.7338297"><ele>684.0</ele><time>2026-04-04T15:35:53.317Z</time></trkpt><trkpt lat="45.971819" lon="11.7336898"><ele>684.0</ele><time>2026-04-04T15:35:55.317Z</time></trkpt><trkpt lat="45.9717983" lon="11.733599"><ele>684.0</ele><time>2026-04-04T15:35:56.317Z</time></trkpt><trkpt lat="45.9717546" lon="11.7334272"><ele>684.0</ele><time>2026-04-04T15:35:58.316Z</time></trkpt><trkpt lat="45.9717244" lon="11.7333395"><ele>684.0</ele><time>2026-04-04T15:35:59.318Z</time></trkpt><trkpt lat="45.9716747" lon="11.7332383"><ele>684.6</ele><time>2026-04-04T15:36:01.317Z</time></trkpt><trkpt lat="45.9716177" lon="11.7330995"><ele>685.2</ele><time>2026-04-04T15:36:03.318Z</time></trkpt><trkpt lat="45.971585" lon="11.7330081"><ele>685.8000000000001</ele><time>2026-04-04T15:36:04.317Z</time></trkpt><trkpt lat="45.9714911" lon="11.7329191"><ele>686.4000000000001</ele><time>2026-04-04T15:36:06.317Z</time></trkpt><trkpt lat="45.9713651" lon="11.7328898"><ele>687.0</ele><time>2026-04-04T15:36:08.317Z</time></trkpt><trkpt lat="45.9712765" lon="11.7328768"><ele>687.0</ele><time>2026-04-04T15:36:09.318Z</time></trkpt><trkpt lat="45.9711795" lon="11.7328574"><ele>687.0</ele><time>2026-04-04T15:36:10.317Z</time></trkpt><trkpt lat="45.9710873" lon="11.7328249"><ele>687.0</ele><time>2026-04-04T15:36:11.317Z</time></trkpt><trkpt lat="45.9710024" lon="11.7327764"><ele>687.0</ele><time>2026-04-04T15:36:12.318Z</time></trkpt><trkpt lat="45.9709342" lon="11.7327171"><ele>687.0</ele><time>2026-04-04T15:36:13.318Z</time></trkpt><trkpt lat="45.9708678" lon="11.7326421"><ele>687.0</ele><time>2026-04-04T15:36:14.318Z</time></trkpt><trkpt lat="45.9708017" lon="11.7325679"><ele>689.8333333333334</ele><time>2026-04-04T15:36:15.317Z</time></trkpt><trkpt lat="45.9707414" lon="11.7324962"><ele>692.6666666666666</ele><time>2026-04-04T15:36:16.318Z</time></trkpt><trkpt lat="45.9706888" lon="11.7324248"><ele>695.5</ele><time>2026-04-04T15:36:17.317Z</time></trkpt><trkpt lat="45.9706306" lon="11.7323568"><ele>698.3333333333333</ele><time>2026-04-04T15:36:18.317Z</time></trkpt><trkpt lat="45.9705644" lon="11.7322794"><ele>701.1666666666666</ele><time>2026-04-04T15:36:19.318Z</time></trkpt><trkpt lat="45.9704957" lon="11.7321983"><ele>704.0</ele><time>2026-04-04T15:36:20.318Z</time></trkpt><trkpt lat="45.9704353" lon="11.7321209"><ele>704.0</ele><time>2026-04-04T15:36:21.318Z</time></trkpt><trkpt lat="45.9703806" lon="11.7320461"><ele>704.0</ele><time>2026-04-04T15:36:22.317Z</time></trkpt><trkpt lat="45.9703311" lon="11.7319882"><ele>704.0</ele><time>2026-04-04T15:36:23.318Z</time></trkpt><trkpt lat="45.9702687" lon="11.7319048"><ele>704.0</ele><time>2026-04-04T15:36:25.317Z</time></trkpt><trkpt lat="45.9703033" lon="11.7318211"><ele>704.0</ele><time>2026-04-04T15:36:27.318Z</time></trkpt><trkpt lat="45.9703599" lon="11.7317777"><ele>704.0</ele><time>2026-04-04T15:36:28.317Z</time></trkpt><trkpt lat="45.9704228" lon="11.7317397"><ele>704.0</ele><time>2026-04-04T15:36:29.318Z</time></trkpt><trkpt lat="45.9704905" lon="11.7317092"><ele>702.8000000000001</ele><time>2026-04-04T15:36:30.317Z</time></trkpt><trkpt lat="45.9705653" lon="11.7317072"><ele>701.6</ele><time>2026-04-04T15:36:31.317Z</time></trkpt><trkpt lat="45.9706602" lon="11.7317346"><ele>700.4</ele><time>2026-04-04T15:36:32.317Z</time></trkpt><trkpt lat="45.9707709" lon="11.7317582"><ele>699.2</ele><time>2026-04-04T15:36:33.318Z</time></trkpt><trkpt lat="45.9708747" lon="11.7317426"><ele>698.0</ele><time>2026-04-04T15:36:34.318Z</time></trkpt><trkpt lat="45.9709619" lon="11.7317205"><ele>698.0</ele><time>2026-04-04T15:36:35.317Z</time></trkpt><trkpt lat="45.9710667" lon="11.7317127"><ele>698.0</ele><time>2026-04-04T15:36:36.317Z</time></trkpt><trkpt lat="45.9711651" lon="11.7317273"><ele>698.0</ele><time>2026-04-04T15:36:37.317Z</time></trkpt><trkpt lat="45.9712672" lon="11.7317521"><ele>698.0</ele><time>2026-04-04T15:36:38.318Z</time></trkpt><trkpt lat="45.9713809" lon="11.7317881"><ele>698.0</ele><time>2026-04-04T15:36:39.318Z</time></trkpt><trkpt lat="45.9715005" lon="11.7318285"><ele>698.0</ele><time>2026-04-04T15:36:40.317Z</time></trkpt><trkpt lat="45.9715982" lon="11.7318462"><ele>698.0</ele><time>2026-04-04T15:36:41.317Z</time></trkpt><trkpt lat="45.9716683" lon="11.7318347"><ele>698.0</ele><time>2026-04-04T15:36:42.318Z</time></trkpt><trkpt lat="45.9717966" lon="11.7317902"><ele>698.0</ele><time>2026-04-04T15:36:44.318Z</time></trkpt><trkpt lat="45.9718834" lon="11.7317732"><ele>698.0</ele><time>2026-04-04T15:36:45.317Z</time></trkpt><trkpt lat="45.971979" lon="11.7317371"><ele>697.6666666666666</ele><time>2026-04-04T15:36:46.318Z</time></trkpt><trkpt lat="45.9720663" lon="11.7316977"><ele>697.3333333333333</ele><time>2026-04-04T15:36:47.317Z</time></trkpt><trkpt lat="45.9721323" lon="11.7316548"><ele>697.0</ele><time>2026-04-04T15:36:48.317Z</time></trkpt><trkpt lat="45.9722027" lon="11.7316278"><ele>696.6666666666666</ele><time>2026-04-04T15:37:02.317Z</time></trkpt><trkpt lat="45.9722674" lon="11.7316028"><ele>696.3333333333334</ele><time>2026-04-04T15:37:03.318Z</time></trkpt><trkpt lat="45.9723658" lon="11.731611"><ele>696.0</ele><time>2026-04-04T15:37:04.318Z</time></trkpt><trkpt lat="45.9724785" lon="11.7316169"><ele>695.5999999999999</ele><time>2026-04-04T15:37:05.317Z</time></trkpt><trkpt lat="45.972593" lon="11.7316073"><ele>695.2</ele><time>2026-04-04T15:37:06.318Z</time></trkpt><trkpt lat="45.9726898" lon="11.7315815"><ele>694.8</ele><time>2026-04-04T15:37:07.319Z</time></trkpt><trkpt lat="45.9727835" lon="11.7314705"><ele>694.4000000000001</ele><time>2026-04-04T15:37:09.317Z</time></trkpt><trkpt lat="45.9728536" lon="11.731374"><ele>694.0</ele><time>2026-04-04T15:37:11.318Z</time></trkpt><trkpt lat="45.9729149" lon="11.7313391"><ele>694.0</ele><time>2026-04-04T15:37:12.317Z</time></trkpt><trkpt lat="45.9729765" lon="11.7313145"><ele>694.0</ele><time>2026-04-04T15:37:13.317Z</time></trkpt><trkpt lat="45.9730796" lon="11.7312791"><ele>694.0</ele><time>2026-04-04T15:37:15.318Z</time></trkpt><trkpt lat="45.9731588" lon="11.7312545"><ele>694.0</ele><time>2026-04-04T15:37:18.318Z</time></trkpt><trkpt lat="45.9731015" lon="11.7311455"><ele>694.0</ele><time>2026-04-04T15:37:23.319Z</time></trkpt><trkpt lat="45.9730472" lon="11.7310866"><ele>694.0</ele><time>2026-04-04T15:37:24.318Z</time></trkpt><trkpt lat="45.9729837" lon="11.7310191"><ele>692.3333333333334</ele><time>2026-04-04T15:37:25.318Z</time></trkpt><trkpt lat="45.9729126" lon="11.7309317"><ele>690.6666666666667</ele><time>2026-04-04T15:37:26.319Z</time></trkpt><trkpt lat="45.9728607" lon="11.7308591"><ele>689.0</ele><time>2026-04-04T15:37:27.318Z</time></trkpt><trkpt lat="45.9728181" lon="11.7307647"><ele>687.3333333333334</ele><time>2026-04-04T15:37:29.319Z</time></trkpt><trkpt lat="45.9727681" lon="11.7306834"><ele>685.6666666666666</ele><time>2026-04-04T15:37:31.318Z</time></trkpt><trkpt lat="45.9727332" lon="11.7305888"><ele>684.0</ele><time>2026-04-04T15:37:33.318Z</time></trkpt><trkpt lat="45.9726877" lon="11.7305236"><ele>684.0</ele><time>2026-04-04T15:37:35.318Z</time></trkpt><trkpt lat="45.972613" lon="11.7304932"><ele>684.0</ele><time>2026-04-04T15:37:37.319Z</time></trkpt><trkpt lat="45.9725444" lon="11.730534"><ele>684.0</ele><time>2026-04-04T15:37:42.318Z</time></trkpt><trkpt lat="45.9724323" lon="11.7305348"><ele>684.0</ele><time>2026-04-04T15:37:44.319Z</time></trkpt><trkpt lat="45.9723629" lon="11.7305543"><ele>684.0</ele><time>2026-04-04T15:37:45.318Z</time></trkpt><trkpt lat="45.9722932" lon="11.7305726"><ele>684.0</ele><time>2026-04-04T15:37:46.318Z</time></trkpt><trkpt lat="45.9722032" lon="11.730565"><ele>683.4000000000001</ele><time>2026-04-04T15:37:48.318Z</time></trkpt><trkpt lat="45.9721132" lon="11.7305392"><ele>682.8</ele><time>2026-04-04T15:37:53.319Z</time></trkpt><trkpt lat="45.9720007" lon="11.7305514"><ele>682.2</ele><time>2026-04-04T15:37:55.318Z</time></trkpt><trkpt lat="45.9718871" lon="11.7305864"><ele>681.5999999999999</ele><time>2026-04-04T15:37:57.32Z</time></trkpt><trkpt lat="45.9718044" lon="11.7306006"><ele>681.0</ele><time>2026-04-04T15:37:58.318Z</time></trkpt><trkpt lat="45.9717242" lon="11.730603"><ele>679.8</ele><time>2026-04-04T15:37:59.318Z</time></trkpt><trkpt lat="45.9716424" lon="11.7306066"><ele>678.5999999999999</ele><time>2026-04-04T15:38:00.319Z</time></trkpt><trkpt lat="45.9715736" lon="11.730597"><ele>677.4</ele><time>2026-04-04T15:38:01.319Z</time></trkpt><trkpt lat="45.9714652" lon="11.7305754"><ele>676.2</ele><time>2026-04-04T15:38:03.318Z</time></trkpt><trkpt lat="45.9713724" lon="11.7305424"><ele>675.0</ele><time>2026-04-04T15:38:05.319Z</time></trkpt><trkpt lat="45.9712784" lon="11.7304908"><ele>675.0</ele><time>2026-04-04T15:38:07.319Z</time></trkpt><trkpt lat="45.9711441" lon="11.7304432"><ele>675.0</ele><time>2026-04-04T15:38:09.319Z</time></trkpt><trkpt lat="45.9710684" lon="11.7304207"><ele>675.0</ele><time>2026-04-04T15:38:10.318Z</time></trkpt><trkpt lat="45.9710019" lon="11.7304073"><ele>675.0</ele><time>2026-04-04T15:38:11.319Z</time></trkpt><trkpt lat="45.9708912" lon="11.7304199"><ele>675.0</ele><time>2026-04-04T15:38:13.319Z</time></trkpt><trkpt lat="45.9707663" lon="11.7304804"><ele>674.2857142857142</ele><time>2026-04-04T15:38:15.32Z</time></trkpt><trkpt lat="45.9706964" lon="11.7305193"><ele>673.5714285714286</ele><time>2026-04-04T15:38:16.318Z</time></trkpt><trkpt lat="45.9706257" lon="11.7305716"><ele>672.8571428571429</ele><time>2026-04-04T15:38:17.32Z</time></trkpt><trkpt lat="45.9705609" lon="11.7306186"><ele>672.1428571428571</ele><time>2026-04-04T15:38:18.319Z</time></trkpt><trkpt lat="45.9704988" lon="11.7306413"><ele>671.4285714285714</ele><time>2026-04-04T15:38:19.319Z</time></trkpt><trkpt lat="45.9704349" lon="11.730638"><ele>670.7142857142857</ele><time>2026-04-04T15:38:20.319Z</time></trkpt><trkpt lat="45.9703564" lon="11.7306363"><ele>670.0</ele><time>2026-04-04T15:38:21.32Z</time></trkpt><trkpt lat="45.970289" lon="11.7306386"><ele>670.0</ele><time>2026-04-04T15:38:22.319Z</time></trkpt><trkpt lat="45.9702257" lon="11.7306235"><ele>670.0</ele><time>2026-04-04T15:38:23.32Z</time></trkpt><trkpt lat="45.9702122" lon="11.7305312"><ele>670.0</ele><time>2026-04-04T15:38:28.32Z</time></trkpt><trkpt lat="45.9701478" lon="11.7304745"><ele>670.0</ele><time>2026-04-04T15:39:11.321Z</time></trkpt><trkpt lat="45.9700938" lon="11.7303496"><ele>670.0</ele><time>2026-04-04T15:39:13.32Z</time></trkpt><trkpt lat="45.9700985" lon="11.7301958"><ele>670.0</ele><time>2026-04-04T15:39:15.32Z</time></trkpt><trkpt lat="45.9701283" lon="11.7300265"><ele>664.0</ele><time>2026-04-04T15:39:17.319Z</time></trkpt><trkpt lat="45.9701295" lon="11.7298766"><ele>658.0</ele><time>2026-04-04T15:39:19.32Z</time></trkpt><trkpt lat="45.9700692" lon="11.7297752"><ele>652.0</ele><time>2026-04-04T15:39:21.321Z</time></trkpt><trkpt lat="45.9700671" lon="11.7296813"><ele>646.0</ele><time>2026-04-04T15:39:23.321Z</time></trkpt><trkpt lat="45.9700743" lon="11.7295477"><ele>640.0</ele><time>2026-04-04T15:39:26.32Z</time></trkpt><trkpt lat="45.9700423" lon="11.7293792"><ele>641.8333333333334</ele><time>2026-04-04T15:39:28.32Z</time></trkpt><trkpt lat="45.9700254" lon="11.7292842"><ele>643.6666666666667</ele><time>2026-04-04T15:39:29.321Z</time></trkpt><trkpt lat="45.9699621" lon="11.7291612"><ele>645.5</ele><time>2026-04-04T15:39:31.32Z</time></trkpt><trkpt lat="45.9698759" lon="11.7291111"><ele>647.3333333333334</ele><time>2026-04-04T15:39:33.32Z</time></trkpt><trkpt lat="45.9698156" lon="11.7290446"><ele>649.1666666666666</ele><time>2026-04-04T15:39:36.32Z</time></trkpt><trkpt lat="45.9697498" lon="11.7290432"><ele>651.0</ele><time>2026-04-04T15:39:39.32Z</time></trkpt><trkpt lat="45.9698004" lon="11.7289809"><ele>651.0</ele><time>2026-04-04T15:39:44.321Z</time></trkpt><trkpt lat="45.969861" lon="11.7290471"><ele>651.0</ele><time>2026-04-04T15:39:46.32Z</time></trkpt><trkpt lat="45.9699461" lon="11.7290881"><ele>651.0</ele><time>2026-04-04T15:39:49.32Z</time></trkpt><trkpt lat="45.9699918" lon="11.7291588"><ele>651.0</ele><time>2026-04-04T15:39:51.32Z</time></trkpt><trkpt lat="45.9700447" lon="11.729312"><ele>651.0</ele><time>2026-04-04T15:39:53.32Z</time></trkpt><trkpt lat="45.9700749" lon="11.7294062"><ele>651.0</ele><time>2026-04-04T15:39:54.321Z</time></trkpt><trkpt lat="45.9700963" lon="11.7295506"><ele>648.8</ele><time>2026-04-04T15:39:56.321Z</time></trkpt><trkpt lat="45.9701926" lon="11.7295143"><ele>646.5999999999999</ele><time>2026-04-04T15:40:01.32Z</time></trkpt><trkpt lat="45.9702592" lon="11.7294069"><ele>644.4</ele><time>2026-04-04T15:40:03.321Z</time></trkpt><trkpt lat="45.9702975" lon="11.7293146"><ele>642.2</ele><time>2026-04-04T15:40:04.32Z</time></trkpt><trkpt lat="45.9703181" lon="11.7292251"><ele>640.0</ele><time>2026-04-04T15:40:05.32Z</time></trkpt><trkpt lat="45.9703132" lon="11.7290557"><ele>637.0</ele><time>2026-04-04T15:40:07.32Z</time></trkpt><trkpt lat="45.970295" lon="11.728958"><ele>634.0</ele><time>2026-04-04T15:40:08.322Z</time></trkpt><trkpt lat="45.9702687" lon="11.7288626"><ele>631.0</ele><time>2026-04-04T15:40:09.322Z</time></trkpt><trkpt lat="45.9702323" lon="11.728765"><ele>628.0</ele><time>2026-04-04T15:40:10.321Z</time></trkpt><trkpt lat="45.970196" lon="11.7286792"><ele>625.0</ele><time>2026-04-04T15:40:11.321Z</time></trkpt><trkpt lat="45.9701196" lon="11.7285526"><ele>622.0</ele><time>2026-04-04T15:40:13.322Z</time></trkpt><trkpt lat="45.9700628" lon="11.7285046"><ele>624.4</ele><time>2026-04-04T15:40:14.321Z</time></trkpt><trkpt lat="45.9699459" lon="11.7284424"><ele>626.8000000000001</ele><time>2026-04-04T15:40:16.32Z</time></trkpt><trkpt lat="45.9698862" lon="11.7284078"><ele>629.2</ele><time>2026-04-04T15:40:17.321Z</time></trkpt><trkpt lat="45.9697688" lon="11.7283604"><ele>631.6</ele><time>2026-04-04T15:40:19.321Z</time></trkpt><trkpt lat="45.9697003" lon="11.7283452"><ele>634.0</ele><time>2026-04-04T15:40:20.321Z</time></trkpt><trkpt lat="45.9696315" lon="11.7283303"><ele>634.0</ele><time>2026-04-04T15:40:21.32Z</time></trkpt><trkpt lat="45.9695555" lon="11.7283169"><ele>634.0</ele><time>2026-04-04T15:40:22.322Z</time></trkpt><trkpt lat="45.9694721" lon="11.7283067"><ele>634.0</ele><time>2026-04-04T15:40:23.321Z</time></trkpt><trkpt lat="45.969403" lon="11.7283107"><ele>634.0</ele><time>2026-04-04T15:40:24.321Z</time></trkpt><trkpt lat="45.9693325" lon="11.7283176"><ele>634.0</ele><time>2026-04-04T15:40:25.322Z</time></trkpt><trkpt lat="45.9692495" lon="11.7283302"><ele>634.0</ele><time>2026-04-04T15:40:26.321Z</time></trkpt><trkpt lat="45.9691799" lon="11.7283329"><ele>635.6666666666667</ele><time>2026-04-04T15:40:27.321Z</time></trkpt><trkpt lat="45.9691138" lon="11.7283321"><ele>637.3333333333334</ele><time>2026-04-04T15:40:28.321Z</time></trkpt><trkpt lat="45.9689906" lon="11.728322"><ele>639.0</ele><time>2026-04-04T15:40:30.321Z</time></trkpt><trkpt lat="45.96892" lon="11.7283167"><ele>640.6666666666666</ele><time>2026-04-04T15:40:31.322Z</time></trkpt><trkpt lat="45.968842" lon="11.7283119"><ele>642.3333333333333</ele><time>2026-04-04T15:40:32.321Z</time></trkpt><trkpt lat="45.9687639" lon="11.7283019"><ele>644.0</ele><time>2026-04-04T15:40:33.322Z</time></trkpt><trkpt lat="45.9687009" lon="11.7282937"><ele>644.0</ele><time>2026-04-04T15:40:34.321Z</time></trkpt><trkpt lat="45.9685898" lon="11.7283182"><ele>644.0</ele><time>2026-04-04T15:40:36.321Z</time></trkpt><trkpt lat="45.968505" lon="11.7283579"><ele>644.0</ele><time>2026-04-04T15:40:38.322Z</time></trkpt><trkpt lat="45.9683852" lon="11.7283957"><ele>644.0</ele><time>2026-04-04T15:40:40.322Z</time></trkpt><trkpt lat="45.9682763" lon="11.7283998"><ele>644.0</ele><time>2026-04-04T15:40:42.323Z</time></trkpt><trkpt lat="45.9681757" lon="11.7283489"><ele>644.8333333333333</ele><time>2026-04-04T15:40:44.322Z</time></trkpt><trkpt lat="45.9681186" lon="11.7283089"><ele>645.6666666666666</ele><time>2026-04-04T15:40:45.322Z</time></trkpt><trkpt lat="45.9680617" lon="11.7282576"><ele>646.5</ele><time>2026-04-04T15:40:46.322Z</time></trkpt><trkpt lat="45.9680185" lon="11.728182"><ele>647.3333333333334</ele><time>2026-04-04T15:40:47.321Z</time></trkpt><trkpt lat="45.9679908" lon="11.7280765"><ele>648.1666666666667</ele><time>2026-04-04T15:40:48.322Z</time></trkpt><trkpt lat="45.9679737" lon="11.7279292"><ele>649.0</ele><time>2026-04-04T15:40:49.322Z</time></trkpt><trkpt lat="45.9679613" lon="11.727779"><ele>645.0</ele><time>2026-04-04T15:40:50.322Z</time></trkpt><trkpt lat="45.9679454" lon="11.7275921"><ele>641.0</ele><time>2026-04-04T15:40:51.322Z</time></trkpt><trkpt lat="45.9679364" lon="11.7274573"><ele>637.0</ele><time>2026-04-04T15:40:52.321Z</time></trkpt><trkpt lat="45.9679375" lon="11.7273515"><ele>633.0</ele><time>2026-04-04T15:40:53.323Z</time></trkpt><trkpt lat="45.9679278" lon="11.7272209"><ele>629.0</ele><time>2026-04-04T15:40:55.322Z</time></trkpt><trkpt lat="45.9678395" lon="11.727088"><ele>629.0</ele><time>2026-04-04T15:40:57.321Z</time></trkpt><trkpt lat="45.9677801" lon="11.7270192"><ele>629.0</ele><time>2026-04-04T15:40:58.322Z</time></trkpt><trkpt lat="45.9677231" lon="11.7269661"><ele>629.0</ele><time>2026-04-04T15:40:59.321Z</time></trkpt><trkpt lat="45.9676597" lon="11.7269181"><ele>629.0</ele><time>2026-04-04T15:41:00.322Z</time></trkpt><trkpt lat="45.9675871" lon="11.7268686"><ele>629.0</ele><time>2026-04-04T15:41:01.322Z</time></trkpt><trkpt lat="45.9675021" lon="11.7268125"><ele>629.0</ele><time>2026-04-04T15:41:02.322Z</time></trkpt><trkpt lat="45.967408" lon="11.7267549"><ele>630.8333333333333</ele><time>2026-04-04T15:41:03.322Z</time></trkpt><trkpt lat="45.9673264" lon="11.7267097"><ele>632.6666666666666</ele><time>2026-04-04T15:41:04.323Z</time></trkpt><trkpt lat="45.9672476" lon="11.7266862"><ele>634.5</ele><time>2026-04-04T15:41:05.322Z</time></trkpt><trkpt lat="45.9671701" lon="11.7266765"><ele>636.3333333333334</ele><time>2026-04-04T15:41:06.322Z</time></trkpt><trkpt lat="45.9670858" lon="11.7266704"><ele>638.1666666666667</ele><time>2026-04-04T15:41:07.322Z</time></trkpt><trkpt lat="45.9670077" lon="11.7266554"><ele>640.0</ele><time>2026-04-04T15:41:08.323Z</time></trkpt><trkpt lat="45.9669429" lon="11.7266331"><ele>640.0</ele><time>2026-04-04T15:41:09.323Z</time></trkpt><trkpt lat="45.966883" lon="11.7266031"><ele>640.0</ele><time>2026-04-04T15:41:10.322Z</time></trkpt><trkpt lat="45.9668224" lon="11.7265664"><ele>640.0</ele><time>2026-04-04T15:41:11.322Z</time></trkpt><trkpt lat="45.966759" lon="11.726519"><ele>640.0</ele><time>2026-04-04T15:41:12.322Z</time></trkpt><trkpt lat="45.966698" lon="11.7264703"><ele>640.0</ele><time>2026-04-04T15:41:13.322Z</time></trkpt><trkpt lat="45.9666454" lon="11.7264087"><ele>640.0</ele><time>2026-04-04T15:41:14.322Z</time></trkpt><trkpt lat="45.9665999" lon="11.7263365"><ele>640.0</ele><time>2026-04-04T15:41:15.321Z</time></trkpt><trkpt lat="45.9665604" lon="11.7262604"><ele>640.3333333333334</ele><time>2026-04-04T15:41:16.322Z</time></trkpt><trkpt lat="45.9665163" lon="11.7261863"><ele>640.6666666666667</ele><time>2026-04-04T15:41:17.322Z</time></trkpt><trkpt lat="45.9664452" lon="11.7261106"><ele>641.0</ele><time>2026-04-04T15:41:19.323Z</time></trkpt><trkpt lat="45.9663791" lon="11.7260304"><ele>641.3333333333334</ele><time>2026-04-04T15:41:22.322Z</time></trkpt><trkpt lat="45.9663515" lon="11.7259479"><ele>641.6666666666666</ele><time>2026-04-04T15:41:23.322Z</time></trkpt><trkpt lat="45.9663105" lon="11.7258464"><ele>642.0</ele><time>2026-04-04T15:41:24.321Z</time></trkpt><trkpt lat="45.9662741" lon="11.7257456"><ele>642.0</ele><time>2026-04-04T15:41:25.322Z</time></trkpt><trkpt lat="45.9662455" lon="11.7256469"><ele>642.0</ele><time>2026-04-04T15:41:26.322Z</time></trkpt><trkpt lat="45.9662097" lon="11.7255464"><ele>642.0</ele><time>2026-04-04T15:41:27.322Z</time></trkpt><trkpt lat="45.9661797" lon="11.7254381"><ele>642.0</ele><time>2026-04-04T15:41:28.322Z</time></trkpt><trkpt lat="45.9661431" lon="11.7253257"><ele>642.0</ele><time>2026-04-04T15:41:29.323Z</time></trkpt><trkpt lat="45.966104" lon="11.7252117"><ele>642.0</ele><time>2026-04-04T15:41:30.324Z</time></trkpt><trkpt lat="45.9660585" lon="11.7251028"><ele>643.5</ele><time>2026-04-04T15:41:31.323Z</time></trkpt><trkpt lat="45.966011" lon="11.7250003"><ele>645.0</ele><time>2026-04-04T15:41:32.323Z</time></trkpt><trkpt lat="45.9659609" lon="11.7249039"><ele>646.5</ele><time>2026-04-04T15:41:33.323Z</time></trkpt><trkpt lat="45.9659023" lon="11.7248129"><ele>648.0</ele><time>2026-04-04T15:41:34.323Z</time></trkpt><trkpt lat="45.9658313" lon="11.7247386"><ele>649.5</ele><time>2026-04-04T15:41:35.323Z</time></trkpt><trkpt lat="45.9657531" lon="11.7246711"><ele>651.0</ele><time>2026-04-04T15:41:36.322Z</time></trkpt><trkpt lat="45.9656716" lon="11.7246062"><ele>651.0</ele><time>2026-04-04T15:41:37.322Z</time></trkpt><trkpt lat="45.965593" lon="11.7245451"><ele>651.0</ele><time>2026-04-04T15:41:38.323Z</time></trkpt><trkpt lat="45.9655204" lon="11.7244858"><ele>651.0</ele><time>2026-04-04T15:41:39.323Z</time></trkpt><trkpt lat="45.9654442" lon="11.7244194"><ele>651.0</ele><time>2026-04-04T15:41:40.322Z</time></trkpt><trkpt lat="45.9653733" lon="11.7243535"><ele>651.0</ele><time>2026-04-04T15:41:41.323Z</time></trkpt><trkpt lat="45.9653092" lon="11.7242949"><ele>651.0</ele><time>2026-04-04T15:41:42.323Z</time></trkpt><trkpt lat="45.9652441" lon="11.7242314"><ele>652.0</ele><time>2026-04-04T15:41:43.323Z</time></trkpt><trkpt lat="45.9651787" lon="11.7241726"><ele>653.0</ele><time>2026-04-04T15:41:44.322Z</time></trkpt><trkpt lat="45.9651168" lon="11.7241133"><ele>654.0</ele><time>2026-04-04T15:41:45.322Z</time></trkpt><trkpt lat="45.9650509" lon="11.7240495"><ele>655.0</ele><time>2026-04-04T15:41:46.323Z</time></trkpt><trkpt lat="45.9649881" lon="11.7239852"><ele>656.0</ele><time>2026-04-04T15:41:47.323Z</time></trkpt><trkpt lat="45.9649224" lon="11.7239093"><ele>657.0</ele><time>2026-04-04T15:41:48.323Z</time></trkpt><trkpt lat="45.9648622" lon="11.7238196"><ele>657.0</ele><time>2026-04-04T15:41:49.323Z</time></trkpt><trkpt lat="45.9648064" lon="11.7237279"><ele>657.0</ele><time>2026-04-04T15:41:50.323Z</time></trkpt><trkpt lat="45.9647648" lon="11.7236253"><ele>657.0</ele><time>2026-04-04T15:41:51.323Z</time></trkpt><trkpt lat="45.9647153" lon="11.7235247"><ele>657.0</ele><time>2026-04-04T15:41:52.323Z</time></trkpt><trkpt lat="45.9646666" lon="11.7234243"><ele>657.0</ele><time>2026-04-04T15:41:53.322Z</time></trkpt><trkpt lat="45.9646103" lon="11.7233242"><ele>657.0</ele><time>2026-04-04T15:41:54.324Z</time></trkpt><trkpt lat="45.9645547" lon="11.7232387"><ele>657.0</ele><time>2026-04-04T15:41:55.323Z</time></trkpt><trkpt lat="45.964485" lon="11.7231627"><ele>657.0</ele><time>2026-04-04T15:41:56.323Z</time></trkpt><trkpt lat="45.9644225" lon="11.7231091"><ele>657.0</ele><time>2026-04-04T15:41:57.322Z</time></trkpt><trkpt lat="45.9643429" lon="11.7230593"><ele>657.0</ele><time>2026-04-04T15:41:58.323Z</time></trkpt><trkpt lat="45.9642583" lon="11.7230099"><ele>657.0</ele><time>2026-04-04T15:41:59.322Z</time></trkpt><trkpt lat="45.9641762" lon="11.7229629"><ele>657.0</ele><time>2026-04-04T15:42:00.323Z</time></trkpt><trkpt lat="45.9640861" lon="11.7229108"><ele>657.0</ele><time>2026-04-04T15:42:01.322Z</time></trkpt><trkpt lat="45.9640013" lon="11.7228567"><ele>657.0</ele><time>2026-04-04T15:42:02.323Z</time></trkpt><trkpt lat="45.9639189" lon="11.7228086"><ele>657.0</ele><time>2026-04-04T15:42:03.324Z</time></trkpt><trkpt lat="45.9638445" lon="11.7227512"><ele>657.0</ele><time>2026-04-04T15:42:04.322Z</time></trkpt><trkpt lat="45.963786" lon="11.7227115"><ele>657.0</ele><time>2026-04-04T15:42:05.324Z</time></trkpt><trkpt lat="45.963684" lon="11.7226582"><ele>657.0</ele><time>2026-04-04T15:42:07.323Z</time></trkpt><trkpt lat="45.9635801" lon="11.7225788"><ele>653.3333333333334</ele><time>2026-04-04T15:42:09.323Z</time></trkpt><trkpt lat="45.9635126" lon="11.7225319"><ele>649.6666666666666</ele><time>2026-04-04T15:42:10.323Z</time></trkpt><trkpt lat="45.9634393" lon="11.7224936"><ele>646.0</ele><time>2026-04-04T15:42:11.323Z</time></trkpt><trkpt lat="45.9633577" lon="11.7224692"><ele>642.3333333333333</ele><time>2026-04-04T15:42:12.323Z</time></trkpt><trkpt lat="45.9632744" lon="11.7224537"><ele>638.6666666666666</ele><time>2026-04-04T15:42:13.324Z</time></trkpt><trkpt lat="45.9632001" lon="11.7224475"><ele>635.0</ele><time>2026-04-04T15:42:14.323Z</time></trkpt><trkpt lat="45.9631193" lon="11.7224477"><ele>634.9999999999999</ele><time>2026-04-04T15:42:16.323Z</time></trkpt><trkpt lat="45.9630613" lon="11.7225519"><ele>635.0</ele><time>2026-04-04T15:42:20.324Z</time></trkpt><trkpt lat="45.9630019" lon="11.7226187"><ele>635.0</ele><time>2026-04-04T15:42:22.322Z</time></trkpt><trkpt lat="45.9629469" lon="11.7226821"><ele>635.0</ele><time>2026-04-04T15:42:24.324Z</time></trkpt><trkpt lat="45.9629595" lon="11.7227841"><ele>635.0</ele><time>2026-04-04T15:42:29.324Z</time></trkpt><trkpt lat="45.9630008" lon="11.7228533"><ele>634.9999999999999</ele><time>2026-04-04T15:42:32.324Z</time></trkpt><trkpt lat="45.9629555" lon="11.7229277"><ele>635.0</ele><time>2026-04-04T15:42:37.324Z</time></trkpt><trkpt lat="45.9629159" lon="11.7230175"><ele>640.0</ele><time>2026-04-04T15:42:41.324Z</time></trkpt><trkpt lat="45.9628685" lon="11.723156"><ele>645.0</ele><time>2026-04-04T15:42:44.323Z</time></trkpt><trkpt lat="45.96284" lon="11.7232608"><ele>650.0</ele><time>2026-04-04T15:42:46.323Z</time></trkpt><trkpt lat="45.9627575" lon="11.7233385"><ele>655.0</ele><time>2026-04-04T15:42:49.324Z</time></trkpt><trkpt lat="45.9626961" lon="11.7233855"><ele>660.0</ele><time>2026-04-04T15:42:51.323Z</time></trkpt><trkpt lat="45.9626304" lon="11.7234531"><ele>665.0</ele><time>2026-04-04T15:42:53.324Z</time></trkpt><trkpt lat="45.962569" lon="11.723509"><ele>664.5</ele><time>2026-04-04T15:42:55.323Z</time></trkpt><trkpt lat="45.9625083" lon="11.7235559"><ele>664.0</ele><time>2026-04-04T15:42:57.325Z</time></trkpt><trkpt lat="45.9624519" lon="11.7236233"><ele>663.5</ele><time>2026-04-04T15:42:59.324Z</time></trkpt><trkpt lat="45.9623888" lon="11.723693"><ele>663.0</ele><time>2026-04-04T15:43:01.324Z</time></trkpt><trkpt lat="45.9623203" lon="11.7237167"><ele>662.5</ele><time>2026-04-04T15:43:14.323Z</time></trkpt><trkpt lat="45.9622499" lon="11.7237702"><ele>662.0</ele><time>2026-04-04T15:43:21.324Z</time></trkpt><trkpt lat="45.9621675" lon="11.7238535"><ele>668.0</ele><time>2026-04-04T15:43:24.323Z</time></trkpt><trkpt lat="45.9621099" lon="11.7239429"><ele>674.0</ele><time>2026-04-04T15:43:26.324Z</time></trkpt><trkpt lat="45.9620727" lon="11.7240709"><ele>680.0</ele><time>2026-04-04T15:43:29.324Z</time></trkpt><trkpt lat="45.9620657" lon="11.7241963"><ele>686.0</ele><time>2026-04-04T15:43:31.325Z</time></trkpt><trkpt lat="45.9620598" lon="11.7242958"><ele>692.0</ele><time>2026-04-04T15:43:33.325Z</time></trkpt><trkpt lat="45.9620396" lon="11.7243857"><ele>698.0</ele><time>2026-04-04T15:43:36.324Z</time></trkpt><trkpt lat="45.9620399" lon="11.7244774"><ele>702.9999999999999</ele><time>2026-04-04T15:44:18.406Z</time></trkpt><trkpt lat="45.9620131" lon="11.7245602"><ele>708.0</ele><time>2026-04-04T15:44:21.404Z</time></trkpt><trkpt lat="45.9619845" lon="11.7246481"><ele>713.0</ele><time>2026-04-04T15:44:25.417Z</time></trkpt><trkpt lat="45.9619522" lon="11.7247565"><ele>718.0</ele><time>2026-04-04T15:44:28.432Z</time></trkpt><trkpt lat="45.9619346" lon="11.7248573"><ele>723.0</ele><time>2026-04-04T15:44:30.402Z</time></trkpt><trkpt lat="45.9618964" lon="11.7249694"><ele>727.9999999999999</ele><time>2026-04-04T15:44:33.418Z</time></trkpt><trkpt lat="45.9618794" lon="11.7250657"><ele>733.0</ele><time>2026-04-04T15:44:35.388Z</time></trkpt><trkpt lat="45.9618709" lon="11.725162"><ele>736.5</ele><time>2026-04-04T15:44:37.388Z</time></trkpt><trkpt lat="45.9618625" lon="11.7252629"><ele>740.0</ele><time>2026-04-04T15:44:39.445Z</time></trkpt><trkpt lat="45.9618971" lon="11.7253579"><ele>743.5</ele><time>2026-04-04T15:44:42.468Z</time></trkpt><trkpt lat="45.9619552" lon="11.7254193"><ele>747.0</ele><time>2026-04-04T15:44:46.402Z</time></trkpt><trkpt lat="45.9620173" lon="11.7253698"><ele>750.5</ele><time>2026-04-04T15:44:57.325Z</time></trkpt><trkpt lat="45.9620788" lon="11.7253148"><ele>754.0</ele><time>2026-04-04T15:44:59.326Z</time></trkpt><trkpt lat="45.9621646" lon="11.7252598"><ele>751.0</ele><time>2026-04-04T15:45:01.325Z</time></trkpt><trkpt lat="45.9622582" lon="11.7252282"><ele>748.0</ele><time>2026-04-04T15:45:03.326Z</time></trkpt><trkpt lat="45.9623473" lon="11.72522"><ele>745.0</ele><time>2026-04-04T15:45:05.326Z</time></trkpt><trkpt lat="45.9624244" lon="11.7252036"><ele>742.0</ele><time>2026-04-04T15:45:07.325Z</time></trkpt><trkpt lat="45.9624986" lon="11.725191"><ele>739.0</ele><time>2026-04-04T15:45:10.327Z</time></trkpt><trkpt lat="45.9625732" lon="11.7251706"><ele>736.0</ele><time>2026-04-04T15:45:12.325Z</time></trkpt><trkpt lat="45.9626776" lon="11.7251482"><ele>736.0</ele><time>2026-04-04T15:45:14.327Z</time></trkpt><trkpt lat="45.9627587" lon="11.7251342"><ele>736.0</ele><time>2026-04-04T15:45:20.325Z</time></trkpt><trkpt lat="45.9627264" lon="11.7252289"><ele>736.0</ele><time>2026-04-04T15:46:04.326Z</time></trkpt><trkpt lat="45.9626759" lon="11.7252989"><ele>736.0</ele><time>2026-04-04T15:46:09.327Z</time></trkpt><trkpt lat="45.9626296" lon="11.7253742"><ele>736.0</ele><time>2026-04-04T15:46:37.327Z</time></trkpt><trkpt lat="45.962559" lon="11.7254371"><ele>736.0</ele><time>2026-04-04T15:46:41.327Z</time></trkpt><trkpt lat="45.9624996" lon="11.7255421"><ele>739.0</ele><time>2026-04-04T15:46:44.328Z</time></trkpt><trkpt lat="45.9624608" lon="11.7256442"><ele>742.0</ele><time>2026-04-04T15:46:46.327Z</time></trkpt><trkpt lat="45.9624234" lon="11.7257706"><ele>745.0</ele><time>2026-04-04T15:46:49.327Z</time></trkpt><trkpt lat="45.962398" lon="11.7258653"><ele>748.0</ele><time>2026-04-04T15:46:51.328Z</time></trkpt><trkpt lat="45.9623642" lon="11.7259928"><ele>751.0</ele><time>2026-04-04T15:46:53.327Z</time></trkpt><trkpt lat="45.962341" lon="11.7260866"><ele>754.0</ele><time>2026-04-04T15:46:55.328Z</time></trkpt><trkpt lat="45.9623876" lon="11.7260025"><ele>754.0</ele><time>2026-04-04T15:47:18.328Z</time></trkpt><trkpt lat="45.9624119" lon="11.7258664"><ele>754.0</ele><time>2026-04-04T15:47:20.328Z</time></trkpt><trkpt lat="45.9624656" lon="11.7256975"><ele>754.0</ele><time>2026-04-04T15:47:22.328Z</time></trkpt><trkpt lat="45.9625179" lon="11.7255558"><ele>754.0</ele><time>2026-04-04T15:47:24.329Z</time></trkpt><trkpt lat="45.962569" lon="11.7254604"><ele>754.0</ele><time>2026-04-04T15:47:26.329Z</time></trkpt><trkpt lat="45.9626281" lon="11.7254007"><ele>756.6</ele><time>2026-04-04T15:47:28.328Z</time></trkpt><trkpt lat="45.9626992" lon="11.7253614"><ele>759.2</ele><time>2026-04-04T15:47:30.327Z</time></trkpt><trkpt lat="45.9627981" lon="11.7253221"><ele>761.8000000000001</ele><time>2026-04-04T15:47:32.328Z</time></trkpt><trkpt lat="45.9629075" lon="11.7253148"><ele>764.4000000000001</ele><time>2026-04-04T15:47:34.328Z</time></trkpt><trkpt lat="45.9630118" lon="11.7253266"><ele>767.0</ele><time>2026-04-04T15:47:36.328Z</time></trkpt><trkpt lat="45.9631095" lon="11.7253793"><ele>767.0</ele><time>2026-04-04T15:47:38.328Z</time></trkpt><trkpt lat="45.9631961" lon="11.7254448"><ele>767.0</ele><time>2026-04-04T15:47:40.328Z</time></trkpt><trkpt lat="45.9631265" lon="11.7253892"><ele>767.0</ele><time>2026-04-04T15:48:10.329Z</time></trkpt><trkpt lat="45.9630599" lon="11.7253371"><ele>767.0</ele><time>2026-04-04T15:48:12.328Z</time></trkpt><trkpt lat="45.9629906" lon="11.7253065"><ele>767.0</ele><time>2026-04-04T15:48:14.329Z</time></trkpt><trkpt lat="45.9629189" lon="11.7252928"><ele>767.0</ele><time>2026-04-04T15:48:16.33Z</time></trkpt><trkpt lat="45.962839" lon="11.7252955"><ele>767.0</ele><time>2026-04-04T15:48:18.33Z</time></trkpt><trkpt lat="45.9627623" lon="11.7253084"><ele>767.0</ele><time>2026-04-04T15:48:20.329Z</time></trkpt><trkpt lat="45.9626967" lon="11.7253329"><ele>767.0</ele><time>2026-04-04T15:48:22.329Z</time></trkpt><trkpt lat="45.9626408" lon="11.7254003"><ele>767.0</ele><time>2026-04-04T15:48:25.329Z</time></trkpt><trkpt lat="45.9625919" lon="11.7254738"><ele>767.0</ele><time>2026-04-04T15:48:30.329Z</time></trkpt><trkpt lat="45.9625756" lon="11.7256068"><ele>767.0</ele><time>2026-04-04T15:48:34.329Z</time></trkpt><trkpt lat="45.9625833" lon="11.7257176"><ele>767.0</ele><time>2026-04-04T15:48:36.329Z</time></trkpt><trkpt lat="45.9626053" lon="11.7258284"><ele>767.0</ele><time>2026-04-04T15:48:39.329Z</time></trkpt><trkpt lat="45.9626472" lon="11.7259277"><ele>767.0</ele><time>2026-04-04T15:48:42.329Z</time></trkpt><trkpt lat="45.9627229" lon="11.7260084"><ele>767.0</ele><time>2026-04-04T15:48:44.33Z</time></trkpt><trkpt lat="45.9627664" lon="11.7260915"><ele>767.0</ele><time>2026-04-04T15:49:04.33Z</time></trkpt><trkpt lat="45.9627895" lon="11.7262216"><ele>767.0</ele><time>2026-04-04T15:49:06.33Z</time></trkpt><trkpt lat="45.9628028" lon="11.7263706"><ele>769.5</ele><time>2026-04-04T15:49:08.329Z</time></trkpt><trkpt lat="45.9628211" lon="11.7264897"><ele>772.0</ele><time>2026-04-04T15:49:10.329Z</time></trkpt><trkpt lat="45.9628426" lon="11.7266326"><ele>774.5</ele><time>2026-04-04T15:49:13.33Z</time></trkpt><trkpt lat="45.9628401" lon="11.7267656"><ele>777.0</ele><time>2026-04-04T15:49:15.329Z</time></trkpt><trkpt lat="45.9628335" lon="11.7268695"><ele>779.5000000000001</ele><time>2026-04-04T15:49:17.329Z</time></trkpt><trkpt lat="45.9628486" lon="11.726983"><ele>782.0</ele><time>2026-04-04T15:49:20.33Z</time></trkpt><trkpt lat="45.9627877" lon="11.7270917"><ele>783.2857142857142</ele><time>2026-04-04T15:49:22.33Z</time></trkpt><trkpt lat="45.9627436" lon="11.7271637"><ele>784.5714285714286</ele><time>2026-04-04T15:49:23.329Z</time></trkpt><trkpt lat="45.9627017" lon="11.7272629"><ele>785.8571428571429</ele><time>2026-04-04T15:49:25.33Z</time></trkpt><trkpt lat="45.9626772" lon="11.7273511"><ele>787.1428571428571</ele><time>2026-04-04T15:49:27.33Z</time></trkpt><trkpt lat="45.962687" lon="11.7274637"><ele>788.4285714285714</ele><time>2026-04-04T15:49:41.33Z</time></trkpt><trkpt lat="45.9627024" lon="11.727553"><ele>789.7142857142857</ele><time>2026-04-04T15:49:50.331Z</time></trkpt><trkpt lat="45.9627031" lon="11.7276728"><ele>791.0</ele><time>2026-04-04T15:49:53.33Z</time></trkpt><trkpt lat="45.9627412" lon="11.7277894"><ele>791.0</ele><time>2026-04-04T15:49:56.33Z</time></trkpt><trkpt lat="45.9628289" lon="11.7277276"><ele>791.0</ele><time>2026-04-04T15:50:00.33Z</time></trkpt><trkpt lat="45.9628992" lon="11.7276059"><ele>791.0</ele><time>2026-04-04T15:50:02.33Z</time></trkpt><trkpt lat="45.9629874" lon="11.7275392"><ele>791.0</ele><time>2026-04-04T15:50:04.33Z</time></trkpt><trkpt lat="45.9630599" lon="11.7275017"><ele>791.0</ele><time>2026-04-04T15:50:05.33Z</time></trkpt><trkpt lat="45.9631755" lon="11.7274391"><ele>791.0000000000001</ele><time>2026-04-04T15:50:07.33Z</time></trkpt><trkpt lat="45.9632457" lon="11.7273984"><ele>791.0</ele><time>2026-04-04T15:50:08.331Z</time></trkpt><trkpt lat="45.9633218" lon="11.7273676"><ele>791.0</ele><time>2026-04-04T15:50:09.33Z</time></trkpt><trkpt lat="45.9634214" lon="11.72735"><ele>791.0</ele><time>2026-04-04T15:50:11.331Z</time></trkpt><trkpt lat="45.9634928" lon="11.7273978"><ele>791.0000000000001</ele><time>2026-04-04T15:50:13.33Z</time></trkpt><trkpt lat="45.9635509" lon="11.7274978"><ele>791.0</ele><time>2026-04-04T15:50:16.331Z</time></trkpt><trkpt lat="45.9636053" lon="11.7276469"><ele>787.5000000000001</ele><time>2026-04-04T15:50:18.33Z</time></trkpt><trkpt lat="45.9636403" lon="11.7277368"><ele>784.0</ele><time>2026-04-04T15:50:19.331Z</time></trkpt><trkpt lat="45.9636858" lon="11.7278244"><ele>780.5</ele><time>2026-04-04T15:50:20.331Z</time></trkpt><trkpt lat="45.963742" lon="11.7279084"><ele>777.0</ele><time>2026-04-04T15:50:21.331Z</time></trkpt><trkpt lat="45.9637926" lon="11.7279874"><ele>773.5000000000001</ele><time>2026-04-04T15:50:22.33Z</time></trkpt><trkpt lat="45.963841" lon="11.7280731"><ele>770.0</ele><time>2026-04-04T15:50:23.331Z</time></trkpt><trkpt lat="45.9638841" lon="11.7281738"><ele>770.0</ele><time>2026-04-04T15:50:24.331Z</time></trkpt><trkpt lat="45.9639203" lon="11.7282839"><ele>770.0</ele><time>2026-04-04T15:50:25.33Z</time></trkpt><trkpt lat="45.9639518" lon="11.7284116"><ele>770.0</ele><time>2026-04-04T15:50:26.331Z</time></trkpt><trkpt lat="45.9639851" lon="11.728546"><ele>770.0</ele><time>2026-04-04T15:50:27.331Z</time></trkpt><trkpt lat="45.964022" lon="11.7286792"><ele>770.0</ele><time>2026-04-04T15:50:28.331Z</time></trkpt><trkpt lat="45.9640644" lon="11.7288212"><ele>769.3333333333334</ele><time>2026-04-04T15:50:29.331Z</time></trkpt><trkpt lat="45.9641066" lon="11.7289564"><ele>768.6666666666667</ele><time>2026-04-04T15:50:30.332Z</time></trkpt><trkpt lat="45.96415" lon="11.729082"><ele>768.0</ele><time>2026-04-04T15:50:31.331Z</time></trkpt><trkpt lat="45.964193" lon="11.7291944"><ele>767.3333333333334</ele><time>2026-04-04T15:50:32.332Z</time></trkpt><trkpt lat="45.9642362" lon="11.7293014"><ele>766.6666666666667</ele><time>2026-04-04T15:50:33.33Z</time></trkpt><trkpt lat="45.9642689" lon="11.7293956"><ele>766.0</ele><time>2026-04-04T15:50:34.331Z</time></trkpt><trkpt lat="45.9642969" lon="11.7295237"><ele>761.3333333333334</ele><time>2026-04-04T15:50:36.332Z</time></trkpt><trkpt lat="45.9642447" lon="11.7296324"><ele>756.6666666666667</ele><time>2026-04-04T15:50:38.331Z</time></trkpt><trkpt lat="45.9642131" lon="11.729727"><ele>752.0</ele><time>2026-04-04T15:50:40.332Z</time></trkpt><trkpt lat="45.9642973" lon="11.7298149"><ele>747.3333333333334</ele><time>2026-04-04T15:50:43.331Z</time></trkpt><trkpt lat="45.96437" lon="11.7299042"><ele>742.6666666666666</ele><time>2026-04-04T15:50:45.331Z</time></trkpt><trkpt lat="45.9643624" lon="11.730008"><ele>738.0</ele><time>2026-04-04T15:50:47.331Z</time></trkpt><trkpt lat="45.9642931" lon="11.7301325"><ele>735.5999999999999</ele><time>2026-04-04T15:50:49.332Z</time></trkpt><trkpt lat="45.9642028" lon="11.7302482"><ele>733.1999999999999</ele><time>2026-04-04T15:50:51.332Z</time></trkpt><trkpt lat="45.9641332" lon="11.7303747"><ele>730.8</ele><time>2026-04-04T15:50:53.332Z</time></trkpt><trkpt lat="45.9641236" lon="11.7304793"><ele>728.4</ele><time>2026-04-04T15:50:54.331Z</time></trkpt><trkpt lat="45.9641554" lon="11.7306189"><ele>726.0</ele><time>2026-04-04T15:50:55.331Z</time></trkpt><trkpt lat="45.9641906" lon="11.7307565"><ele>726.0</ele><time>2026-04-04T15:50:56.332Z</time></trkpt><trkpt lat="45.9642247" lon="11.7308796"><ele>726.0</ele><time>2026-04-04T15:50:57.331Z</time></trkpt><trkpt lat="45.964255" lon="11.7309921"><ele>726.0</ele><time>2026-04-04T15:50:58.331Z</time></trkpt><trkpt lat="45.9642828" lon="11.7310926"><ele>726.0</ele><time>2026-04-04T15:50:59.331Z</time></trkpt><trkpt lat="45.9643154" lon="11.7311843"><ele>726.0</ele><time>2026-04-04T15:51:00.332Z</time></trkpt><trkpt lat="45.9643801" lon="11.7313141"><ele>726.0</ele><time>2026-04-04T15:51:02.332Z</time></trkpt><trkpt lat="45.9644283" lon="11.7314649"><ele>723.8333333333334</ele><time>2026-04-04T15:51:04.331Z</time></trkpt><trkpt lat="45.9644421" lon="11.7316146"><ele>721.6666666666666</ele><time>2026-04-04T15:51:06.333Z</time></trkpt><trkpt lat="45.9644313" lon="11.731728"><ele>719.5</ele><time>2026-04-04T15:51:07.331Z</time></trkpt><trkpt lat="45.9644106" lon="11.7318388"><ele>717.3333333333333</ele><time>2026-04-04T15:51:08.331Z</time></trkpt><trkpt lat="45.9644011" lon="11.7319469"><ele>715.1666666666666</ele><time>2026-04-04T15:51:09.331Z</time></trkpt><trkpt lat="45.9643914" lon="11.7320394"><ele>713.0</ele><time>2026-04-04T15:51:10.332Z</time></trkpt><trkpt lat="45.9643658" lon="11.7321539"><ele>711.0</ele><time>2026-04-04T15:51:12.331Z</time></trkpt><trkpt lat="45.9643297" lon="11.732254"><ele>709.0</ele><time>2026-04-04T15:51:48.333Z</time></trkpt><trkpt lat="45.9642568" lon="11.7323633"><ele>707.0</ele><time>2026-04-04T15:51:50.332Z</time></trkpt><trkpt lat="45.9642058" lon="11.7324309"><ele>705.0</ele><time>2026-04-04T15:51:51.332Z</time></trkpt><trkpt lat="45.9641491" lon="11.732535"><ele>703.0</ele><time>2026-04-04T15:51:53.333Z</time></trkpt><trkpt lat="45.9640969" lon="11.7326439"><ele>701.0</ele><time>2026-04-04T15:51:55.333Z</time></trkpt><trkpt lat="45.9640611" lon="11.7327605"><ele>705.8333333333333</ele><time>2026-04-04T15:52:02.332Z</time></trkpt><trkpt lat="45.9640361" lon="11.7328521"><ele>710.6666666666666</ele><time>2026-04-04T15:52:07.332Z</time></trkpt><trkpt lat="45.9639951" lon="11.7329692"><ele>715.5</ele><time>2026-04-04T15:52:22.332Z</time></trkpt><trkpt lat="45.9639613" lon="11.7330634"><ele>720.3333333333334</ele><time>2026-04-04T15:52:23.333Z</time></trkpt><trkpt lat="45.9639257" lon="11.7331677"><ele>725.1666666666667</ele><time>2026-04-04T15:52:24.333Z</time></trkpt><trkpt lat="45.9638919" lon="11.7332592"><ele>730.0</ele><time>2026-04-04T15:52:25.332Z</time></trkpt><trkpt lat="45.9638567" lon="11.7333474"><ele>730.0</ele><time>2026-04-04T15:52:26.333Z</time></trkpt><trkpt lat="45.9638154" lon="11.7334356"><ele>730.0</ele><time>2026-04-04T15:52:27.333Z</time></trkpt><trkpt lat="45.9637732" lon="11.7335124"><ele>730.0</ele><time>2026-04-04T15:52:28.335Z</time></trkpt><trkpt lat="45.9637268" lon="11.7335839"><ele>730.0</ele><time>2026-04-04T15:52:29.332Z</time></trkpt><trkpt lat="45.9636719" lon="11.7336396"><ele>730.0</ele><time>2026-04-04T15:52:30.333Z</time></trkpt><trkpt lat="45.9635628" lon="11.7337024"><ele>730.0</ele><time>2026-04-04T15:52:32.333Z</time></trkpt><trkpt lat="45.9635062" lon="11.7337705"><ele>730.2</ele><time>2026-04-04T15:52:34.333Z</time></trkpt><trkpt lat="45.9634885" lon="11.7338656"><ele>730.4</ele><time>2026-04-04T15:52:36.333Z</time></trkpt><trkpt lat="45.9634612" lon="11.7339867"><ele>730.5999999999999</ele><time>2026-04-04T15:52:40.333Z</time></trkpt><trkpt lat="45.9633908" lon="11.7340796"><ele>730.8</ele><time>2026-04-04T15:52:42.333Z</time></trkpt><trkpt lat="45.9632904" lon="11.7341659"><ele>731.0</ele><time>2026-04-04T15:52:44.334Z</time></trkpt><trkpt lat="45.9632256" lon="11.7342547"><ele>726.4</ele><time>2026-04-04T15:52:46.334Z</time></trkpt><trkpt lat="45.9631302" lon="11.7343979"><ele>721.8</ele><time>2026-04-04T15:52:48.334Z</time></trkpt><trkpt lat="45.9630772" lon="11.7344945"><ele>717.1999999999999</ele><time>2026-04-04T15:52:49.334Z</time></trkpt><trkpt lat="45.9630259" lon="11.7345932"><ele>712.5999999999999</ele><time>2026-04-04T15:52:50.334Z</time></trkpt><trkpt lat="45.9629681" lon="11.7346849"><ele>708.0</ele><time>2026-04-04T15:52:51.333Z</time></trkpt><trkpt lat="45.962901" lon="11.7347605"><ele>708.0</ele><time>2026-04-04T15:52:52.333Z</time></trkpt><trkpt lat="45.9628286" lon="11.7348272"><ele>708.0</ele><time>2026-04-04T15:52:53.333Z</time></trkpt><trkpt lat="45.9627581" lon="11.7348906"><ele>708.0</ele><time>2026-04-04T15:52:54.333Z</time></trkpt><trkpt lat="45.9626954" lon="11.7349588"><ele>708.0</ele><time>2026-04-04T15:52:55.334Z</time></trkpt><trkpt lat="45.9626425" lon="11.7350348"><ele>708.0</ele><time>2026-04-04T15:52:56.333Z</time></trkpt><trkpt lat="45.9625818" lon="11.7351636"><ele>708.0</ele><time>2026-04-04T15:52:58.333Z</time></trkpt><trkpt lat="45.9625374" lon="11.7352462"><ele>706.5</ele><time>2026-04-04T15:52:59.333Z</time></trkpt><trkpt lat="45.9624838" lon="11.7353389"><ele>705.0</ele><time>2026-04-04T15:53:00.334Z</time></trkpt><trkpt lat="45.9624122" lon="11.7354232"><ele>703.5</ele><time>2026-04-04T15:53:02.333Z</time></trkpt><trkpt lat="45.9623333" lon="11.7354581"><ele>702.0</ele><time>2026-04-04T15:53:04.333Z</time></trkpt><trkpt lat="45.9622209" lon="11.7354506"><ele>700.5</ele><time>2026-04-04T15:53:15.334Z</time></trkpt><trkpt lat="45.9621572" lon="11.7354541"><ele>699.0</ele><time>2026-04-04T15:53:16.334Z</time></trkpt><trkpt lat="45.9620927" lon="11.7354817"><ele>699.0</ele><time>2026-04-04T15:53:17.334Z</time></trkpt><trkpt lat="45.9620275" lon="11.7355586"><ele>699.0</ele><time>2026-04-04T15:53:19.333Z</time></trkpt><trkpt lat="45.9619964" lon="11.7356509"><ele>699.0</ele><time>2026-04-04T15:53:21.333Z</time></trkpt><trkpt lat="45.9619533" lon="11.7357716"><ele>699.0</ele><time>2026-04-04T15:53:24.333Z</time></trkpt><trkpt lat="45.9618944" lon="11.7358715"><ele>699.0</ele><time>2026-04-04T15:53:26.333Z</time></trkpt><trkpt lat="45.9618586" lon="11.7359511"><ele>699.0</ele><time>2026-04-04T15:53:29.333Z</time></trkpt><trkpt lat="45.9618486" lon="11.7360527"><ele>693.8333333333334</ele><time>2026-04-04T15:53:32.334Z</time></trkpt><trkpt lat="45.9618873" lon="11.7361618"><ele>688.6666666666666</ele><time>2026-04-04T15:53:35.333Z</time></trkpt><trkpt lat="45.9618976" lon="11.7362635"><ele>683.5</ele><time>2026-04-04T15:53:37.333Z</time></trkpt><trkpt lat="45.9618926" lon="11.7363765"><ele>678.3333333333333</ele><time>2026-04-04T15:53:40.333Z</time></trkpt><trkpt lat="45.9619737" lon="11.7363771"><ele>673.1666666666666</ele><time>2026-04-04T15:53:48.334Z</time></trkpt><trkpt lat="45.9620463" lon="11.7363769"><ele>668.0</ele><time>2026-04-04T15:53:51.335Z</time></trkpt><trkpt lat="45.9621298" lon="11.7363668"><ele>668.0</ele><time>2026-04-04T15:53:55.335Z</time></trkpt><trkpt lat="45.9621942" lon="11.7363707"><ele>668.0</ele><time>2026-04-04T15:53:57.334Z</time></trkpt><trkpt lat="45.9622125" lon="11.7364835"><ele>668.0</ele><time>2026-04-04T15:54:01.334Z</time></trkpt><trkpt lat="45.9621875" lon="11.736607"><ele>668.0</ele><time>2026-04-04T15:54:03.335Z</time></trkpt><trkpt lat="45.9621558" lon="11.7367344"><ele>668.0</ele><time>2026-04-04T15:54:05.334Z</time></trkpt><trkpt lat="45.9621538" lon="11.7368392"><ele>668.0</ele><time>2026-04-04T15:54:07.334Z</time></trkpt><trkpt lat="45.962123" lon="11.7369601"><ele>661.6</ele><time>2026-04-04T15:54:09.334Z</time></trkpt><trkpt lat="45.962073" lon="11.7370742"><ele>655.1999999999999</ele><time>2026-04-04T15:54:11.335Z</time></trkpt><trkpt lat="45.9620391" lon="11.7372212"><ele>648.8</ele><time>2026-04-04T15:54:13.334Z</time></trkpt><trkpt lat="45.9620117" lon="11.7373535"><ele>642.4</ele><time>2026-04-04T15:54:15.334Z</time></trkpt><trkpt lat="45.9619826" lon="11.7374898"><ele>636.0</ele><time>2026-04-04T15:54:17.335Z</time></trkpt><trkpt lat="45.9620015" lon="11.737658"><ele>632.8333333333334</ele><time>2026-04-04T15:54:19.334Z</time></trkpt><trkpt lat="45.9620049" lon="11.7377519"><ele>629.6666666666666</ele><time>2026-04-04T15:54:20.334Z</time></trkpt><trkpt lat="45.9619727" lon="11.7378604"><ele>626.5</ele><time>2026-04-04T15:54:21.335Z</time></trkpt><trkpt lat="45.9619274" lon="11.7379594"><ele>623.3333333333333</ele><time>2026-04-04T15:54:22.335Z</time></trkpt><trkpt lat="45.9618834" lon="11.7380693"><ele>620.1666666666666</ele><time>2026-04-04T15:54:23.336Z</time></trkpt><trkpt lat="45.9618515" lon="11.7381492"><ele>617.0</ele><time>2026-04-04T15:54:24.334Z</time></trkpt><trkpt lat="45.9618186" lon="11.7382768"><ele>617.0</ele><time>2026-04-04T15:54:26.335Z</time></trkpt><trkpt lat="45.9618227" lon="11.7383793"><ele>617.0</ele><time>2026-04-04T15:54:30.334Z</time></trkpt><trkpt lat="45.9618961" lon="11.7383826"><ele>617.0</ele><time>2026-04-04T15:54:32.334Z</time></trkpt><trkpt lat="45.9619721" lon="11.7383625"><ele>617.0</ele><time>2026-04-04T15:54:34.334Z</time></trkpt><trkpt lat="45.9619759" lon="11.7384992"><ele>617.0</ele><time>2026-04-04T15:54:40.334Z</time></trkpt><trkpt lat="45.9620046" lon="11.7385847"><ele>617.0</ele><time>2026-04-04T15:54:43.334Z</time></trkpt><trkpt lat="45.9620762" lon="11.7385735"><ele>615.8333333333333</ele><time>2026-04-04T15:54:46.334Z</time></trkpt><trkpt lat="45.9620647" lon="11.7386915"><ele>614.6666666666666</ele><time>2026-04-04T15:54:49.336Z</time></trkpt><trkpt lat="45.962093" lon="11.738788"><ele>613.5</ele><time>2026-04-04T15:54:52.335Z</time></trkpt><trkpt lat="45.9621784" lon="11.7387376"><ele>612.3333333333334</ele><time>2026-04-04T15:54:54.335Z</time></trkpt><trkpt lat="45.9622335" lon="11.7386882"><ele>611.1666666666667</ele><time>2026-04-04T15:54:55.335Z</time></trkpt><trkpt lat="45.9623396" lon="11.7386305"><ele>610.0</ele><time>2026-04-04T15:54:57.335Z</time></trkpt><trkpt lat="45.9624512" lon="11.7386279"><ele>610.0</ele><time>2026-04-04T15:54:59.335Z</time></trkpt><trkpt lat="45.9625191" lon="11.738601"><ele>610.0</ele><time>2026-04-04T15:55:00.336Z</time></trkpt><trkpt lat="45.9625941" lon="11.7385816"><ele>610.0</ele><time>2026-04-04T15:55:02.336Z</time></trkpt><trkpt lat="45.9625847" lon="11.7386774"><ele>610.0</ele><time>2026-04-04T15:55:05.335Z</time></trkpt><trkpt lat="45.9625256" lon="11.7387803"><ele>610.0</ele><time>2026-04-04T15:55:07.335Z</time></trkpt><trkpt lat="45.9624692" lon="11.7388369"><ele>610.0</ele><time>2026-04-04T15:55:14.336Z</time></trkpt><trkpt lat="45.9624035" lon="11.7389463"><ele>610.0</ele><time>2026-04-04T15:55:16.335Z</time></trkpt><trkpt lat="45.9623244" lon="11.739073"><ele>610.0</ele><time>2026-04-04T15:55:18.335Z</time></trkpt><trkpt lat="45.9622478" lon="11.7392005"><ele>610.0</ele><time>2026-04-04T15:55:20.335Z</time></trkpt><trkpt lat="45.9622153" lon="11.7392833"><ele>610.0</ele><time>2026-04-04T15:55:21.336Z</time></trkpt><trkpt lat="45.9621867" lon="11.7393744"><ele>610.0</ele><time>2026-04-04T15:55:22.336Z</time></trkpt><trkpt lat="45.9621538" lon="11.7394615"><ele>610.0</ele><time>2026-04-04T15:55:23.336Z</time></trkpt><trkpt lat="45.9621142" lon="11.7395543"><ele>611.6666666666667</ele><time>2026-04-04T15:55:24.336Z</time></trkpt><trkpt lat="45.9620679" lon="11.7396488"><ele>613.3333333333334</ele><time>2026-04-04T15:55:25.336Z</time></trkpt><trkpt lat="45.9620233" lon="11.7397489"><ele>615.0</ele><time>2026-04-04T15:55:26.336Z</time></trkpt><trkpt lat="45.9619754" lon="11.7398404"><ele>616.6666666666666</ele><time>2026-04-04T15:55:27.335Z</time></trkpt><trkpt lat="45.9619201" lon="11.73993"><ele>618.3333333333333</ele><time>2026-04-04T15:55:28.336Z</time></trkpt><trkpt lat="45.9618618" lon="11.7400071"><ele>620.0</ele><time>2026-04-04T15:55:29.336Z</time></trkpt><trkpt lat="45.9618034" lon="11.7400684"><ele>620.0</ele><time>2026-04-04T15:55:30.335Z</time></trkpt><trkpt lat="45.9617561" lon="11.7401347"><ele>620.0</ele><time>2026-04-04T15:55:31.336Z</time></trkpt><trkpt lat="45.9617201" lon="11.7402129"><ele>620.0</ele><time>2026-04-04T15:55:32.335Z</time></trkpt><trkpt lat="45.9616909" lon="11.7403071"><ele>620.0</ele><time>2026-04-04T15:55:33.336Z</time></trkpt><trkpt lat="45.961655" lon="11.7404225"><ele>620.0</ele><time>2026-04-04T15:55:34.337Z</time></trkpt><trkpt lat="45.9616208" lon="11.740535"><ele>620.0</ele><time>2026-04-04T15:55:35.336Z</time></trkpt><trkpt lat="45.9615843" lon="11.740629"><ele>613.6666666666666</ele><time>2026-04-04T15:55:36.336Z</time></trkpt><trkpt lat="45.9615472" lon="11.7407297"><ele>607.3333333333333</ele><time>2026-04-04T15:55:37.336Z</time></trkpt><trkpt lat="45.9615027" lon="11.7408386"><ele>601.0</ele><time>2026-04-04T15:55:38.335Z</time></trkpt><trkpt lat="45.9614558" lon="11.7409514"><ele>594.6666666666666</ele><time>2026-04-04T15:55:39.336Z</time></trkpt><trkpt lat="45.9614139" lon="11.741064"><ele>588.3333333333334</ele><time>2026-04-04T15:55:40.335Z</time></trkpt><trkpt lat="45.9613725" lon="11.741168"><ele>582.0</ele><time>2026-04-04T15:55:41.335Z</time></trkpt><trkpt lat="45.9613289" lon="11.7412641"><ele>582.0</ele><time>2026-04-04T15:55:42.336Z</time></trkpt><trkpt lat="45.9612817" lon="11.7413459"><ele>582.0</ele><time>2026-04-04T15:55:43.335Z</time></trkpt><trkpt lat="45.9612325" lon="11.7414274"><ele>582.0</ele><time>2026-04-04T15:55:44.335Z</time></trkpt><trkpt lat="45.9611811" lon="11.7414958"><ele>582.0</ele><time>2026-04-04T15:55:45.335Z</time></trkpt><trkpt lat="45.9611382" lon="11.7415651"><ele>582.0</ele><time>2026-04-04T15:55:46.335Z</time></trkpt><trkpt lat="45.9610888" lon="11.7417211"><ele>582.0</ele><time>2026-04-04T15:55:48.335Z</time></trkpt><trkpt lat="45.961079" lon="11.7418118"><ele>581.2857142857142</ele><time>2026-04-04T15:55:49.335Z</time></trkpt><trkpt lat="45.9610771" lon="11.7419095"><ele>580.5714285714286</ele><time>2026-04-04T15:55:50.336Z</time></trkpt><trkpt lat="45.9610868" lon="11.7420142"><ele>579.8571428571429</ele><time>2026-04-04T15:55:51.335Z</time></trkpt><trkpt lat="45.9611019" lon="11.7421268"><ele>579.1428571428571</ele><time>2026-04-04T15:55:52.336Z</time></trkpt><trkpt lat="45.9611095" lon="11.7422218"><ele>578.4285714285714</ele><time>2026-04-04T15:55:53.336Z</time></trkpt><trkpt lat="45.9611184" lon="11.7423152"><ele>577.7142857142857</ele><time>2026-04-04T15:55:54.336Z</time></trkpt><trkpt lat="45.9611317" lon="11.7424114"><ele>577.0</ele><time>2026-04-04T15:55:55.336Z</time></trkpt><trkpt lat="45.9611375" lon="11.7425063"><ele>577.0</ele><time>2026-04-04T15:55:56.337Z</time></trkpt><trkpt lat="45.9611454" lon="11.7426258"><ele>577.0</ele><time>2026-04-04T15:55:57.336Z</time></trkpt><trkpt lat="45.9611408" lon="11.742738"><ele>577.0</ele><time>2026-04-04T15:55:58.336Z</time></trkpt><trkpt lat="45.9611372" lon="11.7428709"><ele>577.0</ele><time>2026-04-04T15:55:59.337Z</time></trkpt><trkpt lat="45.961132" lon="11.7429964"><ele>577.0</ele><time>2026-04-04T15:56:00.336Z</time></trkpt><trkpt lat="45.961124" lon="11.7431257"><ele>577.0</ele><time>2026-04-04T15:56:01.336Z</time></trkpt><trkpt lat="45.9611122" lon="11.7432471"><ele>576.0</ele><time>2026-04-04T15:56:02.337Z</time></trkpt><trkpt lat="45.9611046" lon="11.74336"><ele>575.0</ele><time>2026-04-04T15:56:03.336Z</time></trkpt><trkpt lat="45.9610902" lon="11.7435355"><ele>574.0</ele><time>2026-04-04T15:56:05.336Z</time></trkpt><trkpt lat="45.9610778" lon="11.7436989"><ele>573.0</ele><time>2026-04-04T15:56:07.336Z</time></trkpt><trkpt lat="45.9610856" lon="11.7438696"><ele>572.0</ele><time>2026-04-04T15:56:09.337Z</time></trkpt><trkpt lat="45.9610921" lon="11.7439616"><ele>570.8000000000001</ele><time>2026-04-04T15:56:10.337Z</time></trkpt><trkpt lat="45.9611019" lon="11.7440553"><ele>569.6</ele><time>2026-04-04T15:56:11.336Z</time></trkpt><trkpt lat="45.9611234" lon="11.7442261"><ele>568.4000000000001</ele><time>2026-04-04T15:56:13.336Z</time></trkpt><trkpt lat="45.9611018" lon="11.7443923"><ele>567.2</ele><time>2026-04-04T15:56:15.336Z</time></trkpt><trkpt lat="45.9610387" lon="11.7445423"><ele>566.0</ele><time>2026-04-04T15:56:17.337Z</time></trkpt><trkpt lat="45.9609999" lon="11.7446156"><ele>565.1666666666666</ele><time>2026-04-04T15:56:18.337Z</time></trkpt><trkpt lat="45.9609622" lon="11.7446916"><ele>564.3333333333333</ele><time>2026-04-04T15:56:19.336Z</time></trkpt><trkpt lat="45.96092" lon="11.7447644"><ele>563.5</ele><time>2026-04-04T15:56:20.337Z</time></trkpt><trkpt lat="45.9608519" lon="11.7448934"><ele>562.6666666666666</ele><time>2026-04-04T15:56:22.336Z</time></trkpt><trkpt lat="45.9608117" lon="11.7450673"><ele>561.8333333333334</ele><time>2026-04-04T15:56:24.337Z</time></trkpt><trkpt lat="45.9607875" lon="11.7451634"><ele>561.0</ele><time>2026-04-04T15:56:25.336Z</time></trkpt><trkpt lat="45.9607525" lon="11.745244"><ele>550.8</ele><time>2026-04-04T15:56:26.336Z</time></trkpt><trkpt lat="45.9606858" lon="11.7453872"><ele>540.6</ele><time>2026-04-04T15:56:28.336Z</time></trkpt><trkpt lat="45.9606584" lon="11.7455722"><ele>530.4</ele><time>2026-04-04T15:56:30.337Z</time></trkpt><trkpt lat="45.9606533" lon="11.7456733"><ele>520.2</ele><time>2026-04-04T15:56:31.337Z</time></trkpt><trkpt lat="45.9606271" lon="11.7458455"><ele>510.0</ele><time>2026-04-04T15:56:33.336Z</time></trkpt><trkpt lat="45.9605678" lon="11.7459943"><ele>510.4</ele><time>2026-04-04T15:56:35.337Z</time></trkpt><trkpt lat="45.9605443" lon="11.746112"><ele>510.8</ele><time>2026-04-04T15:56:37.336Z</time></trkpt><trkpt lat="45.9605426" lon="11.7462546"><ele>511.20000000000005</ele><time>2026-04-04T15:56:39.336Z</time></trkpt><trkpt lat="45.9605126" lon="11.7464103"><ele>511.6</ele><time>2026-04-04T15:56:41.336Z</time></trkpt><trkpt lat="45.9604421" lon="11.7465439"><ele>512.0</ele><time>2026-04-04T15:56:43.338Z</time></trkpt><trkpt lat="45.9603751" lon="11.7466695"><ele>512.0</ele><time>2026-04-04T15:56:45.336Z</time></trkpt><trkpt lat="45.9603145" lon="11.7467968"><ele>512.0</ele><time>2026-04-04T15:56:47.336Z</time></trkpt><trkpt lat="45.9602614" lon="11.7469072"><ele>512.0</ele><time>2026-04-04T15:56:49.336Z</time></trkpt><trkpt lat="45.9602351" lon="11.7470121"><ele>512.0</ele><time>2026-04-04T15:56:51.336Z</time></trkpt><trkpt lat="45.9602332" lon="11.747156"><ele>512.0</ele><time>2026-04-04T15:56:53.338Z</time></trkpt><trkpt lat="45.9602485" lon="11.7473108"><ele>511.6</ele><time>2026-04-04T15:56:55.338Z</time></trkpt><trkpt lat="45.9602427" lon="11.7474766"><ele>511.20000000000005</ele><time>2026-04-04T15:56:57.338Z</time></trkpt><trkpt lat="45.9602127" lon="11.7476475"><ele>510.8</ele><time>2026-04-04T15:56:59.337Z</time></trkpt><trkpt lat="45.9601723" lon="11.7478173"><ele>510.4</ele><time>2026-04-04T15:57:01.337Z</time></trkpt><trkpt lat="45.9601446" lon="11.7479007"><ele>510.0</ele><time>2026-04-04T15:57:02.337Z</time></trkpt><trkpt lat="45.9601168" lon="11.7479917"><ele>509.5</ele><time>2026-04-04T15:57:03.337Z</time></trkpt><trkpt lat="45.9600925" lon="11.7481446"><ele>509.0</ele><time>2026-04-04T15:57:05.337Z</time></trkpt><trkpt lat="45.9600774" lon="11.7483094"><ele>508.5</ele><time>2026-04-04T15:57:07.337Z</time></trkpt><trkpt lat="45.9600613" lon="11.7484783"><ele>508.0</ele><time>2026-04-04T15:57:09.338Z</time></trkpt><trkpt lat="45.960038" lon="11.7486287"><ele>496.4</ele><time>2026-04-04T15:57:11.338Z</time></trkpt><trkpt lat="45.9600166" lon="11.7487883"><ele>484.79999999999995</ele><time>2026-04-04T15:57:13.337Z</time></trkpt><trkpt lat="45.9599962" lon="11.7489515"><ele>473.2</ele><time>2026-04-04T15:57:15.337Z</time></trkpt><trkpt lat="45.9599572" lon="11.7490881"><ele>461.6</ele><time>2026-04-04T15:57:17.338Z</time></trkpt><trkpt lat="45.9598999" lon="11.7492211"><ele>450.0</ele><time>2026-04-04T15:57:19.338Z</time></trkpt><trkpt lat="45.959848" lon="11.7493728"><ele>447.8</ele><time>2026-04-04T15:57:21.338Z</time></trkpt><trkpt lat="45.9597957" lon="11.7495009"><ele>445.6</ele><time>2026-04-04T15:57:23.337Z</time></trkpt><trkpt lat="45.9597265" lon="11.7496218"><ele>443.4</ele><time>2026-04-04T15:57:25.338Z</time></trkpt><trkpt lat="45.9596485" lon="11.7497447"><ele>441.2</ele><time>2026-04-04T15:57:27.338Z</time></trkpt><trkpt lat="45.959591" lon="11.7498129"><ele>439.0</ele><time>2026-04-04T15:57:29.338Z</time></trkpt><trkpt lat="45.959529" lon="11.7498825"><ele>439.0</ele><time>2026-04-04T15:57:32.337Z</time></trkpt><trkpt lat="45.959525" lon="11.7499844"><ele>439.0</ele><time>2026-04-04T15:57:34.338Z</time></trkpt><trkpt lat="45.9595608" lon="11.7500922"><ele>439.0</ele><time>2026-04-04T15:57:35.337Z</time></trkpt><trkpt lat="45.9595986" lon="11.7501839"><ele>439.0</ele><time>2026-04-04T15:57:36.338Z</time></trkpt><trkpt lat="45.9596491" lon="11.7503337"><ele>439.0</ele><time>2026-04-04T15:57:38.337Z</time></trkpt><trkpt lat="45.95968" lon="11.7504822"><ele>434.85714285714283</ele><time>2026-04-04T15:57:40.339Z</time></trkpt><trkpt lat="45.9597059" lon="11.7506481"><ele>430.71428571428567</ele><time>2026-04-04T15:57:42.338Z</time></trkpt><trkpt lat="45.9597159" lon="11.7507414"><ele>426.57142857142856</ele><time>2026-04-04T15:57:43.337Z</time></trkpt><trkpt lat="45.9597343" lon="11.7508334"><ele>422.42857142857144</ele><time>2026-04-04T15:57:44.338Z</time></trkpt><trkpt lat="45.9597522" lon="11.7509256"><ele>418.2857142857143</ele><time>2026-04-04T15:57:45.339Z</time></trkpt><trkpt lat="45.9597684" lon="11.7510163"><ele>414.14285714285717</ele><time>2026-04-04T15:57:46.338Z</time></trkpt><trkpt lat="45.9597957" lon="11.7510986"><ele>410.0</ele><time>2026-04-04T15:57:47.338Z</time></trkpt><trkpt lat="45.9598321" lon="11.7511828"><ele>412.66666666666663</ele><time>2026-04-04T15:57:48.339Z</time></trkpt><trkpt lat="45.9598703" lon="11.7512701"><ele>415.3333333333333</ele><time>2026-04-04T15:57:49.338Z</time></trkpt><trkpt lat="45.959908" lon="11.7513546"><ele>418.0</ele><time>2026-04-04T15:57:50.339Z</time></trkpt><trkpt lat="45.9599466" lon="11.7514378"><ele>420.66666666666663</ele><time>2026-04-04T15:57:51.338Z</time></trkpt><trkpt lat="45.9599932" lon="11.7515743"><ele>423.3333333333333</ele><time>2026-04-04T15:57:53.338Z</time></trkpt><trkpt lat="45.9600114" lon="11.7516639"><ele>426.0</ele><time>2026-04-04T15:57:54.338Z</time></trkpt><trkpt lat="45.9600425" lon="11.7517529"><ele>426.0</ele><time>2026-04-04T15:57:55.337Z</time></trkpt><trkpt lat="45.9600711" lon="11.7518354"><ele>426.0</ele><time>2026-04-04T15:57:56.338Z</time></trkpt><trkpt lat="45.960097" lon="11.7519322"><ele>426.0</ele><time>2026-04-04T15:57:57.339Z</time></trkpt><trkpt lat="45.9601152" lon="11.752027"><ele>426.0</ele><time>2026-04-04T15:57:58.339Z</time></trkpt><trkpt lat="45.9601278" lon="11.7521167"><ele>426.0</ele><time>2026-04-04T15:57:59.338Z</time></trkpt><trkpt lat="45.9601721" lon="11.752287"><ele>426.0</ele><time>2026-04-04T15:58:01.339Z</time></trkpt><trkpt lat="45.960227" lon="11.7524461"><ele>420.1428571428571</ele><time>2026-04-04T15:58:03.339Z</time></trkpt><trkpt lat="45.9602632" lon="11.7525272"><ele>414.2857142857143</ele><time>2026-04-04T15:58:04.339Z</time></trkpt><trkpt lat="45.9603085" lon="11.7526014"><ele>408.42857142857144</ele><time>2026-04-04T15:58:05.339Z</time></trkpt><trkpt lat="45.9603495" lon="11.7526782"><ele>402.57142857142856</ele><time>2026-04-04T15:58:06.339Z</time></trkpt><trkpt lat="45.9603929" lon="11.7527681"><ele>396.7142857142857</ele><time>2026-04-04T15:58:07.338Z</time></trkpt><trkpt lat="45.9604409" lon="11.7528711"><ele>390.85714285714283</ele><time>2026-04-04T15:58:08.339Z</time></trkpt><trkpt lat="45.9604864" lon="11.7529731"><ele>385.0</ele><time>2026-04-04T15:58:09.339Z</time></trkpt><trkpt lat="45.9605285" lon="11.7530809"><ele>377.0</ele><time>2026-04-04T15:58:10.338Z</time></trkpt><trkpt lat="45.9605728" lon="11.7531932"><ele>369.0</ele><time>2026-04-04T15:58:11.339Z</time></trkpt><trkpt lat="45.9606137" lon="11.7533106"><ele>361.0</ele><time>2026-04-04T15:58:12.338Z</time></trkpt><trkpt lat="45.9606571" lon="11.7534277"><ele>353.0</ele><time>2026-04-04T15:58:13.339Z</time></trkpt><trkpt lat="45.9607014" lon="11.7535392"><ele>345.0</ele><time>2026-04-04T15:58:14.338Z</time></trkpt><trkpt lat="45.9607479" lon="11.7536586"><ele>344.3333333333333</ele><time>2026-04-04T15:58:15.339Z</time></trkpt><trkpt lat="45.9607938" lon="11.7537726"><ele>343.6666666666667</ele><time>2026-04-04T15:58:16.339Z</time></trkpt><trkpt lat="45.9608392" lon="11.7538798"><ele>343.0</ele><time>2026-04-04T15:58:17.339Z</time></trkpt><trkpt lat="45.9608808" lon="11.7539749"><ele>342.33333333333337</ele><time>2026-04-04T15:58:18.339Z</time></trkpt><trkpt lat="45.9609309" lon="11.7541246"><ele>341.6666666666667</ele><time>2026-04-04T15:58:20.338Z</time></trkpt><trkpt lat="45.9609727" lon="11.7542131"><ele>341.0</ele><time>2026-04-04T15:58:21.338Z</time></trkpt><trkpt lat="45.9610204" lon="11.7543102"><ele>334.5</ele><time>2026-04-04T15:58:22.338Z</time></trkpt><trkpt lat="45.9610722" lon="11.7544044"><ele>328.0</ele><time>2026-04-04T15:58:23.339Z</time></trkpt><trkpt lat="45.9611188" lon="11.7544935"><ele>321.5</ele><time>2026-04-04T15:58:24.338Z</time></trkpt><trkpt lat="45.9611658" lon="11.7545889"><ele>315.0</ele><time>2026-04-04T15:58:25.339Z</time></trkpt><trkpt lat="45.9612196" lon="11.75468"><ele>308.5</ele><time>2026-04-04T15:58:26.338Z</time></trkpt><trkpt lat="45.9612748" lon="11.7547685"><ele>302.0</ele><time>2026-04-04T15:58:27.339Z</time></trkpt><trkpt lat="45.9613249" lon="11.7548589"><ele>302.0</ele><time>2026-04-04T15:58:28.338Z</time></trkpt><trkpt lat="45.9613794" lon="11.7549493"><ele>302.0</ele><time>2026-04-04T15:58:29.338Z</time></trkpt><trkpt lat="45.9614331" lon="11.7550268"><ele>302.0</ele><time>2026-04-04T15:58:30.339Z</time></trkpt><trkpt lat="45.9614841" lon="11.7551014"><ele>302.0</ele><time>2026-04-04T15:58:31.338Z</time></trkpt><trkpt lat="45.9615408" lon="11.7551745"><ele>302.0</ele><time>2026-04-04T15:58:32.339Z</time></trkpt><trkpt lat="45.9616103" lon="11.7552429"><ele>302.0</ele><time>2026-04-04T15:58:33.34Z</time></trkpt><trkpt lat="45.96167" lon="11.7553121"><ele>299.83333333333337</ele><time>2026-04-04T15:58:34.339Z</time></trkpt><trkpt lat="45.9617453" lon="11.755405"><ele>297.6666666666667</ele><time>2026-04-04T15:58:36.338Z</time></trkpt><trkpt lat="45.96178" lon="11.755483"><ele>295.5</ele><time>2026-04-04T15:58:37.339Z</time></trkpt><trkpt lat="45.9618157" lon="11.7555685"><ele>293.3333333333333</ele><time>2026-04-04T15:58:38.338Z</time></trkpt><trkpt lat="45.9618662" lon="11.7556707"><ele>291.16666666666663</ele><time>2026-04-04T15:58:39.338Z</time></trkpt><trkpt lat="45.9619232" lon="11.755757"><ele>289.0</ele><time>2026-04-04T15:58:40.339Z</time></trkpt><trkpt lat="45.9619633" lon="11.7558295"><ele>289.0</ele><time>2026-04-04T15:58:41.339Z</time></trkpt><trkpt lat="45.9619978" lon="11.7559073"><ele>289.0</ele><time>2026-04-04T15:58:44.339Z</time></trkpt><trkpt lat="45.9619034" lon="11.7558632"><ele>289.0</ele><time>2026-04-04T15:58:52.338Z</time></trkpt><trkpt lat="45.9618429" lon="11.7558008"><ele>289.0</ele><time>2026-04-04T15:58:53.34Z</time></trkpt><trkpt lat="45.9617707" lon="11.7557336"><ele>289.0</ele><time>2026-04-04T15:58:54.339Z</time></trkpt><trkpt lat="45.961699" lon="11.7556793"><ele>289.0</ele><time>2026-04-04T15:58:55.34Z</time></trkpt><trkpt lat="45.9616232" lon="11.7556425"><ele>286.8333333333333</ele><time>2026-04-04T15:58:56.339Z</time></trkpt><trkpt lat="45.9615447" lon="11.7556151"><ele>284.66666666666663</ele><time>2026-04-04T15:58:57.339Z</time></trkpt><trkpt lat="45.9614631" lon="11.7555978"><ele>282.5</ele><time>2026-04-04T15:58:58.339Z</time></trkpt><trkpt lat="45.961386" lon="11.7555863"><ele>280.3333333333333</ele><time>2026-04-04T15:58:59.339Z</time></trkpt><trkpt lat="45.9613081" lon="11.7555704"><ele>278.1666666666667</ele><time>2026-04-04T15:59:00.339Z</time></trkpt><trkpt lat="45.9612323" lon="11.7555547"><ele>276.0</ele><time>2026-04-04T15:59:01.34Z</time></trkpt><trkpt lat="45.9611576" lon="11.7555392"><ele>276.0</ele><time>2026-04-04T15:59:02.34Z</time></trkpt><trkpt lat="45.9610837" lon="11.755522"><ele>276.0</ele><time>2026-04-04T15:59:03.339Z</time></trkpt><trkpt lat="45.961008" lon="11.7555035"><ele>276.0</ele><time>2026-04-04T15:59:04.34Z</time></trkpt><trkpt lat="45.9609252" lon="11.7554727"><ele>276.0</ele><time>2026-04-04T15:59:05.339Z</time></trkpt><trkpt lat="45.9608348" lon="11.7554309"><ele>276.0</ele><time>2026-04-04T15:59:06.339Z</time></trkpt><trkpt lat="45.9607384" lon="11.7553661"><ele>276.0</ele><time>2026-04-04T15:59:07.339Z</time></trkpt><trkpt lat="45.9606529" lon="11.7552872"><ele>277.40000000000003</ele><time>2026-04-04T15:59:08.339Z</time></trkpt><trkpt lat="45.9605827" lon="11.7551878"><ele>278.8</ele><time>2026-04-04T15:59:09.34Z</time></trkpt><trkpt lat="45.960526" lon="11.7550827"><ele>280.20000000000005</ele><time>2026-04-04T15:59:10.34Z</time></trkpt><trkpt lat="45.9604723" lon="11.75498"><ele>281.6</ele><time>2026-04-04T15:59:11.339Z</time></trkpt><trkpt lat="45.960411" lon="11.7548742"><ele>283.0</ele><time>2026-04-04T15:59:12.339Z</time></trkpt><trkpt lat="45.9603456" lon="11.7547667"><ele>283.0</ele><time>2026-04-04T15:59:13.34Z</time></trkpt><trkpt lat="45.9602812" lon="11.7546533"><ele>283.0</ele><time>2026-04-04T15:59:14.339Z</time></trkpt><trkpt lat="45.9602055" lon="11.7545211"><ele>283.0</ele><time>2026-04-04T15:59:15.34Z</time></trkpt><trkpt lat="45.9601148" lon="11.7543731"><ele>283.0</ele><time>2026-04-04T15:59:16.339Z</time></trkpt><trkpt lat="45.9600369" lon="11.7542395"><ele>282.6</ele><time>2026-04-04T15:59:17.339Z</time></trkpt><trkpt lat="45.9599757" lon="11.754137"><ele>282.20000000000005</ele><time>2026-04-04T15:59:18.34Z</time></trkpt><trkpt lat="45.9599211" lon="11.7540658"><ele>281.8</ele><time>2026-04-04T15:59:19.339Z</time></trkpt><trkpt lat="45.9598074" lon="11.7540304"><ele>281.40000000000003</ele><time>2026-04-04T15:59:21.339Z</time></trkpt><trkpt lat="45.9596849" lon="11.7539974"><ele>281.0</ele><time>2026-04-04T15:59:23.339Z</time></trkpt><trkpt lat="45.9596176" lon="11.7539695"><ele>281.0</ele><time>2026-04-04T15:59:24.34Z</time></trkpt><trkpt lat="45.9595515" lon="11.7539549"><ele>281.0</ele><time>2026-04-04T15:59:25.339Z</time></trkpt><trkpt lat="45.9594656" lon="11.7540067"><ele>281.0</ele><time>2026-04-04T15:59:27.339Z</time></trkpt><trkpt lat="45.9594522" lon="11.7541343"><ele>281.0</ele><time>2026-04-04T15:59:29.34Z</time></trkpt><trkpt lat="45.9594497" lon="11.7542673"><ele>281.0</ele><time>2026-04-04T15:59:31.34Z</time></trkpt><trkpt lat="45.9594925" lon="11.7542007"><ele>281.0</ele><time>2026-04-04T16:10:42.483Z</time></trkpt><trkpt lat="45.9594299" lon="11.7542661"><ele>281.0</ele><time>2026-04-04T16:11:01.391Z</time></trkpt><trkpt lat="45.9594879" lon="11.75422"><ele>281.0</ele><time>2026-04-04T16:24:02.487Z</time></trkpt><trkpt lat="45.9594626" lon="11.7543065"><ele>281.0</ele><time>2026-04-04T16:24:06.429Z</time></trkpt><trkpt lat="45.9595961" lon="11.7541849"><ele>281.0</ele><time>2026-04-04T16:24:09.443Z</time></trkpt><trkpt lat="45.9597149" lon="11.7540781"><ele>281.0</ele><time>2026-04-04T16:24:10.487Z</time></trkpt><trkpt lat="45.9597836" lon="11.7540675"><ele>281.0</ele><time>2026-04-04T16:24:11.414Z</time></trkpt><trkpt lat="45.9598857" lon="11.7541005"><ele>281.0</ele><time>2026-04-04T16:24:13.385Z</time></trkpt><trkpt lat="45.9599569" lon="11.7541738"><ele>281.0</ele><time>2026-04-04T16:24:14.361Z</time></trkpt><trkpt lat="45.9600621" lon="11.7543092"><ele>281.0</ele><time>2026-04-04T16:24:15.362Z</time></trkpt><trkpt lat="45.9601892" lon="11.7545067"><ele>281.6666666666667</ele><time>2026-04-04T16:24:16.363Z</time></trkpt><trkpt lat="45.9603253" lon="11.7547308"><ele>282.3333333333333</ele><time>2026-04-04T16:24:17.362Z</time></trkpt><trkpt lat="45.9604649" lon="11.7549634"><ele>283.0</ele><time>2026-04-04T16:24:18.363Z</time></trkpt><trkpt lat="45.9605873" lon="11.7551658"><ele>281.25</ele><time>2026-04-04T16:24:19.362Z</time></trkpt><trkpt lat="45.9606894" lon="11.7553274"><ele>279.5</ele><time>2026-04-04T16:24:20.362Z</time></trkpt><trkpt lat="45.9607861" lon="11.7554541"><ele>277.75</ele><time>2026-04-04T16:24:21.363Z</time></trkpt><trkpt lat="45.9608906" lon="11.7555401"><ele>276.0</ele><time>2026-04-04T16:24:22.361Z</time></trkpt><trkpt lat="45.9609974" lon="11.7555946"><ele>276.0</ele><time>2026-04-04T16:24:23.363Z</time></trkpt><trkpt lat="45.9610975" lon="11.7556194"><ele>276.0</ele><time>2026-04-04T16:24:24.362Z</time></trkpt><trkpt lat="45.9611918" lon="11.7556297"><ele>276.0</ele><time>2026-04-04T16:24:25.363Z</time></trkpt><trkpt lat="45.9612798" lon="11.7556362"><ele>276.0</ele><time>2026-04-04T16:24:26.363Z</time></trkpt><trkpt lat="45.9613631" lon="11.7556418"><ele>276.0</ele><time>2026-04-04T16:24:27.362Z</time></trkpt><trkpt lat="45.9614418" lon="11.7556512"><ele>276.0</ele><time>2026-04-04T16:24:28.362Z</time></trkpt><trkpt lat="45.9615166" lon="11.7556602"><ele>276.0</ele><time>2026-04-04T16:24:29.362Z</time></trkpt><trkpt lat="45.9615933" lon="11.7556771"><ele>276.0</ele><time>2026-04-04T16:24:30.363Z</time></trkpt><trkpt lat="45.9616734" lon="11.7556994"><ele>276.0</ele><time>2026-04-04T16:24:31.363Z</time></trkpt><trkpt lat="45.9617559" lon="11.7557312"><ele>276.0</ele><time>2026-04-04T16:24:32.362Z</time></trkpt><trkpt lat="45.9618342" lon="11.7557779"><ele>276.0</ele><time>2026-04-04T16:24:33.363Z</time></trkpt><trkpt lat="45.9619175" lon="11.7558533"><ele>276.0</ele><time>2026-04-04T16:24:34.362Z</time></trkpt><trkpt lat="45.9619974" lon="11.7559284"><ele>274.40000000000003</ele><time>2026-04-04T16:24:35.363Z</time></trkpt><trkpt lat="45.962082" lon="11.7560059"><ele>272.8</ele><time>2026-04-04T16:24:36.362Z</time></trkpt><trkpt lat="45.9621646" lon="11.7560786"><ele>271.20000000000005</ele><time>2026-04-04T16:24:37.362Z</time></trkpt><trkpt lat="45.9622517" lon="11.7561451"><ele>269.6</ele><time>2026-04-04T16:24:38.363Z</time></trkpt><trkpt lat="45.9623433" lon="11.7562007"><ele>268.0</ele><time>2026-04-04T16:24:39.362Z</time></trkpt><trkpt lat="45.9624352" lon="11.7562436"><ele>268.0</ele><time>2026-04-04T16:24:40.362Z</time></trkpt><trkpt lat="45.9625266" lon="11.75627"><ele>268.0</ele><time>2026-04-04T16:24:41.363Z</time></trkpt><trkpt lat="45.9626173" lon="11.7562817"><ele>268.0</ele><time>2026-04-04T16:24:42.362Z</time></trkpt><trkpt lat="45.9627078" lon="11.7562885"><ele>268.0</ele><time>2026-04-04T16:24:43.363Z</time></trkpt><trkpt lat="45.962808" lon="11.7562987"><ele>268.0</ele><time>2026-04-04T16:24:44.362Z</time></trkpt><trkpt lat="45.9629114" lon="11.7563088"><ele>268.4</ele><time>2026-04-04T16:24:45.363Z</time></trkpt><trkpt lat="45.963019" lon="11.7563154"><ele>268.8</ele><time>2026-04-04T16:24:46.362Z</time></trkpt><trkpt lat="45.9631266" lon="11.7563186"><ele>269.2</ele><time>2026-04-04T16:24:47.363Z</time></trkpt><trkpt lat="45.9632286" lon="11.7563159"><ele>269.6</ele><time>2026-04-04T16:24:48.362Z</time></trkpt><trkpt lat="45.963332" lon="11.7563085"><ele>270.0</ele><time>2026-04-04T16:24:49.363Z</time></trkpt><trkpt lat="45.9634298" lon="11.7562948"><ele>270.0</ele><time>2026-04-04T16:24:50.363Z</time></trkpt><trkpt lat="45.9635272" lon="11.756287"><ele>270.0</ele><time>2026-04-04T16:24:51.362Z</time></trkpt><trkpt lat="45.9636268" lon="11.7562849"><ele>270.0</ele><time>2026-04-04T16:24:52.363Z</time></trkpt><trkpt lat="45.9637301" lon="11.7562795"><ele>270.0</ele><time>2026-04-04T16:24:53.362Z</time></trkpt><trkpt lat="45.9638275" lon="11.7562623"><ele>270.0</ele><time>2026-04-04T16:24:54.363Z</time></trkpt><trkpt lat="45.9639167" lon="11.7562355"><ele>270.0</ele><time>2026-04-04T16:24:55.362Z</time></trkpt><trkpt lat="45.9640017" lon="11.7561977"><ele>270.0</ele><time>2026-04-04T16:24:56.363Z</time></trkpt><trkpt lat="45.9640912" lon="11.7561593"><ele>270.0</ele><time>2026-04-04T16:24:57.364Z</time></trkpt><trkpt lat="45.9641845" lon="11.7561251"><ele>270.0</ele><time>2026-04-04T16:24:58.362Z</time></trkpt><trkpt lat="45.964285" lon="11.7560943"><ele>270.0</ele><time>2026-04-04T16:24:59.362Z</time></trkpt><trkpt lat="45.9643831" lon="11.7560642"><ele>272.2</ele><time>2026-04-04T16:25:00.362Z</time></trkpt><trkpt lat="45.9644811" lon="11.7560299"><ele>274.4</ele><time>2026-04-04T16:25:01.364Z</time></trkpt><trkpt lat="45.9645815" lon="11.7560037"><ele>276.6</ele><time>2026-04-04T16:25:02.362Z</time></trkpt><trkpt lat="45.9646856" lon="11.756016"><ele>278.8</ele><time>2026-04-04T16:25:03.362Z</time></trkpt><trkpt lat="45.9647838" lon="11.7560728"><ele>281.0</ele><time>2026-04-04T16:25:04.363Z</time></trkpt><trkpt lat="45.9648689" lon="11.7561724"><ele>281.0</ele><time>2026-04-04T16:25:05.364Z</time></trkpt><trkpt lat="45.9649455" lon="11.7562865"><ele>281.0</ele><time>2026-04-04T16:25:06.362Z</time></trkpt><trkpt lat="45.9650257" lon="11.7564051"><ele>281.0</ele><time>2026-04-04T16:25:07.362Z</time></trkpt><trkpt lat="45.9651054" lon="11.7565138"><ele>281.0</ele><time>2026-04-04T16:25:08.362Z</time></trkpt><trkpt lat="45.9651838" lon="11.7566095"><ele>281.0</ele><time>2026-04-04T16:25:09.362Z</time></trkpt><trkpt lat="45.9652574" lon="11.7567004"><ele>282.2</ele><time>2026-04-04T16:25:10.362Z</time></trkpt><trkpt lat="45.9653319" lon="11.7567935"><ele>283.40000000000003</ele><time>2026-04-04T16:25:11.362Z</time></trkpt><trkpt lat="45.9654191" lon="11.7569004"><ele>284.6</ele><time>2026-04-04T16:25:12.363Z</time></trkpt><trkpt lat="45.9655095" lon="11.7570063"><ele>285.8</ele><time>2026-04-04T16:25:13.363Z</time></trkpt><trkpt lat="45.9655964" lon="11.7571046"><ele>287.0</ele><time>2026-04-04T16:25:14.364Z</time></trkpt><trkpt lat="45.9656768" lon="11.7572033"><ele>287.0</ele><time>2026-04-04T16:25:15.362Z</time></trkpt><trkpt lat="45.9657542" lon="11.7573026"><ele>287.0</ele><time>2026-04-04T16:25:16.362Z</time></trkpt><trkpt lat="45.9658268" lon="11.7574041"><ele>287.0</ele><time>2026-04-04T16:25:17.364Z</time></trkpt><trkpt lat="45.9658931" lon="11.7575079"><ele>287.0</ele><time>2026-04-04T16:25:18.363Z</time></trkpt><trkpt lat="45.9659508" lon="11.7576163"><ele>287.0</ele><time>2026-04-04T16:25:19.364Z</time></trkpt><trkpt lat="45.9660037" lon="11.7577317"><ele>286.6</ele><time>2026-04-04T16:25:20.363Z</time></trkpt><trkpt lat="45.9660656" lon="11.7578405"><ele>286.2</ele><time>2026-04-04T16:25:21.363Z</time></trkpt><trkpt lat="45.9661455" lon="11.7579297"><ele>285.8</ele><time>2026-04-04T16:25:22.363Z</time></trkpt><trkpt lat="45.9662418" lon="11.7579875"><ele>285.4</ele><time>2026-04-04T16:25:23.363Z</time></trkpt><trkpt lat="45.9663576" lon="11.7580099"><ele>285.0</ele><time>2026-04-04T16:25:24.363Z</time></trkpt><trkpt lat="45.9664771" lon="11.7580112"><ele>285.0</ele><time>2026-04-04T16:25:25.363Z</time></trkpt><trkpt lat="45.9665967" lon="11.758011"><ele>285.0</ele><time>2026-04-04T16:25:26.363Z</time></trkpt><trkpt lat="45.9667079" lon="11.7580092"><ele>285.0</ele><time>2026-04-04T16:25:27.363Z</time></trkpt><trkpt lat="45.9668004" lon="11.7580103"><ele>285.0</ele><time>2026-04-04T16:25:28.363Z</time></trkpt><trkpt lat="45.9668825" lon="11.7580257"><ele>285.0</ele><time>2026-04-04T16:25:29.363Z</time></trkpt><trkpt lat="45.9669651" lon="11.7580731"><ele>287.5</ele><time>2026-04-04T16:25:30.363Z</time></trkpt><trkpt lat="45.9670595" lon="11.7581495"><ele>290.0</ele><time>2026-04-04T16:25:31.363Z</time></trkpt><trkpt lat="45.9671597" lon="11.7582481"><ele>292.5</ele><time>2026-04-04T16:25:32.364Z</time></trkpt><trkpt lat="45.9672598" lon="11.7583505"><ele>295.0</ele><time>2026-04-04T16:25:33.364Z</time></trkpt><trkpt lat="45.9673607" lon="11.7584439"><ele>295.0</ele><time>2026-04-04T16:25:34.364Z</time></trkpt><trkpt lat="45.9674656" lon="11.7585319"><ele>295.0</ele><time>2026-04-04T16:25:35.363Z</time></trkpt><trkpt lat="45.9675739" lon="11.7586236"><ele>295.0</ele><time>2026-04-04T16:25:36.364Z</time></trkpt><trkpt lat="45.9676835" lon="11.7587256"><ele>295.0</ele><time>2026-04-04T16:25:37.363Z</time></trkpt><trkpt lat="45.9677945" lon="11.7588295"><ele>295.75</ele><time>2026-04-04T16:25:38.363Z</time></trkpt><trkpt lat="45.9679061" lon="11.7589316"><ele>296.5</ele><time>2026-04-04T16:25:39.364Z</time></trkpt><trkpt lat="45.9680161" lon="11.7590239"><ele>297.25</ele><time>2026-04-04T16:25:40.364Z</time></trkpt><trkpt lat="45.9681247" lon="11.7591012"><ele>298.0</ele><time>2026-04-04T16:25:41.364Z</time></trkpt><trkpt lat="45.9682337" lon="11.7591513"><ele>298.0</ele><time>2026-04-04T16:25:42.363Z</time></trkpt><trkpt lat="45.9683474" lon="11.7591623"><ele>298.0</ele><time>2026-04-04T16:25:43.363Z</time></trkpt><trkpt lat="45.9684673" lon="11.759141"><ele>298.0</ele><time>2026-04-04T16:25:44.364Z</time></trkpt><trkpt lat="45.9685911" lon="11.7591062"><ele>298.0</ele><time>2026-04-04T16:25:45.363Z</time></trkpt><trkpt lat="45.9687152" lon="11.759047"><ele>298.5</ele><time>2026-04-04T16:25:46.364Z</time></trkpt><trkpt lat="45.9688414" lon="11.758965"><ele>299.0</ele><time>2026-04-04T16:25:47.364Z</time></trkpt><trkpt lat="45.9689623" lon="11.7588719"><ele>299.5</ele><time>2026-04-04T16:25:48.363Z</time></trkpt><trkpt lat="45.9690692" lon="11.7587787"><ele>300.0</ele><time>2026-04-04T16:25:49.364Z</time></trkpt><trkpt lat="45.9691672" lon="11.758694"><ele>298.8333333333333</ele><time>2026-04-04T16:25:50.364Z</time></trkpt><trkpt lat="45.9692486" lon="11.7586211"><ele>297.6666666666667</ele><time>2026-04-04T16:25:51.364Z</time></trkpt><trkpt lat="45.9693198" lon="11.7585597"><ele>296.5</ele><time>2026-04-04T16:25:52.364Z</time></trkpt><trkpt lat="45.9693844" lon="11.7585082"><ele>295.33333333333337</ele><time>2026-04-04T16:25:53.364Z</time></trkpt><trkpt lat="45.9694885" lon="11.7584569"><ele>294.1666666666667</ele><time>2026-04-04T16:25:55.364Z</time></trkpt><trkpt lat="45.9695596" lon="11.7584277"><ele>293.0</ele><time>2026-04-04T16:25:58.363Z</time></trkpt><trkpt lat="45.9696375" lon="11.7583463"><ele>293.0</ele><time>2026-04-04T16:26:01.363Z</time></trkpt><trkpt lat="45.9697275" lon="11.7583646"><ele>293.0</ele><time>2026-04-04T16:26:02.365Z</time></trkpt><trkpt lat="45.969836" lon="11.7583792"><ele>293.0</ele><time>2026-04-04T16:26:03.364Z</time></trkpt><trkpt lat="45.969975" lon="11.7583971"><ele>293.0</ele><time>2026-04-04T16:26:04.363Z</time></trkpt><trkpt lat="45.9701134" lon="11.7584247"><ele>292.33333333333337</ele><time>2026-04-04T16:26:05.365Z</time></trkpt><trkpt lat="45.9702126" lon="11.7584457"><ele>291.6666666666667</ele><time>2026-04-04T16:26:06.364Z</time></trkpt><trkpt lat="45.9702815" lon="11.7584559"><ele>291.0</ele><time>2026-04-04T16:26:07.363Z</time></trkpt><trkpt lat="45.9703411" lon="11.7583492"><ele>290.3333333333333</ele><time>2026-04-04T16:26:10.363Z</time></trkpt><trkpt lat="45.9703509" lon="11.7582472"><ele>289.66666666666663</ele><time>2026-04-04T16:26:11.364Z</time></trkpt><trkpt lat="45.9703869" lon="11.7581517"><ele>289.0</ele><time>2026-04-04T16:26:12.364Z</time></trkpt><trkpt lat="45.9704443" lon="11.7580747"><ele>289.0</ele><time>2026-04-04T16:26:13.364Z</time></trkpt><trkpt lat="45.9705114" lon="11.7579928"><ele>289.0</ele><time>2026-04-04T16:26:14.363Z</time></trkpt><trkpt lat="45.970581" lon="11.7579015"><ele>289.0</ele><time>2026-04-04T16:26:15.363Z</time></trkpt><trkpt lat="45.970647" lon="11.7577936"><ele>289.0</ele><time>2026-04-04T16:26:16.363Z</time></trkpt><trkpt lat="45.9707134" lon="11.7576781"><ele>289.0</ele><time>2026-04-04T16:26:17.364Z</time></trkpt><trkpt lat="45.9707792" lon="11.7575696"><ele>289.16666666666663</ele><time>2026-04-04T16:26:18.365Z</time></trkpt><trkpt lat="45.9708285" lon="11.7575079"><ele>289.3333333333333</ele><time>2026-04-04T16:26:19.365Z</time></trkpt><trkpt lat="45.9708907" lon="11.757473"><ele>289.5</ele><time>2026-04-04T16:26:21.363Z</time></trkpt><trkpt lat="45.9709419" lon="11.7575387"><ele>289.6666666666667</ele><time>2026-04-04T16:26:23.364Z</time></trkpt><trkpt lat="45.9710045" lon="11.7576484"><ele>289.83333333333337</ele><time>2026-04-04T16:26:25.364Z</time></trkpt><trkpt lat="45.9710654" lon="11.7577336"><ele>290.0</ele><time>2026-04-04T16:26:27.363Z</time></trkpt><trkpt lat="45.9711275" lon="11.757799"><ele>290.0</ele><time>2026-04-04T16:26:29.364Z</time></trkpt><trkpt lat="45.971193" lon="11.7578633"><ele>290.0</ele><time>2026-04-04T16:26:31.363Z</time></trkpt><trkpt lat="45.9712556" lon="11.7579347"><ele>290.0</ele><time>2026-04-04T16:26:33.364Z</time></trkpt><trkpt lat="45.9713269" lon="11.7580031"><ele>290.0</ele><time>2026-04-04T16:26:35.364Z</time></trkpt><trkpt lat="45.9714047" lon="11.7580602"><ele>290.0</ele><time>2026-04-04T16:26:37.364Z</time></trkpt><trkpt lat="45.971512" lon="11.7581352"><ele>290.0</ele><time>2026-04-04T16:26:39.364Z</time></trkpt><trkpt lat="45.9716371" lon="11.7581574"><ele>290.0</ele><time>2026-04-04T16:26:41.364Z</time></trkpt><trkpt lat="45.9717581" lon="11.7582057"><ele>290.0</ele><time>2026-04-04T16:26:43.365Z</time></trkpt><trkpt lat="45.9718326" lon="11.7582486"><ele>290.0</ele><time>2026-04-04T16:26:44.365Z</time></trkpt><trkpt lat="45.9719116" lon="11.7582952"><ele>290.0</ele><time>2026-04-04T16:26:45.365Z</time></trkpt><trkpt lat="45.9719993" lon="11.7583443"><ele>289.1666666666667</ele><time>2026-04-04T16:26:46.365Z</time></trkpt><trkpt lat="45.9720845" lon="11.7583913"><ele>288.33333333333337</ele><time>2026-04-04T16:26:47.365Z</time></trkpt><trkpt lat="45.9721596" lon="11.7584176"><ele>287.5</ele><time>2026-04-04T16:26:48.364Z</time></trkpt><trkpt lat="45.9722271" lon="11.7584291"><ele>286.6666666666667</ele><time>2026-04-04T16:26:49.364Z</time></trkpt><trkpt lat="45.972294" lon="11.758436"><ele>285.8333333333333</ele><time>2026-04-04T16:26:50.364Z</time></trkpt><trkpt lat="45.9723721" lon="11.7584513"><ele>285.0</ele><time>2026-04-04T16:26:51.365Z</time></trkpt><trkpt lat="45.9724857" lon="11.7584831"><ele>285.0</ele><time>2026-04-04T16:26:52.364Z</time></trkpt><trkpt lat="45.9726498" lon="11.7585185"><ele>285.0</ele><time>2026-04-04T16:26:53.365Z</time></trkpt><trkpt lat="45.9728529" lon="11.7585406"><ele>285.0</ele><time>2026-04-04T16:26:54.364Z</time></trkpt><trkpt lat="45.9730787" lon="11.758566"><ele>290.0</ele><time>2026-04-04T16:26:55.365Z</time></trkpt><trkpt lat="45.9733085" lon="11.7585925"><ele>295.0</ele><time>2026-04-04T16:26:56.364Z</time></trkpt><trkpt lat="45.9735394" lon="11.7586287"><ele>296.66666666666663</ele><time>2026-04-04T16:26:57.364Z</time></trkpt><trkpt lat="45.9737675" lon="11.7586647"><ele>298.3333333333333</ele><time>2026-04-04T16:26:58.365Z</time></trkpt><trkpt lat="45.9739728" lon="11.7586945"><ele>300.0</ele><time>2026-04-04T16:26:59.365Z</time></trkpt><trkpt lat="45.9741534" lon="11.7587164"><ele>298.8</ele><time>2026-04-04T16:27:00.364Z</time></trkpt><trkpt lat="45.974318" lon="11.7587309"><ele>297.6</ele><time>2026-04-04T16:27:01.365Z</time></trkpt><trkpt lat="45.9744439" lon="11.7587432"><ele>296.4</ele><time>2026-04-04T16:27:02.364Z</time></trkpt><trkpt lat="45.9745351" lon="11.7587579"><ele>295.2</ele><time>2026-04-04T16:27:03.365Z</time></trkpt><trkpt lat="45.9745989" lon="11.7587677"><ele>294.0</ele><time>2026-04-04T16:27:04.365Z</time></trkpt><trkpt lat="45.9747369" lon="11.7587922"><ele>294.0</ele><time>2026-04-04T16:27:08.364Z</time></trkpt><trkpt lat="45.9748406" lon="11.7588014"><ele>294.0</ele><time>2026-04-04T16:27:09.364Z</time></trkpt><trkpt lat="45.9750208" lon="11.7588306"><ele>294.0</ele><time>2026-04-04T16:27:10.364Z</time></trkpt><trkpt lat="45.9752116" lon="11.7588615"><ele>293.3333333333333</ele><time>2026-04-04T16:27:11.366Z</time></trkpt><trkpt lat="45.975428" lon="11.7589064"><ele>292.66666666666663</ele><time>2026-04-04T16:27:12.365Z</time></trkpt><trkpt lat="45.9756188" lon="11.758941"><ele>292.0</ele><time>2026-04-04T16:27:13.365Z</time></trkpt><trkpt lat="45.9757534" lon="11.7589602"><ele>292.0</ele><time>2026-04-04T16:27:14.365Z</time></trkpt><trkpt lat="45.9758651" lon="11.7589748"><ele>292.0</ele><time>2026-04-04T16:27:15.365Z</time></trkpt><trkpt lat="45.9759738" lon="11.7589875"><ele>292.0</ele><time>2026-04-04T16:27:16.364Z</time></trkpt><trkpt lat="45.9760784" lon="11.758991"><ele>292.0</ele><time>2026-04-04T16:27:17.365Z</time></trkpt><trkpt lat="45.9761876" lon="11.7589721"><ele>292.0</ele><time>2026-04-04T16:27:18.365Z</time></trkpt><trkpt lat="45.9763082" lon="11.7589311"><ele>292.0</ele><time>2026-04-04T16:27:19.364Z</time></trkpt><trkpt lat="45.9764538" lon="11.7588718"><ele>292.0</ele><time>2026-04-04T16:27:20.366Z</time></trkpt><trkpt lat="45.9766226" lon="11.7588127"><ele>292.0</ele><time>2026-04-04T16:27:21.364Z</time></trkpt><trkpt lat="45.9768116" lon="11.7587472"><ele>292.25</ele><time>2026-04-04T16:27:22.366Z</time></trkpt><trkpt lat="45.9769899" lon="11.7586895"><ele>292.5</ele><time>2026-04-04T16:27:23.365Z</time></trkpt><trkpt lat="45.9771279" lon="11.7586476"><ele>292.75</ele><time>2026-04-04T16:27:24.366Z</time></trkpt><trkpt lat="45.9772509" lon="11.7586242"><ele>293.0</ele><time>2026-04-04T16:27:25.366Z</time></trkpt><trkpt lat="45.9773809" lon="11.7586193"><ele>293.0</ele><time>2026-04-04T16:27:26.365Z</time></trkpt><trkpt lat="45.9774988" lon="11.7586193"><ele>293.0</ele><time>2026-04-04T16:27:27.366Z</time></trkpt><trkpt lat="45.9775981" lon="11.7586206"><ele>293.0</ele><time>2026-04-04T16:27:28.366Z</time></trkpt><trkpt lat="45.9776718" lon="11.7586214"><ele>293.0</ele><time>2026-04-04T16:27:29.366Z</time></trkpt><trkpt lat="45.977758" lon="11.7586163"><ele>293.0</ele><time>2026-04-04T16:27:31.365Z</time></trkpt><trkpt lat="45.9778285" lon="11.7585769"><ele>292.8</ele><time>2026-04-04T16:27:36.365Z</time></trkpt><trkpt lat="45.9779592" lon="11.7584647"><ele>292.6</ele><time>2026-04-04T16:27:38.365Z</time></trkpt><trkpt lat="45.9780442" lon="11.7583866"><ele>292.4</ele><time>2026-04-04T16:27:39.365Z</time></trkpt><trkpt lat="45.9781277" lon="11.7583261"><ele>292.2</ele><time>2026-04-04T16:27:40.366Z</time></trkpt><trkpt lat="45.9782169" lon="11.7582979"><ele>292.0</ele><time>2026-04-04T16:27:41.366Z</time></trkpt><trkpt lat="45.9783059" lon="11.758314"><ele>292.3333333333333</ele><time>2026-04-04T16:27:42.366Z</time></trkpt><trkpt lat="45.9783848" lon="11.7583735"><ele>292.66666666666663</ele><time>2026-04-04T16:27:43.365Z</time></trkpt><trkpt lat="45.9784503" lon="11.7584609"><ele>293.0</ele><time>2026-04-04T16:27:44.365Z</time></trkpt><trkpt lat="45.9785041" lon="11.7585648"><ele>293.3333333333333</ele><time>2026-04-04T16:27:45.365Z</time></trkpt><trkpt lat="45.9785448" lon="11.7586777"><ele>293.6666666666667</ele><time>2026-04-04T16:27:46.366Z</time></trkpt><trkpt lat="45.978583" lon="11.758796"><ele>294.0</ele><time>2026-04-04T16:27:47.367Z</time></trkpt><trkpt lat="45.9786197" lon="11.7589272"><ele>294.75</ele><time>2026-04-04T16:27:48.366Z</time></trkpt><trkpt lat="45.9786591" lon="11.7590685"><ele>295.5</ele><time>2026-04-04T16:27:49.365Z</time></trkpt><trkpt lat="45.9787077" lon="11.7592233"><ele>296.25</ele><time>2026-04-04T16:27:50.366Z</time></trkpt><trkpt lat="45.9787721" lon="11.7594076"><ele>297.0</ele><time>2026-04-04T16:27:51.365Z</time></trkpt><trkpt lat="45.9788576" lon="11.7596325"><ele>297.6666666666667</ele><time>2026-04-04T16:27:52.365Z</time></trkpt><trkpt lat="45.9789537" lon="11.7598975"><ele>298.33333333333337</ele><time>2026-04-04T16:27:53.365Z</time></trkpt><trkpt lat="45.9790603" lon="11.7601994"><ele>299.0</ele><time>2026-04-04T16:27:54.365Z</time></trkpt><trkpt lat="45.9791654" lon="11.7605134"><ele>298.5</ele><time>2026-04-04T16:27:55.365Z</time></trkpt><trkpt lat="45.9792785" lon="11.7608411"><ele>298.0</ele><time>2026-04-04T16:27:56.367Z</time></trkpt><trkpt lat="45.9793852" lon="11.7611434"><ele>299.3333333333333</ele><time>2026-04-04T16:27:57.365Z</time></trkpt><trkpt lat="45.9794865" lon="11.7613981"><ele>300.6666666666667</ele><time>2026-04-04T16:27:58.365Z</time></trkpt><trkpt lat="45.9795846" lon="11.761608"><ele>302.0</ele><time>2026-04-04T16:27:59.366Z</time></trkpt><trkpt lat="45.9796741" lon="11.7618032"><ele>302.5</ele><time>2026-04-04T16:28:00.367Z</time></trkpt><trkpt lat="45.9797443" lon="11.7619815"><ele>303.0</ele><time>2026-04-04T16:28:01.365Z</time></trkpt><trkpt lat="45.9798142" lon="11.7621708"><ele>303.5</ele><time>2026-04-04T16:28:02.366Z</time></trkpt><trkpt lat="45.9798816" lon="11.762367"><ele>304.0</ele><time>2026-04-04T16:28:03.366Z</time></trkpt><trkpt lat="45.9799386" lon="11.7625601"><ele>305.0</ele><time>2026-04-04T16:28:04.365Z</time></trkpt><trkpt lat="45.9799925" lon="11.7627571"><ele>306.0</ele><time>2026-04-04T16:28:05.366Z</time></trkpt><trkpt lat="45.9800524" lon="11.7629643"><ele>307.0</ele><time>2026-04-04T16:28:06.365Z</time></trkpt><trkpt lat="45.9801343" lon="11.7631962"><ele>308.0</ele><time>2026-04-04T16:28:07.366Z</time></trkpt><trkpt lat="45.9802408" lon="11.7634398"><ele>309.0</ele><time>2026-04-04T16:28:08.366Z</time></trkpt><trkpt lat="45.9803829" lon="11.7636965"><ele>310.0</ele><time>2026-04-04T16:28:09.365Z</time></trkpt><trkpt lat="45.9805369" lon="11.7639421"><ele>310.3333333333333</ele><time>2026-04-04T16:28:10.366Z</time></trkpt><trkpt lat="45.9806794" lon="11.7641529"><ele>310.6666666666667</ele><time>2026-04-04T16:28:11.367Z</time></trkpt><trkpt lat="45.9807909" lon="11.7643197"><ele>311.0</ele><time>2026-04-04T16:28:12.365Z</time></trkpt><trkpt lat="45.9808735" lon="11.7644483"><ele>312.83333333333337</ele><time>2026-04-04T16:28:13.366Z</time></trkpt><trkpt lat="45.9809359" lon="11.7645497"><ele>314.6666666666667</ele><time>2026-04-04T16:28:14.366Z</time></trkpt><trkpt lat="45.9809908" lon="11.7646404"><ele>316.5</ele><time>2026-04-04T16:28:15.366Z</time></trkpt><trkpt lat="45.9810376" lon="11.7647197"><ele>318.3333333333333</ele><time>2026-04-04T16:28:16.366Z</time></trkpt><trkpt lat="45.9810939" lon="11.7648287"><ele>320.16666666666663</ele><time>2026-04-04T16:28:18.366Z</time></trkpt><trkpt lat="45.9811526" lon="11.7649452"><ele>322.0</ele><time>2026-04-04T16:28:20.366Z</time></trkpt><trkpt lat="45.9812219" lon="11.7650329"><ele>322.0</ele><time>2026-04-04T16:28:22.366Z</time></trkpt><trkpt lat="45.9813366" lon="11.7650103"><ele>322.0</ele><time>2026-04-04T16:28:24.367Z</time></trkpt><trkpt lat="45.9813835" lon="11.7649492"><ele>322.0</ele><time>2026-04-04T16:28:25.366Z</time></trkpt><trkpt lat="45.9814273" lon="11.7648387"><ele>322.0</ele><time>2026-04-04T16:28:26.367Z</time></trkpt><trkpt lat="45.9814668" lon="11.7647005"><ele>322.0</ele><time>2026-04-04T16:28:27.365Z</time></trkpt><trkpt lat="45.9815141" lon="11.764526"><ele>321.5</ele><time>2026-04-04T16:28:28.367Z</time></trkpt><trkpt lat="45.981574" lon="11.7643458"><ele>321.0</ele><time>2026-04-04T16:28:29.366Z</time></trkpt><trkpt lat="45.9816235" lon="11.7642006"><ele>320.5</ele><time>2026-04-04T16:28:30.367Z</time></trkpt><trkpt lat="45.9816688" lon="11.7640727"><ele>320.0</ele><time>2026-04-04T16:28:31.366Z</time></trkpt><trkpt lat="45.9817137" lon="11.7639389"><ele>320.4</ele><time>2026-04-04T16:28:32.366Z</time></trkpt><trkpt lat="45.9817599" lon="11.7638036"><ele>320.8</ele><time>2026-04-04T16:28:33.366Z</time></trkpt><trkpt lat="45.9818086" lon="11.763665"><ele>321.20000000000005</ele><time>2026-04-04T16:28:34.366Z</time></trkpt><trkpt lat="45.9818529" lon="11.7635221"><ele>321.6</ele><time>2026-04-04T16:28:35.365Z</time></trkpt><trkpt lat="45.9819011" lon="11.7633739"><ele>322.0</ele><time>2026-04-04T16:28:36.366Z</time></trkpt><trkpt lat="45.9819535" lon="11.763223"><ele>322.0</ele><time>2026-04-04T16:28:37.367Z</time></trkpt><trkpt lat="45.9820054" lon="11.7630684"><ele>322.0</ele><time>2026-04-04T16:28:38.366Z</time></trkpt><trkpt lat="45.9820634" lon="11.7629097"><ele>322.0</ele><time>2026-04-04T16:28:39.366Z</time></trkpt><trkpt lat="45.9821171" lon="11.7627535"><ele>322.0</ele><time>2026-04-04T16:28:40.366Z</time></trkpt><trkpt lat="45.9821731" lon="11.7626071"><ele>322.40000000000003</ele><time>2026-04-04T16:28:41.366Z</time></trkpt><trkpt lat="45.9822322" lon="11.7624674"><ele>322.8</ele><time>2026-04-04T16:28:42.366Z</time></trkpt><trkpt lat="45.9822923" lon="11.7623385"><ele>323.2</ele><time>2026-04-04T16:28:43.366Z</time></trkpt><trkpt lat="45.9823648" lon="11.7622215"><ele>323.6</ele><time>2026-04-04T16:28:44.366Z</time></trkpt><trkpt lat="45.9824522" lon="11.7621251"><ele>324.0</ele><time>2026-04-04T16:28:45.367Z</time></trkpt><trkpt lat="45.9825529" lon="11.7620435"><ele>324.0</ele><time>2026-04-04T16:28:46.367Z</time></trkpt><trkpt lat="45.982657" lon="11.7619771"><ele>324.0</ele><time>2026-04-04T16:28:47.367Z</time></trkpt><trkpt lat="45.9827703" lon="11.7619052"><ele>324.0</ele><time>2026-04-04T16:28:48.368Z</time></trkpt><trkpt lat="45.9828923" lon="11.7618324"><ele>324.0</ele><time>2026-04-04T16:28:49.367Z</time></trkpt><trkpt lat="45.9830024" lon="11.761761"><ele>325.0</ele><time>2026-04-04T16:28:50.366Z</time></trkpt><trkpt lat="45.9831003" lon="11.7616933"><ele>326.0</ele><time>2026-04-04T16:28:51.367Z</time></trkpt><trkpt lat="45.9831872" lon="11.7616234"><ele>327.0</ele><time>2026-04-04T16:28:52.367Z</time></trkpt><trkpt lat="45.9832524" lon="11.7615483"><ele>328.0</ele><time>2026-04-04T16:28:53.367Z</time></trkpt><trkpt lat="45.9833111" lon="11.7614562"><ele>329.0</ele><time>2026-04-04T16:28:54.367Z</time></trkpt><trkpt lat="45.9833626" lon="11.7613562"><ele>329.0</ele><time>2026-04-04T16:28:55.366Z</time></trkpt><trkpt lat="45.9834025" lon="11.7612551"><ele>329.0</ele><time>2026-04-04T16:28:56.367Z</time></trkpt><trkpt lat="45.9834366" lon="11.7611685"><ele>329.0</ele><time>2026-04-04T16:28:57.366Z</time></trkpt><trkpt lat="45.9834639" lon="11.7610338"><ele>329.0</ele><time>2026-04-04T16:28:59.366Z</time></trkpt><trkpt lat="45.9834758" lon="11.7608684"><ele>329.0</ele><time>2026-04-04T16:29:01.366Z</time></trkpt><trkpt lat="45.983489" lon="11.7607499"><ele>329.0</ele><time>2026-04-04T16:29:02.367Z</time></trkpt><trkpt lat="45.9835056" lon="11.760604"><ele>327.4</ele><time>2026-04-04T16:29:03.366Z</time></trkpt><trkpt lat="45.9835245" lon="11.760436"><ele>325.79999999999995</ele><time>2026-04-04T16:29:04.368Z</time></trkpt><trkpt lat="45.9835348" lon="11.7602736"><ele>324.20000000000005</ele><time>2026-04-04T16:29:05.366Z</time></trkpt><trkpt lat="45.9835413" lon="11.7601218"><ele>322.6</ele><time>2026-04-04T16:29:06.366Z</time></trkpt><trkpt lat="45.9835464" lon="11.7599768"><ele>321.0</ele><time>2026-04-04T16:29:07.367Z</time></trkpt><trkpt lat="45.9835577" lon="11.7598228"><ele>320.25</ele><time>2026-04-04T16:29:08.366Z</time></trkpt><trkpt lat="45.9835777" lon="11.7596546"><ele>319.5</ele><time>2026-04-04T16:29:09.368Z</time></trkpt><trkpt lat="45.983598" lon="11.7594763"><ele>318.75</ele><time>2026-04-04T16:29:10.366Z</time></trkpt><trkpt lat="45.9836172" lon="11.7592827"><ele>318.0</ele><time>2026-04-04T16:29:11.366Z</time></trkpt><trkpt lat="45.9836328" lon="11.7590692"><ele>318.0</ele><time>2026-04-04T16:29:12.367Z</time></trkpt><trkpt lat="45.9836509" lon="11.758842"><ele>318.0</ele><time>2026-04-04T16:29:13.366Z</time></trkpt><trkpt lat="45.9836666" lon="11.7586306"><ele>318.0</ele><time>2026-04-04T16:29:14.368Z</time></trkpt><trkpt lat="45.9836677" lon="11.7584356"><ele>318.0</ele><time>2026-04-04T16:29:15.366Z</time></trkpt><trkpt lat="45.9836706" lon="11.7582718"><ele>317.8333333333333</ele><time>2026-04-04T16:29:16.368Z</time></trkpt><trkpt lat="45.9836455" lon="11.7581453"><ele>317.6666666666667</ele><time>2026-04-04T16:29:17.368Z</time></trkpt><trkpt lat="45.9836158" lon="11.7580258"><ele>317.5</ele><time>2026-04-04T16:29:18.367Z</time></trkpt><trkpt lat="45.9835832" lon="11.7579239"><ele>317.33333333333337</ele><time>2026-04-04T16:29:19.367Z</time></trkpt><trkpt lat="45.9835659" lon="11.7578277"><ele>317.1666666666667</ele><time>2026-04-04T16:29:20.367Z</time></trkpt><trkpt lat="45.9835959" lon="11.7576682"><ele>317.0</ele><time>2026-04-04T16:29:22.367Z</time></trkpt><trkpt lat="45.9836657" lon="11.7575709"><ele>317.33333333333337</ele><time>2026-04-04T16:29:23.368Z</time></trkpt><trkpt lat="45.9837518" lon="11.7574631"><ele>317.6666666666667</ele><time>2026-04-04T16:29:24.367Z</time></trkpt><trkpt lat="45.9838379" lon="11.7573716"><ele>318.0</ele><time>2026-04-04T16:29:25.367Z</time></trkpt><trkpt lat="45.9838897" lon="11.7573088"><ele>318.3333333333333</ele><time>2026-04-04T16:29:26.367Z</time></trkpt><trkpt lat="45.9839424" lon="11.7572355"><ele>318.66666666666663</ele><time>2026-04-04T16:29:28.368Z</time></trkpt><trkpt lat="45.9839721" lon="11.7571496"><ele>319.0</ele><time>2026-04-04T16:29:29.367Z</time></trkpt><trkpt lat="45.9839848" lon="11.7569869"><ele>320.0</ele><time>2026-04-04T16:29:30.366Z</time></trkpt><trkpt lat="45.9839974" lon="11.7568033"><ele>321.0</ele><time>2026-04-04T16:29:31.366Z</time></trkpt><trkpt lat="45.9840216" lon="11.7566203"><ele>322.0</ele><time>2026-04-04T16:29:32.367Z</time></trkpt><trkpt lat="45.9840466" lon="11.7564721"><ele>323.0</ele><time>2026-04-04T16:29:33.367Z</time></trkpt><trkpt lat="45.9840747" lon="11.7563368"><ele>323.0</ele><time>2026-04-04T16:29:34.366Z</time></trkpt><trkpt lat="45.9840931" lon="11.7562161"><ele>323.0</ele><time>2026-04-04T16:29:35.367Z</time></trkpt><trkpt lat="45.9841233" lon="11.7560263"><ele>323.0</ele><time>2026-04-04T16:29:37.367Z</time></trkpt><trkpt lat="45.9842026" lon="11.7558916"><ele>323.0</ele><time>2026-04-04T16:29:39.368Z</time></trkpt><trkpt lat="45.984293" lon="11.7558248"><ele>323.0</ele><time>2026-04-04T16:29:40.368Z</time></trkpt><trkpt lat="45.9843741" lon="11.7557661"><ele>325.1666666666667</ele><time>2026-04-04T16:29:41.366Z</time></trkpt><trkpt lat="45.9844557" lon="11.7557001"><ele>327.33333333333337</ele><time>2026-04-04T16:29:42.368Z</time></trkpt><trkpt lat="45.9845352" lon="11.7556411"><ele>329.5</ele><time>2026-04-04T16:29:43.366Z</time></trkpt><trkpt lat="45.9846051" lon="11.7555758"><ele>331.6666666666667</ele><time>2026-04-04T16:29:44.368Z</time></trkpt><trkpt lat="45.9846747" lon="11.7555138"><ele>333.8333333333333</ele><time>2026-04-04T16:29:45.367Z</time></trkpt><trkpt lat="45.9847411" lon="11.7554535"><ele>336.0</ele><time>2026-04-04T16:29:46.368Z</time></trkpt><trkpt lat="45.9848021" lon="11.7553852"><ele>336.0</ele><time>2026-04-04T16:29:47.367Z</time></trkpt><trkpt lat="45.9848683" lon="11.755302"><ele>336.0</ele><time>2026-04-04T16:29:48.368Z</time></trkpt><trkpt lat="45.9849367" lon="11.7552156"><ele>336.0</ele><time>2026-04-04T16:29:49.367Z</time></trkpt><trkpt lat="45.9849994" lon="11.7551361"><ele>336.0</ele><time>2026-04-04T16:29:50.368Z</time></trkpt><trkpt lat="45.9850685" lon="11.7550604"><ele>336.0</ele><time>2026-04-04T16:29:51.367Z</time></trkpt><trkpt lat="45.9851302" lon="11.7549932"><ele>336.0</ele><time>2026-04-04T16:29:52.367Z</time></trkpt><trkpt lat="45.9851926" lon="11.7549462"><ele>339.0</ele><time>2026-04-04T16:29:53.367Z</time></trkpt><trkpt lat="45.9852594" lon="11.7549036"><ele>342.0</ele><time>2026-04-04T16:29:54.368Z</time></trkpt><trkpt lat="45.9853431" lon="11.754864"><ele>345.0</ele><time>2026-04-04T16:29:55.368Z</time></trkpt><trkpt lat="45.9854176" lon="11.7548204"><ele>348.0</ele><time>2026-04-04T16:29:56.368Z</time></trkpt><trkpt lat="45.9854677" lon="11.7547184"><ele>351.0</ele><time>2026-04-04T16:29:57.368Z</time></trkpt><trkpt lat="45.9854965" lon="11.7546167"><ele>354.0</ele><time>2026-04-04T16:29:58.367Z</time></trkpt><trkpt lat="45.9855091" lon="11.7545271"><ele>354.0</ele><time>2026-04-04T16:29:59.367Z</time></trkpt><trkpt lat="45.9855115" lon="11.7544331"><ele>354.0</ele><time>2026-04-04T16:30:00.367Z</time></trkpt><trkpt lat="45.9855084" lon="11.7543355"><ele>354.0</ele><time>2026-04-04T16:30:01.368Z</time></trkpt><trkpt lat="45.985489" lon="11.7542252"><ele>354.0</ele><time>2026-04-04T16:30:02.368Z</time></trkpt><trkpt lat="45.9854553" lon="11.7541021"><ele>354.0</ele><time>2026-04-04T16:30:03.367Z</time></trkpt><trkpt lat="45.9854081" lon="11.7539924"><ele>354.0</ele><time>2026-04-04T16:30:04.368Z</time></trkpt><trkpt lat="45.9853595" lon="11.753862"><ele>356.25</ele><time>2026-04-04T16:30:05.368Z</time></trkpt><trkpt lat="45.9853017" lon="11.7536965"><ele>358.5</ele><time>2026-04-04T16:30:06.369Z</time></trkpt><trkpt lat="45.9852475" lon="11.7535236"><ele>360.75</ele><time>2026-04-04T16:30:07.368Z</time></trkpt><trkpt lat="45.9851965" lon="11.7533644"><ele>363.0</ele><time>2026-04-04T16:30:08.368Z</time></trkpt><trkpt lat="45.9851557" lon="11.7532005"><ele>364.59999999999997</ele><time>2026-04-04T16:30:09.367Z</time></trkpt><trkpt lat="45.9851078" lon="11.7529986"><ele>366.2</ele><time>2026-04-04T16:30:11.367Z</time></trkpt><trkpt lat="45.9851182" lon="11.7528806"><ele>367.8</ele><time>2026-04-04T16:30:13.368Z</time></trkpt><trkpt lat="45.9851692" lon="11.7527881"><ele>369.4</ele><time>2026-04-04T16:30:16.368Z</time></trkpt><trkpt lat="45.9852556" lon="11.7527816"><ele>371.0</ele><time>2026-04-04T16:30:20.367Z</time></trkpt><trkpt lat="45.9853256" lon="11.7527881"><ele>371.0</ele><time>2026-04-04T16:30:22.368Z</time></trkpt><trkpt lat="45.9854085" lon="11.752799"><ele>371.0</ele><time>2026-04-04T16:30:23.367Z</time></trkpt><trkpt lat="45.9855337" lon="11.7527832"><ele>371.0</ele><time>2026-04-04T16:30:24.368Z</time></trkpt><trkpt lat="45.9856674" lon="11.7527361"><ele>371.0</ele><time>2026-04-04T16:30:25.367Z</time></trkpt><trkpt lat="45.9857726" lon="11.7526651"><ele>375.75</ele><time>2026-04-04T16:30:26.369Z</time></trkpt><trkpt lat="45.9858735" lon="11.7525866"><ele>380.5</ele><time>2026-04-04T16:30:27.368Z</time></trkpt><trkpt lat="45.9859669" lon="11.752491"><ele>385.25</ele><time>2026-04-04T16:30:28.369Z</time></trkpt><trkpt lat="45.9860527" lon="11.7523656"><ele>390.0</ele><time>2026-04-04T16:30:29.368Z</time></trkpt><trkpt lat="45.9861143" lon="11.7522153"><ele>390.0</ele><time>2026-04-04T16:30:30.369Z</time></trkpt><trkpt lat="45.9861682" lon="11.7520068"><ele>390.0</ele><time>2026-04-04T16:30:31.368Z</time></trkpt><trkpt lat="45.9862266" lon="11.7517667"><ele>390.0</ele><time>2026-04-04T16:30:32.369Z</time></trkpt><trkpt lat="45.9862576" lon="11.7516393"><ele>390.0</ele><time>2026-04-04T16:30:33.367Z</time></trkpt><trkpt lat="45.9862995" lon="11.7515539"><ele>393.4</ele><time>2026-04-04T16:30:34.368Z</time></trkpt><trkpt lat="45.9863687" lon="11.7514656"><ele>396.8</ele><time>2026-04-04T16:30:35.369Z</time></trkpt><trkpt lat="45.9864577" lon="11.7513591"><ele>400.20000000000005</ele><time>2026-04-04T16:30:36.368Z</time></trkpt><trkpt lat="45.9865385" lon="11.7512733"><ele>403.6</ele><time>2026-04-04T16:30:37.369Z</time></trkpt><trkpt lat="45.9865994" lon="11.7511933"><ele>407.0</ele><time>2026-04-04T16:30:38.369Z</time></trkpt><trkpt lat="45.9866358" lon="11.751114"><ele>411.3333333333333</ele><time>2026-04-04T16:30:39.368Z</time></trkpt><trkpt lat="45.9866955" lon="11.7508386"><ele>415.66666666666663</ele><time>2026-04-04T16:30:41.368Z</time></trkpt><trkpt lat="45.986711" lon="11.7505922"><ele>420.0</ele><time>2026-04-04T16:30:42.368Z</time></trkpt><trkpt lat="45.9867026" lon="11.7503697"><ele>422.2</ele><time>2026-04-04T16:30:43.368Z</time></trkpt><trkpt lat="45.9867115" lon="11.7502077"><ele>424.4</ele><time>2026-04-04T16:30:44.369Z</time></trkpt><trkpt lat="45.9867362" lon="11.7500765"><ele>426.6</ele><time>2026-04-04T16:30:45.368Z</time></trkpt><trkpt lat="45.9867808" lon="11.7499488"><ele>428.8</ele><time>2026-04-04T16:30:46.368Z</time></trkpt><trkpt lat="45.9868295" lon="11.7498591"><ele>431.0</ele><time>2026-04-04T16:30:47.368Z</time></trkpt><trkpt lat="45.9868792" lon="11.7497861"><ele>430.99999999999994</ele><time>2026-04-04T16:30:48.368Z</time></trkpt><trkpt lat="45.9869374" lon="11.7497173"><ele>431.0</ele><time>2026-04-04T16:30:49.368Z</time></trkpt><trkpt lat="45.987019" lon="11.7496582"><ele>431.0</ele><time>2026-04-04T16:30:50.369Z</time></trkpt><trkpt lat="45.9870989" lon="11.7496024"><ele>431.0</ele><time>2026-04-04T16:30:51.368Z</time></trkpt><trkpt lat="45.9871791" lon="11.7495277"><ele>430.99999999999994</ele><time>2026-04-04T16:30:52.368Z</time></trkpt><trkpt lat="45.9872545" lon="11.7494391"><ele>431.0</ele><time>2026-04-04T16:30:53.369Z</time></trkpt><trkpt lat="45.9873409" lon="11.7493647"><ele>433.4</ele><time>2026-04-04T16:30:54.368Z</time></trkpt><trkpt lat="45.9874236" lon="11.749226"><ele>435.8</ele><time>2026-04-04T16:30:55.369Z</time></trkpt><trkpt lat="45.987503" lon="11.7490857"><ele>438.19999999999993</ele><time>2026-04-04T16:30:56.368Z</time></trkpt><trkpt lat="45.9875477" lon="11.7489724"><ele>440.59999999999997</ele><time>2026-04-04T16:30:57.368Z</time></trkpt><trkpt lat="45.9875947" lon="11.7488447"><ele>443.0</ele><time>2026-04-04T16:30:59.368Z</time></trkpt><trkpt lat="45.9876401" lon="11.7487011"><ele>444.79999999999995</ele><time>2026-04-04T16:31:01.368Z</time></trkpt><trkpt lat="45.9877021" lon="11.7485761"><ele>446.59999999999997</ele><time>2026-04-04T16:31:03.369Z</time></trkpt><trkpt lat="45.987777" lon="11.7485069"><ele>448.40000000000003</ele><time>2026-04-04T16:31:05.368Z</time></trkpt><trkpt lat="45.9878489" lon="11.7484514"><ele>450.20000000000005</ele><time>2026-04-04T16:31:10.369Z</time></trkpt><trkpt lat="45.9879396" lon="11.7483848"><ele>452.0</ele><time>2026-04-04T16:31:11.369Z</time></trkpt><trkpt lat="45.9880651" lon="11.7482908"><ele>455.3333333333333</ele><time>2026-04-04T16:31:12.369Z</time></trkpt><trkpt lat="45.9882149" lon="11.7481779"><ele>458.66666666666663</ele><time>2026-04-04T16:31:13.368Z</time></trkpt><trkpt lat="45.9883825" lon="11.7480542"><ele>462.0</ele><time>2026-04-04T16:31:14.368Z</time></trkpt><trkpt lat="45.988555" lon="11.7479249"><ele>464.66666666666663</ele><time>2026-04-04T16:31:15.369Z</time></trkpt><trkpt lat="45.9887447" lon="11.7477842"><ele>467.3333333333333</ele><time>2026-04-04T16:31:16.368Z</time></trkpt><trkpt lat="45.9889139" lon="11.7476582"><ele>470.0</ele><time>2026-04-04T16:31:17.369Z</time></trkpt><trkpt lat="45.9890653" lon="11.7475497"><ele>469.4</ele><time>2026-04-04T16:31:18.368Z</time></trkpt><trkpt lat="45.989177" lon="11.7474488"><ele>468.8</ele><time>2026-04-04T16:31:19.369Z</time></trkpt><trkpt lat="45.9892652" lon="11.7473614"><ele>468.20000000000005</ele><time>2026-04-04T16:31:20.37Z</time></trkpt><trkpt lat="45.989347" lon="11.7472803"><ele>467.6</ele><time>2026-04-04T16:31:21.368Z</time></trkpt><trkpt lat="45.9894257" lon="11.7472002"><ele>467.0</ele><time>2026-04-04T16:31:22.368Z</time></trkpt><trkpt lat="45.9894981" lon="11.7471317"><ele>467.0</ele><time>2026-04-04T16:31:23.368Z</time></trkpt><trkpt lat="45.9895669" lon="11.7470745"><ele>467.0</ele><time>2026-04-04T16:31:24.369Z</time></trkpt><trkpt lat="45.9896381" lon="11.7469502"><ele>467.0</ele><time>2026-04-04T16:31:26.368Z</time></trkpt><trkpt lat="45.9896779" lon="11.7467077"><ele>467.0</ele><time>2026-04-04T16:31:28.368Z</time></trkpt><trkpt lat="45.9897423" lon="11.7466051"><ele>467.40000000000003</ele><time>2026-04-04T16:31:29.368Z</time></trkpt><trkpt lat="45.9898159" lon="11.7465098"><ele>467.80000000000007</ele><time>2026-04-04T16:31:30.369Z</time></trkpt><trkpt lat="45.9898887" lon="11.7464094"><ele>468.2</ele><time>2026-04-04T16:31:31.369Z</time></trkpt><trkpt lat="45.989965" lon="11.7462984"><ele>468.6</ele><time>2026-04-04T16:31:32.37Z</time></trkpt><trkpt lat="45.9900298" lon="11.7461622"><ele>469.0</ele><time>2026-04-04T16:31:33.368Z</time></trkpt><trkpt lat="45.9900699" lon="11.7460284"><ele>470.00000000000006</ele><time>2026-04-04T16:31:34.369Z</time></trkpt><trkpt lat="45.9901024" lon="11.7458906"><ele>471.0</ele><time>2026-04-04T16:31:35.369Z</time></trkpt><trkpt lat="45.9901267" lon="11.7457615"><ele>472.0</ele><time>2026-04-04T16:31:36.368Z</time></trkpt><trkpt lat="45.9901505" lon="11.7456469"><ele>473.0</ele><time>2026-04-04T16:31:37.369Z</time></trkpt><trkpt lat="45.9901838" lon="11.7455473"><ele>474.00000000000006</ele><time>2026-04-04T16:31:38.369Z</time></trkpt><trkpt lat="45.9902177" lon="11.7454553"><ele>475.0</ele><time>2026-04-04T16:31:39.369Z</time></trkpt><trkpt lat="45.9903121" lon="11.745393"><ele>475.0</ele><time>2026-04-04T16:31:41.369Z</time></trkpt><trkpt lat="45.9903917" lon="11.74542"><ele>475.0</ele><time>2026-04-04T16:31:43.369Z</time></trkpt><trkpt lat="45.9904732" lon="11.7456656"><ele>475.0</ele><time>2026-04-04T16:31:45.369Z</time></trkpt><trkpt lat="45.9905145" lon="11.7458828"><ele>475.0</ele><time>2026-04-04T16:31:46.368Z</time></trkpt><trkpt lat="45.9905693" lon="11.7460613"><ele>474.83333333333337</ele><time>2026-04-04T16:31:47.369Z</time></trkpt><trkpt lat="45.9906222" lon="11.7461991"><ele>474.6666666666667</ele><time>2026-04-04T16:31:48.369Z</time></trkpt><trkpt lat="45.9906801" lon="11.7463025"><ele>474.5</ele><time>2026-04-04T16:31:49.368Z</time></trkpt><trkpt lat="45.9907386" lon="11.7463724"><ele>474.33333333333337</ele><time>2026-04-04T16:31:50.369Z</time></trkpt><trkpt lat="45.9908095" lon="11.7464267"><ele>474.1666666666667</ele><time>2026-04-04T16:31:51.37Z</time></trkpt><trkpt lat="45.9908922" lon="11.7464149"><ele>474.0</ele><time>2026-04-04T16:31:52.369Z</time></trkpt><trkpt lat="45.990974" lon="11.7463625"><ele>474.0</ele><time>2026-04-04T16:31:53.37Z</time></trkpt><trkpt lat="45.9910408" lon="11.7462932"><ele>474.0</ele><time>2026-04-04T16:31:54.369Z</time></trkpt><trkpt lat="45.9911" lon="11.746228"><ele>474.0</ele><time>2026-04-04T16:31:55.369Z</time></trkpt><trkpt lat="45.9911671" lon="11.746169"><ele>474.0</ele><time>2026-04-04T16:31:56.37Z</time></trkpt><trkpt lat="45.9912416" lon="11.7461443"><ele>474.0</ele><time>2026-04-04T16:31:57.369Z</time></trkpt><trkpt lat="45.9913245" lon="11.7461515"><ele>474.0</ele><time>2026-04-04T16:31:58.37Z</time></trkpt><trkpt lat="45.9914042" lon="11.7461834"><ele>474.0</ele><time>2026-04-04T16:31:59.37Z</time></trkpt><trkpt lat="45.9914806" lon="11.7462237"><ele>474.0</ele><time>2026-04-04T16:32:00.369Z</time></trkpt><trkpt lat="45.9915639" lon="11.7462887"><ele>474.0</ele><time>2026-04-04T16:32:01.37Z</time></trkpt><trkpt lat="45.9916693" lon="11.7463686"><ele>474.0</ele><time>2026-04-04T16:32:02.369Z</time></trkpt><trkpt lat="45.991779" lon="11.7464539"><ele>474.0</ele><time>2026-04-04T16:32:03.37Z</time></trkpt><trkpt lat="45.9919039" lon="11.7465408"><ele>477.0</ele><time>2026-04-04T16:32:04.369Z</time></trkpt><trkpt lat="45.9920275" lon="11.7466265"><ele>480.0</ele><time>2026-04-04T16:32:05.37Z</time></trkpt><trkpt lat="45.9921376" lon="11.7467227"><ele>483.0</ele><time>2026-04-04T16:32:06.369Z</time></trkpt><trkpt lat="45.9922432" lon="11.74683"><ele>486.0</ele><time>2026-04-04T16:32:07.369Z</time></trkpt><trkpt lat="45.9923324" lon="11.7469647"><ele>486.0</ele><time>2026-04-04T16:32:08.369Z</time></trkpt><trkpt lat="45.9923983" lon="11.7471096"><ele>486.0</ele><time>2026-04-04T16:32:09.369Z</time></trkpt><trkpt lat="45.992444" lon="11.7472783"><ele>486.0</ele><time>2026-04-04T16:32:10.369Z</time></trkpt><trkpt lat="45.9924685" lon="11.7474703"><ele>486.0</ele><time>2026-04-04T16:32:11.369Z</time></trkpt><trkpt lat="45.9924874" lon="11.747672"><ele>486.5</ele><time>2026-04-04T16:32:12.37Z</time></trkpt><trkpt lat="45.9924806" lon="11.7478701"><ele>487.0</ele><time>2026-04-04T16:32:13.369Z</time></trkpt><trkpt lat="45.9924647" lon="11.7480648"><ele>487.5</ele><time>2026-04-04T16:32:14.369Z</time></trkpt><trkpt lat="45.9924389" lon="11.7482698"><ele>488.0</ele><time>2026-04-04T16:32:15.369Z</time></trkpt><trkpt lat="45.9923926" lon="11.748516"><ele>491.66666666666663</ele><time>2026-04-04T16:32:16.369Z</time></trkpt><trkpt lat="45.9923509" lon="11.7487903"><ele>495.33333333333337</ele><time>2026-04-04T16:32:17.37Z</time></trkpt><trkpt lat="45.992311" lon="11.7490873"><ele>499.0</ele><time>2026-04-04T16:32:18.37Z</time></trkpt><trkpt lat="45.9922667" lon="11.749402"><ele>502.33333333333337</ele><time>2026-04-04T16:32:19.37Z</time></trkpt><trkpt lat="45.9922096" lon="11.7497026"><ele>505.66666666666663</ele><time>2026-04-04T16:32:20.371Z</time></trkpt><trkpt lat="45.9921503" lon="11.7499538"><ele>509.0</ele><time>2026-04-04T16:32:21.37Z</time></trkpt><trkpt lat="45.9920961" lon="11.7501627"><ele>513.0</ele><time>2026-04-04T16:32:22.37Z</time></trkpt><trkpt lat="45.9920421" lon="11.7503321"><ele>517.0</ele><time>2026-04-04T16:32:23.37Z</time></trkpt><trkpt lat="45.9919816" lon="11.7504803"><ele>521.0</ele><time>2026-04-04T16:32:24.37Z</time></trkpt><trkpt lat="45.9918878" lon="11.7505881"><ele>525.0</ele><time>2026-04-04T16:32:25.37Z</time></trkpt><trkpt lat="45.9917923" lon="11.7507131"><ele>525.0</ele><time>2026-04-04T16:32:26.37Z</time></trkpt><trkpt lat="45.991712" lon="11.7508795"><ele>525.0</ele><time>2026-04-04T16:32:27.37Z</time></trkpt><trkpt lat="45.9916316" lon="11.7510924"><ele>525.0</ele><time>2026-04-04T16:32:28.371Z</time></trkpt><trkpt lat="45.9915478" lon="11.7513391"><ele>525.3333333333334</ele><time>2026-04-04T16:32:29.369Z</time></trkpt><trkpt lat="45.9914525" lon="11.7516029"><ele>525.6666666666667</ele><time>2026-04-04T16:32:30.37Z</time></trkpt><trkpt lat="45.9913563" lon="11.7518724"><ele>526.0</ele><time>2026-04-04T16:32:31.369Z</time></trkpt><trkpt lat="45.9912723" lon="11.7521203"><ele>526.0</ele><time>2026-04-04T16:32:32.369Z</time></trkpt><trkpt lat="45.9912286" lon="11.7523421"><ele>526.0</ele><time>2026-04-04T16:32:33.369Z</time></trkpt><trkpt lat="45.9912036" lon="11.7525553"><ele>526.0</ele><time>2026-04-04T16:32:34.37Z</time></trkpt><trkpt lat="45.991201" lon="11.7527558"><ele>526.0</ele><time>2026-04-04T16:32:35.369Z</time></trkpt><trkpt lat="45.9912207" lon="11.7529507"><ele>526.0</ele><time>2026-04-04T16:32:36.37Z</time></trkpt><trkpt lat="45.9912548" lon="11.7531536"><ele>526.0</ele><time>2026-04-04T16:32:37.37Z</time></trkpt><trkpt lat="45.9913229" lon="11.7533778"><ele>524.6666666666667</ele><time>2026-04-04T16:32:38.369Z</time></trkpt><trkpt lat="45.9913708" lon="11.7535851"><ele>523.3333333333334</ele><time>2026-04-04T16:32:39.37Z</time></trkpt><trkpt lat="45.9913903" lon="11.7537914"><ele>522.0</ele><time>2026-04-04T16:32:40.37Z</time></trkpt><trkpt lat="45.9913911" lon="11.7540129"><ele>522.0</ele><time>2026-04-04T16:32:41.37Z</time></trkpt><trkpt lat="45.9913912" lon="11.7542246"><ele>522.0</ele><time>2026-04-04T16:32:42.37Z</time></trkpt><trkpt lat="45.9914089" lon="11.754413"><ele>522.0</ele><time>2026-04-04T16:32:43.37Z</time></trkpt><trkpt lat="45.9914533" lon="11.7545795"><ele>522.0</ele><time>2026-04-04T16:32:44.371Z</time></trkpt><trkpt lat="45.9915256" lon="11.754722"><ele>520.5</ele><time>2026-04-04T16:32:45.37Z</time></trkpt><trkpt lat="45.9916103" lon="11.754851"><ele>519.0</ele><time>2026-04-04T16:32:46.37Z</time></trkpt><trkpt lat="45.9917257" lon="11.7549399"><ele>517.5</ele><time>2026-04-04T16:32:47.369Z</time></trkpt><trkpt lat="45.9918495" lon="11.7550314"><ele>516.0</ele><time>2026-04-04T16:32:48.37Z</time></trkpt><trkpt lat="45.9919848" lon="11.755152"><ele>521.5</ele><time>2026-04-04T16:32:49.371Z</time></trkpt><trkpt lat="45.9921175" lon="11.7552806"><ele>527.0</ele><time>2026-04-04T16:32:50.37Z</time></trkpt><trkpt lat="45.9922226" lon="11.755422"><ele>532.5</ele><time>2026-04-04T16:32:51.37Z</time></trkpt><trkpt lat="45.9922956" lon="11.7555969"><ele>538.0</ele><time>2026-04-04T16:32:52.37Z</time></trkpt><trkpt lat="45.9923461" lon="11.7557988"><ele>538.0</ele><time>2026-04-04T16:32:53.369Z</time></trkpt><trkpt lat="45.992384" lon="11.7560219"><ele>538.0</ele><time>2026-04-04T16:32:54.371Z</time></trkpt><trkpt lat="45.9924027" lon="11.7562569"><ele>538.0</ele><time>2026-04-04T16:32:55.37Z</time></trkpt><trkpt lat="45.992395" lon="11.7564928"><ele>539.0</ele><time>2026-04-04T16:32:56.371Z</time></trkpt><trkpt lat="45.9923573" lon="11.7567298"><ele>540.0</ele><time>2026-04-04T16:32:57.371Z</time></trkpt><trkpt lat="45.9922942" lon="11.7569828"><ele>541.0</ele><time>2026-04-04T16:32:58.371Z</time></trkpt><trkpt lat="45.9922253" lon="11.7572547"><ele>541.6666666666667</ele><time>2026-04-04T16:32:59.371Z</time></trkpt><trkpt lat="45.9921689" lon="11.7575036"><ele>542.3333333333334</ele><time>2026-04-04T16:33:00.371Z</time></trkpt><trkpt lat="45.9921277" lon="11.7577153"><ele>543.0</ele><time>2026-04-04T16:33:01.37Z</time></trkpt><trkpt lat="45.9921058" lon="11.7579133"><ele>543.0</ele><time>2026-04-04T16:33:02.37Z</time></trkpt><trkpt lat="45.9921116" lon="11.7581126"><ele>543.0</ele><time>2026-04-04T16:33:03.371Z</time></trkpt><trkpt lat="45.992142" lon="11.7583111"><ele>543.0</ele><time>2026-04-04T16:33:04.37Z</time></trkpt><trkpt lat="45.9921889" lon="11.7585043"><ele>543.0</ele><time>2026-04-04T16:33:05.37Z</time></trkpt><trkpt lat="45.9922431" lon="11.7586962"><ele>543.6666666666666</ele><time>2026-04-04T16:33:06.371Z</time></trkpt><trkpt lat="45.9922986" lon="11.758892"><ele>544.3333333333333</ele><time>2026-04-04T16:33:07.371Z</time></trkpt><trkpt lat="45.9923604" lon="11.7590938"><ele>545.0</ele><time>2026-04-04T16:33:08.371Z</time></trkpt><trkpt lat="45.9924386" lon="11.7593035"><ele>549.6666666666666</ele><time>2026-04-04T16:33:09.371Z</time></trkpt><trkpt lat="45.9925365" lon="11.7595165"><ele>554.3333333333334</ele><time>2026-04-04T16:33:10.371Z</time></trkpt><trkpt lat="45.9926528" lon="11.7597405"><ele>559.0</ele><time>2026-04-04T16:33:11.37Z</time></trkpt><trkpt lat="45.992781" lon="11.7599816"><ele>558.3333333333334</ele><time>2026-04-04T16:33:12.371Z</time></trkpt><trkpt lat="45.9928963" lon="11.7602232"><ele>557.6666666666666</ele><time>2026-04-04T16:33:13.371Z</time></trkpt><trkpt lat="45.9929807" lon="11.7604522"><ele>557.0</ele><time>2026-04-04T16:33:14.371Z</time></trkpt><trkpt lat="45.9930358" lon="11.7606706"><ele>557.0</ele><time>2026-04-04T16:33:15.371Z</time></trkpt><trkpt lat="45.9930745" lon="11.7608694"><ele>557.0</ele><time>2026-04-04T16:33:16.371Z</time></trkpt><trkpt lat="45.9931127" lon="11.7610536"><ele>557.0</ele><time>2026-04-04T16:33:17.371Z</time></trkpt><trkpt lat="45.9931607" lon="11.7612296"><ele>557.0</ele><time>2026-04-04T16:33:18.37Z</time></trkpt><trkpt lat="45.9932113" lon="11.7614011"><ele>556.5</ele><time>2026-04-04T16:33:19.37Z</time></trkpt><trkpt lat="45.9932662" lon="11.7615709"><ele>556.0</ele><time>2026-04-04T16:33:20.37Z</time></trkpt><trkpt lat="45.9933306" lon="11.7617274"><ele>555.5</ele><time>2026-04-04T16:33:21.371Z</time></trkpt><trkpt lat="45.9934062" lon="11.7618738"><ele>555.0</ele><time>2026-04-04T16:33:22.37Z</time></trkpt><trkpt lat="45.993488" lon="11.7620156"><ele>559.25</ele><time>2026-04-04T16:33:23.371Z</time></trkpt><trkpt lat="45.9935726" lon="11.7621531"><ele>563.5</ele><time>2026-04-04T16:33:24.37Z</time></trkpt><trkpt lat="45.9936627" lon="11.7622912"><ele>567.75</ele><time>2026-04-04T16:33:25.371Z</time></trkpt><trkpt lat="45.9937524" lon="11.7624257"><ele>572.0</ele><time>2026-04-04T16:33:26.371Z</time></trkpt><trkpt lat="45.9938411" lon="11.7625574"><ele>572.0</ele><time>2026-04-04T16:33:27.37Z</time></trkpt><trkpt lat="45.9939258" lon="11.7626811"><ele>572.0</ele><time>2026-04-04T16:33:28.371Z</time></trkpt><trkpt lat="45.9940018" lon="11.7627966"><ele>572.0</ele><time>2026-04-04T16:33:29.371Z</time></trkpt><trkpt lat="45.994069" lon="11.7629108"><ele>572.0</ele><time>2026-04-04T16:33:30.371Z</time></trkpt><trkpt lat="45.9941259" lon="11.7630435"><ele>572.0</ele><time>2026-04-04T16:33:31.371Z</time></trkpt><trkpt lat="45.9941754" lon="11.7631961"><ele>575.0</ele><time>2026-04-04T16:33:32.371Z</time></trkpt><trkpt lat="45.9942216" lon="11.7633569"><ele>578.0</ele><time>2026-04-04T16:33:33.37Z</time></trkpt><trkpt lat="45.9942673" lon="11.7635109"><ele>581.0</ele><time>2026-04-04T16:33:34.37Z</time></trkpt><trkpt lat="45.9943134" lon="11.7636575"><ele>584.0</ele><time>2026-04-04T16:33:35.37Z</time></trkpt><trkpt lat="45.9943575" lon="11.7637939"><ele>584.0</ele><time>2026-04-04T16:33:36.372Z</time></trkpt><trkpt lat="45.9943942" lon="11.7639049"><ele>584.0</ele><time>2026-04-04T16:33:37.372Z</time></trkpt><trkpt lat="45.9944198" lon="11.7639938"><ele>584.0</ele><time>2026-04-04T16:33:38.372Z</time></trkpt><trkpt lat="45.9944429" lon="11.7641204"><ele>584.0</ele><time>2026-04-04T16:33:40.37Z</time></trkpt><trkpt lat="45.9945498" lon="11.7641109"><ele>584.0</ele><time>2026-04-04T16:33:43.371Z</time></trkpt><trkpt lat="45.9945684" lon="11.7640219"><ele>584.0</ele><time>2026-04-04T16:33:44.37Z</time></trkpt><trkpt lat="45.994559" lon="11.7638844"><ele>584.0</ele><time>2026-04-04T16:33:45.371Z</time></trkpt><trkpt lat="45.9945283" lon="11.7637009"><ele>584.0</ele><time>2026-04-04T16:33:46.37Z</time></trkpt><trkpt lat="45.9944865" lon="11.7635039"><ele>584.0</ele><time>2026-04-04T16:33:47.372Z</time></trkpt><trkpt lat="45.9944515" lon="11.7633105"><ele>584.0</ele><time>2026-04-04T16:33:48.37Z</time></trkpt><trkpt lat="45.9944212" lon="11.7631292"><ele>585.0</ele><time>2026-04-04T16:33:49.37Z</time></trkpt><trkpt lat="45.9944266" lon="11.7629435"><ele>586.0</ele><time>2026-04-04T16:33:50.371Z</time></trkpt><trkpt lat="45.9944403" lon="11.7627477"><ele>587.0</ele><time>2026-04-04T16:33:51.371Z</time></trkpt><trkpt lat="45.9944577" lon="11.762564"><ele>588.0</ele><time>2026-04-04T16:33:52.371Z</time></trkpt><trkpt lat="45.994469" lon="11.7623929"><ele>589.0</ele><time>2026-04-04T16:33:53.371Z</time></trkpt><trkpt lat="45.9944735" lon="11.762228"><ele>590.0</ele><time>2026-04-04T16:33:54.37Z</time></trkpt><trkpt lat="45.9944739" lon="11.7620555"><ele>591.0</ele><time>2026-04-04T16:33:55.371Z</time></trkpt><trkpt lat="45.9944768" lon="11.7618911"><ele>592.0</ele><time>2026-04-04T16:33:56.372Z</time></trkpt><trkpt lat="45.9944837" lon="11.761721"><ele>593.5</ele><time>2026-04-04T16:33:57.371Z</time></trkpt><trkpt lat="45.9944938" lon="11.7615421"><ele>595.0</ele><time>2026-04-04T16:33:58.372Z</time></trkpt><trkpt lat="45.994513" lon="11.7613442"><ele>596.5</ele><time>2026-04-04T16:33:59.372Z</time></trkpt><trkpt lat="45.994539" lon="11.761132"><ele>598.0</ele><time>2026-04-04T16:34:00.371Z</time></trkpt><trkpt lat="45.9945572" lon="11.7609467"><ele>599.0</ele><time>2026-04-04T16:34:01.372Z</time></trkpt><trkpt lat="45.9945816" lon="11.760841"><ele>600.0</ele><time>2026-04-04T16:34:02.371Z</time></trkpt><trkpt lat="45.9946341" lon="11.7606991"><ele>601.0</ele><time>2026-04-04T16:34:04.371Z</time></trkpt><trkpt lat="45.9946528" lon="11.7606107"><ele>602.0</ele><time>2026-04-04T16:34:05.371Z</time></trkpt><trkpt lat="45.9946635" lon="11.7604617"><ele>603.0</ele><time>2026-04-04T16:34:07.371Z</time></trkpt><trkpt lat="45.9947367" lon="11.7602981"><ele>603.1666666666666</ele><time>2026-04-04T16:34:11.371Z</time></trkpt><trkpt lat="45.9948024" lon="11.7601971"><ele>603.3333333333334</ele><time>2026-04-04T16:34:13.372Z</time></trkpt><trkpt lat="45.9948633" lon="11.7601164"><ele>603.5</ele><time>2026-04-04T16:35:25.373Z</time></trkpt><trkpt lat="45.9948731" lon="11.7600034"><ele>603.6666666666667</ele><time>2026-04-04T16:35:27.372Z</time></trkpt><trkpt lat="45.9949284" lon="11.7599338"><ele>603.8333333333334</ele><time>2026-04-04T16:35:29.372Z</time></trkpt><trkpt lat="45.9949863" lon="11.7598445"><ele>604.0</ele><time>2026-04-04T16:35:31.372Z</time></trkpt><trkpt lat="45.9949919" lon="11.7597303"><ele>604.0</ele><time>2026-04-04T16:35:33.373Z</time></trkpt><trkpt lat="45.9950151" lon="11.7596389"><ele>604.0</ele><time>2026-04-04T16:36:35.373Z</time></trkpt><trkpt lat="45.994865" lon="11.7596107"><ele>604.0</ele><time>2026-04-04T16:36:50.373Z</time></trkpt><trkpt lat="45.9947491" lon="11.7595661"><ele>604.0</ele><time>2026-04-04T16:36:51.373Z</time></trkpt><trkpt lat="45.9946635" lon="11.7595397"><ele>604.0</ele><time>2026-04-04T16:36:52.373Z</time></trkpt><trkpt lat="45.9945926" lon="11.7594507"><ele>604.0</ele><time>2026-04-04T16:36:54.374Z</time></trkpt><trkpt lat="45.9946418" lon="11.7593892"><ele>604.0</ele><time>2026-04-04T16:36:59.373Z</time></trkpt><trkpt lat="45.9947369" lon="11.7594528"><ele>604.0</ele><time>2026-04-04T16:37:02.374Z</time></trkpt><trkpt lat="45.9948018" lon="11.7594935"><ele>604.0</ele><time>2026-04-04T16:37:04.461Z</time></trkpt><trkpt lat="45.9948795" lon="11.7595531"><ele>604.0</ele><time>2026-04-04T16:38:19.374Z</time></trkpt><trkpt lat="45.9950104" lon="11.7595816"><ele>636.0</ele><time>2026-04-04T16:38:56.871Z</time></trkpt></trkseg></trk></gpx>